GFSSGP_500_rhum_000.txt.gz
RH
13 18 19 17 22 23 21 22 20 24 48 93 98 86 61 64 58 48 48 49 48 47 34 31 31 32 20 11 10 10 8 8 8 8 9 9 9 11 10 9 9 10 10 12 16 18 18 17 17
13 12 17 22 25 25 22 16 18 27 43 78 81 54 72 69 60 54 61 58 53 51 32 30 31 30 18 12 11 8 8 9 9 9 9 10 10 10 9 9 8 8 8 10 11 9 8 9 10
10 13 19 24 31 28 19 17 16 26 42 79 80 42 67 72 59 54 64 63 55 51 29 28 26 23 18 16 11 10 10 10 11 11 9 8 9 10 9 6 5 7 3 13 10 13 11 8 4
9 14 19 28 30 22 12 12 15 22 50 75 58 42 57 71 66 64 64 62 55 50 29 27 26 16 16 14 11 11 11 11 11 12 11 9 8 8 9 7 5 6 12 9 17 14 13 12 9
13 11 22 32 33 20 10 14 45 70 59 53 50 59 67 68 70 71 65 60 52 47 34 27 26 19 17 18 11 7 7 10 11 11 10 7 5 8 8 7 5 4 19 14 17 14 14 14 13
22 11 20 32 31 17 14 37 92 81 76 62 48 60 71 68 72 67 62 51 46 44 40 30 27 21 17 18 16 9 7 6 8 9 7 8 8 8 7 5 4 7 20 17 17 19 18 18 16
32 16 12 30 29 19 15 20 71 96 57 66 52 58 66 62 67 66 54 50 47 43 39 39 30 28 20 22 17 10 7 6 6 8 9 9 11 11 9 7 6 8 19 18 19 19 22 26 28
31 24 9 30 28 20 21 28 84 85 57 55 56 62 77 66 73 64 48 47 48 41 39 39 38 32 25 28 22 16 6 7 8 9 9 12 13 14 13 14 13 8 14 20 22 21 22 26 28
24 33 8 25 31 22 24 26 78 72 62 48 60 71 71 74 68 52 36 35 44 46 36 38 38 34 29 25 34 27 17 6 6 8 10 11 13 13 15 16 15 14 11 17 20 24 23 23 24
19 34 10 22 31 24 21 31 61 50 52 50 60 77 70 68 57 44 38 38 32 47 39 34 38 35 30 26 29 28 26 24 18 16 14 13 13 12 11 11 12 13 12 11 16 20 24 26 24
20 34 21 15 31 26 21 38 44 48 58 56 61 61 64 65 49 42 42 37 29 45 44 34 35 34 27 24 25 22 22 22 21 21 19 17 15 14 12 12 15 21 18 11 10 15 21 20 21
21 26 36 14 31 27 29 36 42 51 75 55 58 72 74 62 49 38 40 36 27 39 38 33 32 32 22 23 25 26 24 20 20 19 18 19 19 17 17 21 25 25 23 19 12 9 13 21 20
22 26 36 15 29 30 36 39 42 62 64 66 68 61 54 49 43 37 35 34 30 33 48 34 29 30 28 27 26 28 30 29 29 29 28 26 22 20 20 23 24 22 20 17 12 8 7 9 19
25 24 38 17 29 34 33 48 44 52 53 58 56 53 48 44 40 34 31 31 30 28 38 34 30 29 28 27 27 28 29 30 29 25 21 19 19 21 24 24 22 17 14 12 9 8 7 7 10
28 25 40 20 28 36 28 50 49 47 49 49 50 45 47 42 34 28 26 26 26 28 35 32 29 30 31 31 30 30 29 23 20 18 15 12 11 12 12 13 13 12 10 8 8 7 6 6 6
27 24 37 28 23 39 25 40 45 45 45 45 44 46 43 41 34 34 24 23 24 36 32 32 31 30 27 26 23 19 15 10 11 10 9 8 8 8 8 8 8 7 7 7 7 7 7 6 6
28 25 42 30 23 40 28 34 35 36 42 44 44 42 37 36 36 32 27 32 41 36 33 30 28 27 24 17 10 3 2 3 4 4 5 5 6 6 6 7 7 7 7 7 7 7 7 7 7
31 30 38 35 19 39 39 42 45 55 48 35 29 38 47 54 66 46 48 44 38 34 33 32 29 21 13 4 1 2 2 3 3 3 4 4 4 5 5 4 4 5 5 5 6 6 7 7 7
36 27 32 38 19 40 45 48 51 47 31 16 34 39 48 58 62 52 42 36 35 35 32 26 17 7 1 1 1 0 0 0 0 1 1 1 2 2 2 3 4 4 3 4 4 4 4 5 5
40 30 33 45 16 36 51 53 37 21 24 31 35 42 48 54 52 42 39 35 32 30 22 11 4 1 3 3 2 2 4 6 7 8 10 11 11 13 15 16 17 20 22 23 23 22 22 22 25
31 31 31 51 20 15 42 51 32 20 15 35 42 46 51 48 42 38 35 35 34 24 6 0 1 4 6 8 10 12 13 17 19 20 19 18 18 18 19 19 21 24 27 31 35 37 38 38 41
29 33 31 59 21 16 35 35 30 24 18 35 46 44 45 42 40 39 34 28 19 4 1 7 10 11 11 11 15 20 21 20 21 22 23 28 29 31 30 30 30 30 31 32 32 31 30 29 29
40 44 49 67 17 15 29 30 25 28 21 26 41 44 43 39 32 25 13 4 3 7 11 10 12 16 21 23 23 24 26 30 32 32 30 27 25 22 21 20 20 20 22 22 24 24 24 24 24
48 52 70 68 16 11 20 25 25 22 18 24 30 38 35 29 18 8 5 7 8 9 15 25 30 37 36 34 33 32 28 24 19 15 14 14 16 16 16 16 17 17 17 17 17 17 18 18 19
44 47 60 50 25 8 16 25 24 24 16 20 23 27 22 10 4 5 6 12 20 30 39 39 39 36 31 26 21 16 13 10 10 12 16 21 24 25 27 28 29 31 34 36 38 39 43 46 46
48 57 56 25 10 6 12 19 17 15 12 13 14 14 8 6 8 14 24 41 44 40 36 33 29 24 20 16 13 12 15 21 26 25 19 14 11 8 6 5 5 6 7 12 21 28 37 45 52
49 54 24 7 1 4 7 7 6 5 7 10 9 8 17 19 21 42 43 40 34 32 27 24 20 17 16 19 24 25 18 8 5 6 7 7 8 8 8 8 8 8 9 9 10 11 12 14 16
41 15 7 3 0 2 4 7 8 11 10 10 15 26 35 36 46 43 39 33 28 24 20 18 19 24 24 10 4 4 7 9 9 9 8 8 8 8 9 10 10 11 12 13 13 15 18 23 25
22 4 0 3 3 5 9 10 13 19 30 34 40 42 43 43 38 33 28 24 24 22 26 30 28 11 6 8 8 9 10 10 9 8 9 10 10 11 10 11 11 11 12 13 15 18 21 26 40
0 1 3 5 10 15 25 33 42 47 47 44 42 40 35 30 27 26 27 31 37 35 24 12 9 10 11 12 13 12 12 11 10 11 11 12 11 12 13 14 13 13 12 14 18 26 35 53 67

GFSSGP_500_rhum_003.txt.gz
RH
12 14 23 24 22 25 26 24 26 40 36 39 48 91 79 66 56 55 55 46 41 45 47 34 31 32 29 20 11 7 7 8 9 9 9 9 9 9 12 11 10 10 9 8 8 10 8 8 7
12 12 17 21 23 27 27 22 19 29 29 44 82 97 97 67 61 65 64 64 57 52 52 36 31 32 30 18 11 6 6 8 10 10 10 9 10 10 11 12 11 9 8 6 12 11 14 13 11
12 12 18 17 26 32 28 22 17 22 25 42 92 84 73 58 63 74 73 69 61 55 54 34 30 29 26 17 15 8 8 10 10 11 11 10 9 9 11 11 9 7 6 7 12 17 15 12 12
22 12 16 24 30 32 29 22 14 17 21 30 59 76 63 57 62 82 78 66 59 56 52 34 28 27 19 17 12 8 10 11 10 12 11 10 9 8 8 9 9 7 6 16 14 18 14 16 15
34 15 10 19 34 33 31 19 12 11 20 27 39 60 58 57 65 81 76 66 59 53 49 40 27 27 17 18 18 9 6 9 11 12 11 9 9 7 7 8 7 5 6 19 18 18 18 19 23
36 28 13 13 34 34 29 17 12 17 41 36 50 54 68 56 69 74 76 68 54 49 45 41 29 28 23 19 20 16 7 6 4 7 9 9 8 8 8 8 7 4 7 18 22 21 21 22 24
29 31 19 10 28 30 31 18 15 28 62 74 55 49 64 62 70 69 70 66 52 48 44 39 37 30 29 24 22 18 9 7 6 6 7 9 9 10 12 12 11 11 8 10 22 23 23 22 23
19 31 26 8 22 29 26 19 18 70 69 62 51 52 53 61 68 68 69 55 43 46 43 39 38 38 32 32 25 26 19 7 6 6 8 10 10 13 14 14 15 15 14 12 10 20 23 24 23
18 32 33 9 15 24 28 25 18 31 80 77 49 58 54 62 70 74 66 39 35 35 45 39 35 38 38 34 29 29 32 22 8 6 8 9 11 11 12 12 12 12 13 12 11 10 14 19 23
19 23 39 22 11 19 25 26 24 36 79 70 53 53 55 69 71 68 52 42 39 32 35 49 36 34 38 36 31 28 31 29 23 19 16 14 15 14 14 14 13 12 13 16 21 20 15 11 15
20 25 40 32 11 17 28 29 25 43 64 51 54 50 59 70 66 69 52 41 38 31 29 45 38 34 35 36 30 28 25 23 22 21 20 20 20 18 17 16 16 14 17 22 25 26 24 20 15
18 26 31 39 19 14 30 32 28 38 58 49 51 62 63 62 63 64 50 37 36 32 28 42 49 35 32 35 26 24 26 25 23 22 21 20 20 22 21 22 21 20 21 23 24 23 20 18 15
19 28 26 36 35 13 29 33 31 38 51 54 66 70 62 61 62 58 46 35 31 29 30 28 41 39 32 34 31 26 25 26 27 28 27 28 29 29 27 27 28 27 26 23 24 19 15 13 11
21 25 26 33 45 20 23 34 27 46 51 62 62 67 63 58 56 48 40 34 26 25 28 27 36 36 34 37 34 31 30 29 29 29 30 30 25 20 19 18 16 15 15 15 15 14 12 10 8
23 24 29 36 41 31 20 35 34 43 48 55 52 50 51 51 50 47 42 32 24 22 26 27 36 33 32 34 33 29 28 28 27 25 22 15 14 14 12 10 10 10 10 9 9 9 8 7 7
27 24 30 44 39 39 22 31 35 41 45 46 45 46 46 45 45 42 38 33 26 25 27 37 35 34 31 28 26 24 22 19 14 8 3 4 5 5 5 6 7 7 7 7 7 7 8 8 8
23 21 29 35 36 38 18 33 34 38 42 44 44 42 45 48 47 44 41 34 32 36 39 38 34 32 32 30 25 17 11 2 1 2 3 4 4 4 4 4 4 5 4 4 3 4 4 4 5
21 30 31 38 42 36 15 37 32 24 31 40 47 45 44 28 47 47 36 50 59 47 38 33 33 34 29 22 12 4 1 1 1 1 1 1 2 3 4 6 7 9 11 13 15 16 17 18 19
33 29 28 39 42 44 14 39 41 50 52 52 43 35 14 24 49 61 67 59 44 37 34 34 33 27 17 6 2 1 2 2 2 5 10 14 18 19 18 18 19 20 22 24 26 28 29 31 34
32 31 30 39 33 43 14 35 42 48 51 36 20 7 24 43 50 57 57 44 39 37 34 30 27 18 3 0 2 6 8 11 15 20 23 22 23 24 26 28 29 30 29 31 31 31 30 30 31
36 30 33 39 28 52 21 25 46 55 46 15 9 12 33 43 50 52 47 40 35 33 30 19 13 2 1 7 9 10 16 24 27 30 33 33 31 30 28 25 22 21 18 18 18 18 17 17 18
50 34 35 37 37 48 33 16 44 52 41 21 18 34 44 42 43 43 42 38 34 25 15 5 1 4 8 12 23 29 32 34 35 34 30 26 21 18 15 14 13 13 13 14 17 20 21 23 23
58 54 35 34 36 30 42 15 26 31 29 24 26 28 45 47 44 45 42 33 24 14 5 4 7 12 26 35 37 36 35 33 28 23 18 15 13 13 14 16 19 20 20 16 11 8 6 6 5
92 56 43 31 31 21 38 15 21 26 27 26 24 26 35 43 43 40 35 22 9 5 7 19 33 37 38 38 34 30 27 22 17 13 13 15 17 14 9 6 6 6 6 6 6 6 6 7 7
71 48 36 33 29 29 43 19 16 24 24 26 21 20 26 32 35 31 23 8 5 16 31 41 39 38 36 33 28 22 18 17 18 17 11 5 6 7 8 8 8 8 7 7 7 8 8 8 8
59 42 32 39 36 46 45 31 10 16 22 24 16 17 21 25 23 19 10 10 26 44 48 42 37 33 28 22 21 20 22 10 5 4 6 8 8 9 9 8 8 8 9 10 11 11 10 10 10
45 34 50 45 41 42 39 18 6 10 14 16 14 14 14 13 12 10 17 40 50 49 41 36 30 25 22 22 27 22 8 8 9 9 9 10 10 11 11 11 12 13 13 12 11 10 10 11 11
38 68 57 43 35 34 22 3 4 7 9 8 10 12 13 12 18 38 48 50 46 37 30 26 26 30 30 19 10 10 10 10 10 11 13 14 14 15 15 14 12 11 9 8 8 9 11 11 11
49 44 41 33 24 10 2 2 4 10 16 15 17 20 24 35 43 44 41 36 30 27 31 45 38 20 10 9 12 12 14 18 18 18 17 18 17 15 12 10 7 6 6 6 6 7 8 8 8
58 55 32 16 6 1 4 11 16 21 26 35 38 45 45 43 36 34 33 32 30 38 39 30 16 11 14 16 16 18 21 21 20 20 20 17 14 11 8 8 8 7 7 6 6 6 6 7 9

GFSSGP_500_rhum_006.txt.gz
RH
20 10 16 19 21 21 28 27 27 30 30 34 29 41 62 76 69 58 60 53 46 39 44 46 40 32 31 27 24 13 9 7 9 10 9 9 8 9 9 11 11 13 13 11 8 8 10 13 13
27 10 18 24 20 27 30 30 27 25 25 33 35 45 90 90 76 63 68 64 61 57 55 51 44 32 31 30 22 14 5 4 8 11 10 9 9 9 10 11 11 11 9 7 5 10 12 16 12
34 17 12 24 23 28 29 27 23 22 19 21 31 47 86 96 83 62 75 80 68 61 58 53 45 31 30 24 19 16 7 6 10 12 11 11 10 9 9 10 11 10 9 7 6 13 17 15 14
40 29 12 16 25 33 34 29 24 22 20 19 22 71 87 79 76 66 80 76 66 60 58 52 45 30 29 20 18 15 8 9 11 12 12 11 12 11 9 8 9 9 8 6 7 15 18 17 16
37 38 20 12 21 32 34 28 25 23 20 15 16 46 72 74 70 73 75 74 65 58 53 49 47 31 28 22 17 17 11 7 11 12 13 14 12 11 10 7 8 8 6 4 7 16 19 20 18
16 36 30 15 11 22 30 31 28 25 18 16 23 32 60 55 67 74 72 72 68 55 50 46 44 37 28 28 20 19 20 12 6 6 9 11 9 10 9 8 8 8 7 6 7 12 20 23 20
13 30 36 25 9 15 25 28 28 22 16 22 30 39 48 47 66 64 70 74 68 51 49 46 42 39 35 29 29 24 23 21 10 7 6 6 8 9 9 10 12 12 13 14 13 12 12 16 21
14 17 35 28 10 11 19 24 24 20 17 30 70 78 54 43 57 54 65 71 62 39 39 46 42 39 38 38 32 31 26 25 21 8 6 7 8 9 10 12 13 14 15 15 15 14 12 12 14
18 14 30 34 16 11 15 19 24 23 27 86 83 74 65 50 56 59 65 69 46 40 36 35 48 41 36 38 39 35 31 28 30 26 12 6 8 9 10 11 12 12 12 12 11 11 12 14 19
21 15 24 39 30 15 14 17 23 28 26 61 88 90 71 66 63 72 75 63 43 43 35 30 43 46 39 36 40 38 34 30 29 31 28 25 21 19 19 19 19 19 17 16 16 14 16 22 25
23 18 23 31 36 25 17 16 23 31 32 60 64 59 62 62 66 74 66 58 45 40 34 30 33 48 41 35 35 39 35 30 28 26 25 22 22 22 22 21 21 21 22 22 22 22 23 22 22
22 22 25 27 29 32 13 15 27 31 36 52 70 53 70 70 65 67 56 63 48 36 31 30 30 36 46 40 32 34 32 25 24 25 25 26 27 27 27 28 28 29 28 28 28 28 27 26 25
24 26 25 26 24 37 20 12 22 30 37 42 65 52 63 76 73 65 63 61 50 39 30 26 27 29 37 39 32 31 32 30 28 27 27 27 27 28 29 30 29 21 19 18 16 14 14 14 14
28 29 23 22 31 32 35 14 20 34 37 40 50 58 72 71 58 50 49 52 49 41 28 22 25 29 35 37 34 33 34 33 30 28 27 27 26 26 24 18 11 10 9 10 10 10 9 8 8
27 26 21 23 36 29 32 23 16 33 28 41 48 63 58 55 48 43 45 49 47 43 31 22 25 30 36 36 34 30 27 27 25 23 22 21 17 12 6 3 4 5 5 6 6 7 7 7 7
28 25 21 27 33 34 27 30 18 32 35 45 48 54 49 45 44 45 46 46 46 42 34 25 26 35 37 33 32 32 29 24 18 13 7 2 1 2 3 4 4 4 4 4 3 3 3 4 4
32 21 23 31 29 30 28 40 22 31 36 38 47 48 45 42 48 53 55 52 47 42 31 37 37 39 34 34 33 29 19 10 6 2 1 1 1 1 2 5 10 12 16 19 19 20 19 21 25
34 20 27 36 31 29 41 46 20 33 36 36 38 43 42 49 51 47 34 40 50 50 37 52 40 31 34 34 30 22 9 2 1 2 2 4 8 14 20 22 24 24 27 30 31 31 31 31 32
33 25 30 35 28 29 35 36 16 37 33 30 36 45 48 47 44 23 11 37 65 68 56 39 34 35 35 31 25 13 2 1 4 6 9 16 23 24 25 28 32 33 34 32 29 24 21 19 17
35 25 30 32 25 30 37 36 18 40 43 48 51 48 37 18 9 30 42 54 64 55 44 38 37 35 32 22 11 1 6 8 11 16 25 29 33 36 36 34 30 23 19 15 14 13 14 15 17
36 29 31 32 29 33 41 40 12 36 43 50 53 25 11 11 18 36 46 54 54 46 41 37 35 29 14 4 3 9 12 20 28 32 36 39 37 33 27 21 17 16 16 16 14 11 8 7 6
37 44 39 33 29 34 30 38 17 20 44 57 50 26 18 27 38 40 47 50 45 38 38 35 24 11 4 8 10 23 32 37 42 43 40 35 28 21 19 18 15 9 7 6 7 8 8 8 8
53 58 50 36 31 30 39 40 25 16 41 53 39 24 25 32 44 46 44 42 41 36 33 23 7 4 8 21 33 36 43 46 43 36 27 20 18 14 7 5 6 7 8 8 9 9 10 9 9
66 60 70 44 38 26 37 32 35 16 23 27 25 22 25 27 32 31 33 36 36 33 21 6 5 11 24 31 37 41 41 36 28 23 21 12 8 8 9 10 10 11 11 11 12 12 13 14 13
65 87 80 57 38 23 32 33 35 20 18 20 22 25 23 19 21 24 25 30 30 21 10 7 20 29 37 44 46 39 29 23 25 23 13 10 10 12 12 14 15 16 16 16 16 16 15 12 10
59 77 54 42 34 26 27 27 40 28 13 18 22 20 22 21 19 20 24 24 19 12 11 23 39 47 50 46 35 25 27 23 12 10 10 10 11 13 16 18 19 19 19 18 15 12 10 9 9
85 75 71 57 38 25 26 37 41 36 15 11 15 16 19 19 15 16 15 13 14 24 38 48 49 46 35 26 28 29 15 10 10 13 15 15 16 18 20 21 21 19 16 14 12 12 12 11 10
64 96 69 50 42 30 26 30 33 23 11 9 12 14 13 13 14 14 16 24 44 48 46 44 35 28 28 31 28 14 14 17 18 17 16 19 20 21 21 19 18 17 16 15 13 12 10 9 9
52 44 43 47 40 33 30 30 20 4 5 10 13 13 12 13 16 24 42 50 44 40 35 33 33 31 26 16 18 20 18 16 17 19 19 20 21 20 20 19 17 15 14 12 11 10 8 7 6
57 54 56 47 51 46 33 20 4 4 10 18 21 19 21 31 45 53 45 37 35 34 37 34 20 17 23 22 21 20 23 24 24 23 23 22 22 20 16 16 15 13 11 10 8 7 5 5 5

GFSSGP_500_rhum_009.txt.gz
RH
30 31 14 9 11 13 18 21 21 21 20 22 21 32 35 54 65 59 58 54 49 45 42 40 41 39 34 30 28 27 20 13 7 9 10 10 9 10 9 9 11 11 12 12 11 7 6 9 10
28 35 14 15 18 21 24 27 27 24 22 22 26 30 35 58 67 73 63 52 50 56 54 52 48 48 34 31 28 28 18 8 5 8 11 11 11 10 10 10 11 11 11 10 8 6 7 10 13
26 37 24 13 22 26 30 28 26 24 21 22 24 30 34 67 92 87 76 63 68 62 60 55 52 50 34 31 24 23 17 8 5 6 11 12 12 12 12 10 10 10 11 10 8 7 7 13 17
19 38 36 14 18 28 30 28 25 25 24 24 22 27 41 90 98 89 78 66 70 61 58 55 51 51 34 30 24 18 16 10 8 8 12 12 12 12 12 11 9 9 9 8 7 5 8 15 18
19 29 44 22 12 23 26 25 25 28 29 29 23 28 47 96 86 80 77 72 66 60 58 52 49 48 39 29 28 17 18 13 7 10 11 12 12 14 12 10 10 7 7 8 7 4 7 11 18
20 18 37 37 16 14 22 25 27 28 30 30 22 22 41 75 82 78 72 73 65 62 56 50 47 46 43 30 28 25 19 20 17 10 6 7 10 12 10 10 9 8 9 10 11 12 12 13 13
24 17 22 40 23 11 13 19 24 27 29 23 19 24 35 58 70 65 69 68 60 63 51 45 47 44 41 39 31 30 28 24 23 21 13 7 6 6 7 9 9 10 13 14 15 15 15 15 14
24 21 16 38 38 15 12 12 22 26 27 21 19 33 70 53 60 59 74 58 55 62 41 37 39 44 41 39 38 36 31 32 29 26 24 19 6 6 7 9 10 11 12 12 13 13 12 12 12
26 24 17 25 44 24 15 14 19 24 27 21 32 74 85 87 71 68 72 58 54 59 38 39 33 38 46 39 36 37 37 34 32 30 29 31 27 14 6 8 8 9 14 18 18 18 16 15 14
28 24 20 19 34 36 23 15 15 23 28 34 83 93 94 80 74 75 68 56 57 53 41 39 32 30 41 43 38 34 34 37 36 33 30 30 30 29 26 24 23 23 22 22 22 23 23 24 23
32 26 28 24 19 34 32 19 14 22 29 30 38 82 74 69 72 71 70 69 67 55 42 38 32 31 31 45 46 37 33 35 37 35 30 28 26 23 22 23 24 26 26 27 28 29 27 26 26
37 29 32 30 21 20 34 28 16 18 32 29 35 74 60 64 64 68 78 70 68 62 49 37 31 26 29 30 36 39 31 32 33 30 25 24 24 25 26 27 28 27 27 28 27 16 14 15 15
41 30 32 37 22 18 27 33 22 18 34 27 36 72 60 56 67 71 72 71 63 58 56 43 30 23 27 28 34 37 34 33 33 32 31 30 28 27 26 25 23 22 20 15 8 7 7 8 9
47 32 38 33 21 18 21 34 25 15 30 28 29 61 63 65 76 77 61 54 52 50 54 47 35 26 25 32 37 38 34 30 29 28 27 23 20 16 11 8 6 4 2 2 4 4 5 6 6
45 34 39 30 23 21 19 30 36 17 24 30 31 51 56 68 72 61 48 44 47 49 48 45 40 31 26 32 39 34 33 33 31 27 21 14 8 3 2 1 2 3 3 3 3 4 4 6 6
50 39 36 31 27 21 16 53 36 27 20 32 39 48 61 61 56 51 44 46 49 53 51 47 40 30 28 37 37 35 34 32 28 19 9 4 3 1 1 2 4 6 10 13 15 18 20 21 20
51 38 31 43 25 19 16 49 32 28 19 32 34 46 54 52 49 42 46 53 52 47 52 52 46 36 38 37 32 34 35 32 26 14 3 1 3 4 8 14 20 23 24 24 24 25 26 30 30
51 38 30 43 25 18 17 41 28 29 23 35 35 36 46 49 46 40 50 48 51 43 30 51 56 41 44 33 34 35 34 29 16 3 3 6 8 12 18 25 27 31 35 36 35 33 27 20 15
54 44 35 45 24 17 20 28 28 35 23 36 34 38 44 46 40 48 52 48 23 8 33 70 67 52 37 36 37 35 29 13 4 5 9 11 16 24 30 35 40 40 35 26 18 14 13 12 9
60 47 41 36 23 19 21 26 33 35 22 38 34 39 39 39 44 46 36 13 35 45 56 62 53 44 40 39 36 21 8 3 9 13 20 30 37 41 45 40 31 22 17 14 11 8 7 8 9
59 52 40 31 25 21 23 27 40 30 26 40 48 50 50 46 29 11 6 28 46 56 57 55 47 44 44 29 15 6 8 11 15 31 40 45 48 45 33 23 17 11 7 7 8 10 11 12 14
64 53 40 36 28 24 24 25 56 29 19 40 47 49 54 45 14 16 26 34 42 52 52 46 47 46 30 12 5 7 13 25 36 42 48 46 36 26 22 14 10 10 12 12 13 13 13 14 17
63 50 40 40 30 26 25 26 53 51 14 27 42 51 50 39 23 34 43 47 46 45 47 48 46 32 12 5 6 18 32 42 49 50 38 24 24 22 16 12 11 12 13 14 16 18 19 20 19
63 53 48 42 36 27 33 25 53 56 22 17 29 44 42 23 25 30 32 38 44 49 48 43 30 20 8 9 23 34 45 49 46 32 25 22 14 10 14 17 18 16 13 15 18 20 19 19 18
61 60 55 55 44 27 32 27 38 41 35 18 18 23 20 19 22 22 24 26 34 33 29 24 17 12 12 22 44 52 49 36 29 29 19 11 16 19 20 17 14 14 14 16 19 20 20 20 19
65 59 61 71 42 34 37 27 32 34 38 22 17 19 20 20 20 20 21 24 24 21 17 14 15 24 38 53 49 39 28 29 30 19 16 20 19 18 17 16 14 16 18 20 21 21 20 18 16
83 70 76 51 46 42 38 31 26 43 42 39 28 14 14 20 19 17 17 18 17 15 16 21 36 48 46 36 31 30 31 23 18 20 21 21 18 16 16 16 18 21 22 22 21 20 19 17 16
86 82 74 52 57 40 35 34 32 39 40 39 35 24 12 11 15 17 19 18 16 22 38 47 48 39 35 35 32 22 20 22 22 20 18 17 18 17 18 20 21 23 23 22 21 20 16 13 11
68 57 65 78 64 44 32 35 42 39 34 30 20 12 9 11 13 16 18 20 37 56 52 44 38 39 33 20 21 24 22 21 19 20 19 20 21 22 22 24 25 24 23 21 18 15 13 10 8
63 69 90 70 57 50 46 51 50 33 26 18 8 6 16 20 23 26 37 58 60 46 42 43 40 22 22 26 24 21 19 21 22 23 24 24 25 26 27 26 25 23 21 18 15 13 10 9 8

GFSSGP_500_rhum_012.txt.gz
RH
18 15 31 27 11 6 6 12 14 18 22 18 16 22 32 39 45 48 46 50 47 45 41 38 38 37 32 36 32 29 28 25 16 11 9 10 10 9 9 9 9 10 11 11 12 9 7 6 8
20 18 29 30 15 13 15 17 19 20 19 18 17 20 34 38 40 55 59 55 50 39 40 45 47 42 42 38 32 28 25 23 13 4 7 10 11 11 10 10 10 11 11 10 10 9 8 7 10
22 19 30 33 14 18 22 21 26 25 21 21 23 22 36 42 53 71 69 71 66 45 49 52 50 44 46 39 31 26 18 17 12 4 6 10 12 12 11 12 12 10 10 10 10 9 8 6 8
27 21 27 39 19 17 26 29 30 25 22 24 25 23 32 41 50 82 86 82 66 53 44 55 49 45 46 44 30 27 17 16 10 8 7 9 13 12 12 12 12 11 10 9 9 8 8 4 7
31 23 22 44 26 15 22 32 28 25 25 27 29 26 25 40 82 88 80 79 68 57 49 53 47 47 45 46 33 28 24 17 17 8 9 10 12 12 12 13 13 10 10 8 8 8 8 8 10
32 27 22 31 38 18 17 29 27 26 30 29 30 29 27 33 73 90 80 77 62 53 55 54 48 47 45 44 39 30 29 25 20 20 14 9 7 7 8 11 10 9 10 8 11 12 12 12 13
32 31 23 21 43 29 15 19 22 26 29 29 32 26 23 25 40 81 75 66 55 53 58 52 43 44 45 43 40 38 32 30 30 26 24 22 16 10 7 6 6 8 9 11 13 14 14 14 13
34 33 26 20 29 42 22 13 16 20 28 31 30 21 19 32 34 69 64 62 50 52 54 45 38 35 40 42 40 39 38 37 33 32 31 28 27 25 14 7 7 9 10 11 11 11 12 16 18
39 30 28 25 19 36 34 16 12 16 29 29 27 18 32 78 58 52 58 61 53 51 54 40 40 31 31 42 41 39 36 36 37 38 35 33 31 31 32 28 21 14 14 17 20 22 23 22 22
40 31 32 30 21 22 36 29 14 16 26 30 27 29 68 69 74 66 63 61 54 49 60 40 40 34 31 31 40 47 41 34 33 34 38 37 34 31 28 27 25 24 23 23 24 25 26 27 27
43 32 36 34 26 19 25 37 19 14 22 30 31 65 72 79 68 64 67 66 62 66 67 48 40 35 30 26 29 31 38 40 33 32 35 35 32 29 27 26 25 25 25 26 27 28 27 27 27
47 41 36 37 33 18 18 34 26 12 20 28 28 35 54 75 71 66 61 62 78 78 71 58 47 38 28 26 27 29 32 38 34 32 33 32 31 29 29 28 27 27 27 26 25 22 19 14 7
56 46 41 38 35 22 19 26 31 20 16 29 27 25 61 61 63 62 60 67 84 77 68 61 58 47 32 25 26 28 33 37 35 32 29 27 27 26 24 22 20 20 16 10 5 3 2 3 4
64 53 44 40 38 28 21 25 17 30 13 20 27 26 59 61 56 64 68 70 77 72 61 59 56 49 41 32 29 29 33 36 30 30 29 25 21 16 14 13 9 5 2 1 2 3 3 4 4
69 57 46 43 41 29 25 23 22 44 20 15 25 29 33 66 63 69 78 75 62 50 48 48 49 50 44 37 30 30 36 35 34 33 32 29 20 8 2 2 2 2 3 3 6 10 16 20 22
78 59 42 53 43 30 26 26 37 28 29 19 26 30 33 64 66 68 70 59 48 50 48 51 51 49 47 40 34 34 35 32 32 34 33 30 18 5 2 6 9 9 12 16 23 24 26 29 30
87 54 42 55 43 33 23 31 33 22 30 25 24 30 44 54 62 64 58 54 49 47 51 50 49 43 52 52 50 43 32 30 34 35 29 16 6 5 9 11 14 18 26 30 33 36 36 33 28
78 59 49 51 44 32 22 32 30 20 25 32 22 32 41 50 59 54 50 44 43 51 53 55 44 25 54 70 58 40 33 36 36 25 11 6 8 12 14 19 30 36 39 41 38 32 22 15 11
87 76 53 53 46 32 21 33 25 19 32 25 26 34 35 46 50 49 47 42 40 51 54 24 13 42 68 63 46 39 39 38 21 9 7 10 13 23 33 39 42 43 38 27 19 11 8 9 10
91 71 54 60 46 30 26 27 26 20 29 30 26 35 32 35 42 46 43 40 39 45 25 35 56 63 61 52 44 45 38 18 10 9 10 13 25 37 42 43 38 28 22 17 13 11 12 14 14
89 68 59 66 44 28 29 30 26 23 24 33 26 32 34 40 43 44 44 46 38 12 27 50 61 67 61 52 49 34 16 10 9 15 30 39 44 46 39 29 24 22 17 12 14 17 15 12 11
89 69 71 66 45 31 29 29 31 29 24 31 27 35 42 46 50 47 33 9 6 18 32 44 57 60 58 48 33 19 12 11 20 33 40 49 47 36 28 25 18 11 14 19 17 14 12 10 10
88 72 77 62 48 32 33 28 32 27 26 30 25 44 50 50 52 52 25 21 31 37 41 45 57 56 51 33 19 14 13 25 36 53 52 42 33 31 27 14 12 19 19 17 14 14 14 15 16
90 80 68 60 48 35 32 30 43 36 45 38 20 35 44 43 53 55 27 27 36 39 46 55 55 47 31 19 16 18 32 50 54 45 34 32 35 26 16 20 21 17 16 17 18 17 18 19 20
95 80 70 59 49 34 34 29 45 42 44 48 27 16 24 42 51 29 20 25 33 43 48 45 35 25 20 18 21 44 52 46 37 34 39 34 23 21 21 18 18 20 20 20 19 20 21 22 23
83 78 67 58 51 36 40 30 38 48 57 52 39 22 17 20 20 18 20 21 26 31 29 25 22 19 21 25 44 46 37 36 38 30 22 23 22 18 20 22 23 22 22 22 22 24 24 24 23
88 75 67 66 52 35 46 35 40 36 34 35 36 30 17 17 20 21 20 19 18 19 19 18 19 22 33 52 42 39 40 27 21 25 23 20 19 23 24 25 25 25 25 26 27 27 25 23 21
85 88 74 58 52 47 53 45 43 39 30 30 36 38 38 30 19 14 14 17 19 18 19 21 29 48 48 41 42 32 22 26 25 21 20 24 25 26 27 28 30 31 31 31 29 26 23 20 18
74 82 73 66 53 46 53 46 35 35 39 39 36 35 35 32 25 15 13 13 14 20 28 47 55 45 44 38 26 26 28 24 22 25 27 28 30 31 33 34 34 35 36 32 28 24 21 18 16
98 98 97 78 53 48 48 52 46 39 41 40 35 30 23 18 12 12 17 23 30 48 57 51 49 44 33 25 25 25 24 26 28 28 30 33 34 35 36 40 40 39 34 30 25 22 19 15 10

GFSSGP_500_rhum_015.txt.gz
RH
24 22 17 20 29 20 8 8 4 8 11 11 15 20 23 30 28 37 39 35 37 44 42 37 34 37 36 31 27 32 31 28 28 23 13 10 10 10 9 8 8 8 9 11 12 11 11 8 8
25 27 21 23 28 24 10 8 10 12 13 15 16 17 22 27 30 31 35 38 42 48 47 34 37 46 42 36 37 34 31 26 26 18 5 5 8 11 10 10 10 10 10 10 11 10 9 9 8
29 28 26 21 40 23 30 12 12 15 20 20 18 17 23 25 31 31 29 35 53 60 56 37 46 50 44 39 38 34 31 21 17 13 7 5 9 11 12 11 11 12 11 11 10 10 10 9 7
33 30 29 21 34 27 17 19 20 24 26 23 22 24 23 24 28 34 40 60 71 73 46 38 51 50 43 41 41 35 30 25 18 15 8 7 7 10 13 13 12 12 12 11 11 9 8 8 7
38 33 32 24 26 34 20 22 28 31 28 26 28 26 23 23 25 29 38 63 83 70 44 42 52 48 48 43 43 42 31 29 23 18 16 8 9 10 12 13 13 13 13 11 10 8 8 9 9
40 36 34 30 23 36 28 20 32 32 28 27 28 29 26 24 21 31 58 82 68 66 45 48 54 48 46 46 42 42 37 30 29 26 22 21 16 9 7 7 7 7 7 8 9 9 11 13 14
44 38 36 35 23 26 38 22 31 30 28 27 31 32 25 24 19 25 56 79 58 50 45 55 55 43 42 44 42 41 39 38 34 31 31 30 28 25 23 15 8 6 7 7 9 10 11 12 13
48 44 35 35 31 25 31 35 19 30 26 24 33 35 29 22 18 19 28 68 51 41 50 53 56 39 34 36 40 41 41 39 38 38 39 36 34 32 31 32 30 22 10 8 9 10 10 14 20
60 46 36 38 37 28 21 43 26 16 22 26 32 33 27 20 21 28 29 59 51 39 49 52 57 39 35 31 32 40 42 41 40 36 34 35 38 39 36 33 30 30 29 26 24 22 23 22 23
60 51 41 41 40 34 24 22 38 16 15 21 30 31 25 19 50 59 44 52 53 50 50 51 59 41 37 31 29 30 35 41 42 40 35 33 36 38 37 34 31 29 27 25 24 25 25 26 26
47 54 50 43 41 40 31 21 30 27 13 17 27 27 22 24 63 70 62 60 58 54 54 59 64 45 39 35 30 26 28 29 31 36 36 33 35 35 32 29 27 26 26 25 26 26 26 27 27
26 52 59 46 40 43 35 25 17 33 14 14 22 28 27 40 63 69 66 63 60 60 65 73 65 54 48 42 30 27 28 27 29 35 35 34 32 29 27 26 25 25 25 24 23 23 21 17 8
33 34 63 50 42 46 39 27 18 27 21 12 17 25 40 52 66 77 69 63 59 64 78 76 70 64 59 57 44 30 30 31 31 35 34 30 30 28 25 21 18 18 15 12 9 4 2 1 2
39 37 58 55 42 45 39 30 18 22 34 15 13 22 27 33 53 64 64 61 61 66 80 77 68 60 56 52 51 45 36 35 30 36 31 30 31 31 30 28 18 7 2 2 2 2 3 5 9
41 43 54 56 48 48 40 29 23 30 27 34 17 21 27 28 42 58 56 63 68 70 76 74 65 52 49 49 52 44 35 33 35 37 26 28 34 34 31 20 10 4 3 5 7 11 17 24 26
46 47 46 53 54 52 42 30 27 22 21 34 26 16 28 29 43 61 59 66 72 73 65 50 47 48 52 50 48 47 42 43 46 32 25 34 35 28 14 6 5 7 10 14 19 25 28 28 30
56 36 34 59 55 58 39 32 33 30 22 23 29 18 26 30 30 66 64 61 69 65 52 50 47 52 48 51 40 44 55 59 45 31 35 37 26 12 7 10 14 20 27 30 31 34 36 32 25
36 38 44 56 63 56 46 34 35 35 24 22 30 24 25 31 36 61 62 60 63 58 50 44 51 53 56 53 25 52 70 53 36 38 40 26 12 9 12 14 28 34 37 41 39 32 24 20 17
61 61 57 61 66 62 48 33 38 32 23 26 27 31 22 32 42 54 54 62 56 50 44 38 42 51 49 16 39 65 60 43 43 42 26 11 8 12 21 36 40 41 39 33 28 22 20 14 12
58 99 70 85 71 61 54 34 42 30 21 29 30 29 21 31 37 47 50 53 48 46 45 41 42 41 21 44 54 60 53 48 44 30 12 8 12 26 35 42 45 38 31 26 24 16 12 14 19
85 70 72 86 76 64 50 34 41 32 24 25 34 32 24 34 34 36 40 40 46 45 44 44 34 15 62 85 76 67 58 50 33 16 10 16 36 50 51 44 36 33 31 23 13 15 19 17 15
67 69 82 99 81 71 49 38 43 35 25 24 28 35 27 31 30 31 39 44 45 41 27 8 8 16 42 48 61 58 49 35 21 14 15 38 53 49 40 35 39 36 20 17 18 17 17 18 18
89 72 72 99 83 69 48 40 36 32 24 26 27 35 30 30 35 43 44 50 49 39 18 25 24 29 39 54 53 48 32 21 18 22 47 51 47 38 40 43 33 23 20 18 22 23 23 20 18
98 92 92 97 83 65 51 44 36 34 33 30 30 32 28 29 39 45 49 50 54 41 25 34 38 45 52 51 43 30 22 20 31 47 46 39 36 36 29 24 21 19 21 24 24 24 23 24 25
97 86 81 96 76 58 56 43 55 32 32 34 32 36 29 23 38 48 45 44 53 28 26 36 43 47 44 34 26 21 21 30 43 41 39 37 28 24 24 20 21 25 26 27 26 27 27 28 28
95 90 97 78 68 59 53 40 40 38 36 36 36 46 40 20 20 27 35 42 31 19 23 26 30 31 28 23 21 21 39 46 42 39 30 24 26 23 22 26 27 28 29 30 30 30 30 30 34
93 95 96 68 59 78 50 44 34 38 43 46 47 54 48 32 19 17 19 20 18 19 20 21 21 21 21 22 27 46 45 43 38 26 28 27 24 27 28 29 30 31 32 34 33 33 36 39 38
95 95 83 75 58 60 59 49 54 41 39 48 57 52 48 39 30 20 17 16 15 15 15 17 19 18 22 39 53 45 43 31 28 28 26 26 29 30 31 34 36 37 38 37 36 41 45 41 36
98 88 78 66 62 78 86 66 54 48 42 40 34 33 34 37 40 38 34 29 22 18 14 15 20 32 50 52 46 41 29 27 27 29 29 31 33 35 38 39 40 41 40 42 49 51 46 39 31
97 96 88 70 65 62 50 57 60 59 46 39 35 33 34 35 36 33 30 24 15 11 16 23 42 56 51 48 34 26 28 30 30 31 33 35 39 41 42 43 42 44 51 55 54 49 41 32 26

GFSSGP_500_rhum_018.txt.gz
RH
26 25 27 23 16 18 29 14 7 6 13 8 9 14 23 27 20 28 23 22 32 28 32 39 38 32 25 29 27 28 31 28 27 26 26 22 14 11 10 10 9 8 8 8 9 11 11 11 10
29 28 26 28 20 18 24 15 13 14 5 10 13 14 24 25 17 19 21 21 22 27 38 45 45 31 32 39 36 27 31 31 29 27 21 14 5 6 9 11 10 10 10 10 10 10 11 11 10
33 31 29 29 28 21 27 23 17 16 8 9 14 16 20 22 17 22 26 23 27 34 43 56 46 33 47 42 36 38 39 32 29 20 18 12 5 6 10 12 12 12 11 12 12 11 11 10 10
39 34 32 29 30 25 28 26 20 19 15 14 16 21 20 21 21 22 24 24 26 30 56 65 33 47 51 43 39 34 36 34 31 25 18 14 8 6 8 11 14 14 12 12 13 12 10 9 8
48 39 36 33 34 30 25 32 22 20 20 24 22 26 14 19 22 24 24 25 28 58 66 57 38 55 51 48 46 40 42 39 31 30 26 19 17 10 9 10 12 13 13 13 13 12 10 9 9
47 47 37 36 37 35 23 32 27 24 29 29 27 27 23 26 26 24 22 26 26 46 65 53 44 56 50 45 45 44 42 41 38 32 30 30 26 24 21 15 9 8 7 7 6 7 9 10 12
54 50 41 39 39 38 27 21 34 24 24 32 26 28 23 24 27 26 23 23 25 64 60 44 52 61 49 42 41 42 43 44 41 39 39 36 33 32 32 31 29 29 22 10 8 9 10 11 12
36 58 45 42 43 42 36 25 31 28 29 24 28 30 20 22 32 29 24 21 22 71 45 44 54 59 48 38 33 34 39 43 43 41 39 37 36 38 39 37 34 33 31 32 29 24 16 12 12
26 28 45 43 49 45 41 28 25 34 23 22 32 31 27 28 36 25 19 19 22 64 40 46 50 59 55 40 33 31 33 38 44 48 46 42 37 35 36 38 39 38 35 32 29 28 27 26 25
24 22 23 52 54 49 43 31 30 24 32 18 22 29 29 32 26 22 18 25 29 54 42 44 50 51 46 39 36 31 28 29 30 32 37 40 37 33 34 35 34 33 31 29 28 26 26 26 27
20 21 24 37 57 53 42 35 37 25 34 24 16 23 22 23 29 23 26 45 38 49 47 44 50 45 49 41 39 38 30 26 28 29 33 37 36 36 35 33 31 29 28 27 27 26 26 25 25
17 20 30 29 53 53 40 45 32 31 24 33 16 14 16 28 30 23 43 61 52 53 47 52 52 48 48 53 47 45 42 28 30 32 32 33 36 32 28 29 27 25 21 19 17 18 16 14 11
19 15 25 30 38 52 41 45 38 31 24 32 30 14 15 23 28 25 64 65 61 57 54 56 64 59 59 60 60 56 54 50 44 41 38 32 35 30 31 32 33 33 32 25 15 8 4 3 2
25 21 21 29 31 41 45 47 39 36 28 23 40 20 14 19 23 39 75 72 68 61 59 66 74 72 70 66 58 54 53 53 52 44 38 34 34 30 29 34 36 33 23 13 6 3 3 5 7
24 21 22 22 29 25 46 43 34 40 28 24 42 30 13 16 25 49 36 68 63 61 61 64 77 79 74 65 56 50 50 48 48 40 34 37 37 30 32 37 36 22 10 4 6 8 9 13 20
31 24 14 16 26 24 33 38 45 40 32 29 22 33 22 16 26 29 33 55 59 58 64 70 76 74 57 48 48 50 44 44 46 48 51 50 35 34 38 36 20 8 6 9 20 26 33 35 35
32 23 14 17 23 28 24 38 48 45 39 32 23 29 30 17 20 29 30 55 56 58 63 74 69 51 48 48 51 50 56 51 30 63 63 42 36 40 37 19 7 9 12 23 30 37 39 36 32
28 27 21 15 25 31 24 36 47 46 39 33 22 22 25 20 18 30 29 49 63 57 63 69 61 54 47 47 53 56 53 21 45 66 52 42 44 42 21 7 9 21 33 40 44 40 33 30 26
28 42 36 28 22 32 32 46 51 50 44 34 28 22 22 28 20 30 29 28 48 59 60 61 58 50 43 38 37 38 23 41 62 60 50 50 47 26 12 8 16 32 46 48 41 34 30 26 22
19 29 44 40 36 38 42 38 52 45 49 38 31 26 23 30 28 27 31 34 48 52 60 56 49 47 44 39 41 50 41 51 69 62 58 51 35 20 11 14 31 43 44 36 35 35 29 22 18
26 26 35 60 62 40 48 39 53 48 48 38 32 26 26 28 33 22 30 37 44 47 52 48 47 46 42 40 20 13 45 58 61 58 52 36 22 16 15 25 42 41 37 38 31 24 22 19 22
24 20 31 90 97 59 55 36 54 54 51 39 36 31 25 36 25 25 33 35 37 38 39 46 45 43 21 7 11 30 40 55 55 53 38 24 17 19 33 41 39 37 30 24 22 20 22 24 25
35 47 56 53 62 98 56 48 52 49 48 36 34 28 23 36 36 25 29 34 31 38 44 47 49 25 17 25 36 40 49 50 46 34 24 16 22 35 38 39 31 26 25 22 23 26 26 26 26
40 95 84 97 98 76 74 58 52 58 41 37 34 26 22 30 38 34 27 34 40 46 50 50 47 29 29 36 40 43 43 36 28 22 18 24 40 42 36 28 27 26 24 27 28 29 30 31 31
44 94 97 99 90 82 63 66 64 63 45 32 33 23 24 29 38 33 26 37 46 50 47 42 40 30 27 30 33 32 28 25 20 19 34 45 43 33 29 30 27 27 30 31 33 34 33 34 35
46 96 97 96 69 79 52 82 57 57 45 32 30 25 27 29 37 31 16 26 37 41 39 36 31 22 23 22 24 21 20 20 19 46 47 41 30 30 29 28 32 32 33 35 35 36 37 38 38
83 96 97 96 75 62 51 72 59 57 42 36 27 29 32 32 46 45 23 16 17 20 22 21 20 21 21 19 19 19 17 28 52 49 39 30 30 30 33 34 34 36 37 38 40 41 41 39 36
99 100 97 99 88 76 83 75 57 52 42 35 33 34 36 36 48 49 35 26 19 18 18 18 17 16 16 16 16 21 43 52 49 35 28 30 33 35 35 36 39 42 45 45 44 42 39 38 44
98 98 98 98 81 88 88 73 52 44 42 37 37 43 54 54 54 49 43 37 33 30 29 28 26 20 14 18 29 51 53 48 30 29 37 36 35 37 39 43 47 49 48 48 46 43 45 49 48
97 98 96 91 96 88 81 58 51 50 46 47 40 38 41 40 38 36 35 37 39 36 30 23 16 13 20 35 58 54 49 31 40 46 34 38 39 41 46 52 52 51 52 50 49 51 52 48 42

GFSSGP_500_rhum_021.txt.gz
RH
29 28 27 25 23 21 15 24 22 17 13 7 10 18 22 17 19 23 18 15 16 17 22 22 23 30 36 28 26 25 23 32 30 29 27 27 25 18 12 11 11 10 8 8 9 9 10 11 12
32 29 30 27 25 27 20 18 16 20 20 11 7 15 14 13 14 18 17 18 15 18 19 23 28 40 41 28 32 31 24 35 32 30 25 21 18 7 6 9 11 11 10 11 10 10 10 10 11
38 32 30 30 29 31 26 20 18 20 18 14 8 6 9 10 14 25 19 20 20 21 25 27 32 53 38 38 36 35 32 40 34 31 22 20 15 8 5 8 12 12 12 12 12 12 12 12 11
42 37 34 32 34 32 29 22 17 20 24 15 11 9 8 8 12 17 20 20 22 25 26 26 54 56 37 48 40 38 29 33 35 32 31 21 18 11 8 7 9 12 14 14 13 12 14 13 11
24 42 37 34 40 38 36 29 23 24 24 18 15 14 15 14 16 21 19 19 21 22 28 41 69 43 48 48 50 45 38 40 41 37 31 30 25 20 17 10 9 10 12 12 13 13 12 11 9
18 26 40 40 42 42 32 30 26 25 24 22 20 17 17 19 23 19 17 20 21 21 24 46 68 43 47 56 45 44 45 41 41 40 38 32 30 31 29 26 25 20 15 10 8 7 7 6 7
20 20 25 42 47 40 37 29 28 23 27 23 26 24 24 19 23 23 24 23 23 20 29 62 63 43 50 54 44 40 39 42 43 43 42 40 40 38 37 34 33 33 32 30 28 27 19 10 8
21 20 19 27 48 50 44 35 36 28 30 26 28 29 27 23 22 28 30 28 22 18 36 70 49 43 54 53 43 38 33 35 39 42 46 45 42 38 36 35 36 38 38 36 34 32 30 30 31
30 16 13 17 35 64 58 45 35 32 28 30 26 30 30 28 23 33 29 25 18 15 32 71 40 44 53 53 42 38 33 30 29 34 38 40 41 41 40 35 33 35 37 38 38 36 34 31 29
14 13 13 22 23 50 68 56 34 36 32 33 30 26 27 21 18 30 30 27 18 15 20 62 44 48 51 52 46 43 39 36 29 27 28 30 31 37 37 35 35 35 33 31 30 29 28 28 28
15 9 19 19 24 27 56 56 39 39 38 35 32 27 22 21 20 28 34 30 21 19 28 43 36 46 51 52 55 52 44 39 39 33 30 34 34 35 37 33 29 27 27 26 25 24 22 18 15
15 13 17 21 22 23 23 48 44 35 42 31 25 33 28 16 18 28 28 24 23 38 41 39 40 36 42 40 40 48 51 52 54 50 48 47 42 40 34 34 31 31 33 34 34 33 31 24 18
19 18 18 19 16 21 22 20 44 44 40 38 29 24 34 21 14 20 22 26 20 42 56 50 46 45 42 38 42 56 60 60 54 51 49 51 47 41 37 35 28 30 34 37 35 26 15 9 6
20 13 12 15 14 14 19 19 22 50 50 36 36 27 27 34 17 16 27 28 26 43 66 58 52 53 50 46 55 64 61 57 53 53 52 50 48 42 38 39 31 32 36 38 26 12 7 6 7
17 14 14 12 17 12 21 14 14 44 54 39 38 34 22 30 19 15 28 27 41 50 70 68 61 58 63 74 73 68 60 54 54 49 47 48 47 46 47 41 34 38 39 25 10 7 8 14 22
19 18 14 15 20 18 19 7 16 25 52 43 41 37 21 31 26 14 23 28 41 39 63 65 61 61 64 73 70 54 50 50 47 53 51 27 44 53 49 39 41 42 26 8 6 10 17 29 36
24 19 17 19 25 23 23 12 17 30 42 48 42 40 26 22 32 15 20 28 31 32 58 56 64 69 70 66 52 51 49 51 53 51 27 45 69 62 44 46 47 31 15 7 8 15 27 39 43
35 40 37 26 34 31 26 14 18 32 35 47 44 41 28 22 31 33 18 22 29 31 52 57 62 70 69 60 55 47 42 39 38 36 44 68 61 53 54 51 39 26 14 10 26 42 43 42 39
36 35 28 28 27 36 27 20 17 30 35 46 48 40 29 23 27 34 20 18 29 31 45 59 60 67 67 62 55 50 44 40 40 56 44 66 65 60 53 48 35 20 12 15 34 44 39 37 36
33 29 25 27 36 51 34 24 18 31 34 39 52 43 33 25 23 33 24 21 30 31 32 40 60 61 60 54 48 47 44 34 13 33 64 61 57 53 51 33 22 12 16 31 39 38 34 30 27
41 33 27 22 24 30 56 29 18 21 25 48 52 46 35 28 27 26 31 25 27 33 36 48 56 59 59 49 49 44 18 8 22 36 43 55 55 45 29 21 14 19 33 40 38 32 27 24 22
52 49 39 27 21 18 39 29 19 15 21 44 56 47 46 30 31 28 28 35 23 29 36 44 48 52 45 47 44 20 17 26 37 42 49 49 37 28 20 16 24 37 40 32 28 28 24 24 28
56 62 44 32 28 20 29 55 19 20 17 36 52 47 42 31 28 36 35 25 25 33 35 35 37 40 45 45 42 27 30 36 40 43 43 34 26 19 19 31 43 40 31 30 29 27 28 30 31
62 63 55 46 27 23 19 96 72 23 25 30 51 49 45 30 28 35 38 34 26 27 34 34 40 45 50 51 50 39 31 33 35 30 26 22 19 22 38 45 38 32 32 31 32 35 34 35 35
56 46 46 45 29 16 67 94 51 54 38 34 50 46 41 29 30 30 35 40 34 24 35 39 43 48 46 46 46 30 23 24 23 21 20 20 28 48 48 36 33 33 33 35 36 35 38 39 40
59 59 51 40 24 13 28 84 80 65 44 43 51 47 40 32 27 28 29 38 34 20 31 37 40 44 41 37 28 20 21 20 18 19 19 37 53 48 35 32 33 37 38 37 38 40 42 42 43
96 72 64 31 18 49 72 88 84 69 62 59 44 42 33 31 28 33 32 41 30 15 16 22 26 25 22 21 21 18 16 18 17 24 47 55 48 32 32 37 39 39 38 39 43 45 46 43 41
81 56 94 69 98 72 96 73 42 40 61 53 42 40 32 29 29 32 41 53 45 25 18 18 18 18 18 19 23 23 16 20 35 54 58 48 32 37 42 39 40 40 43 49 48 47 43 42 49
94 84 94 94 91 99 88 57 47 70 69 55 44 36 33 32 32 39 47 52 49 44 37 30 30 31 32 29 23 18 21 43 60 60 51 35 45 41 37 41 43 48 54 53 48 44 46 52 40
99 100 98 95 97 99 73 53 51 79 62 49 40 36 37 41 46 52 52 51 46 40 38 38 37 32 25 19 16 26 49 69 62 64 58 56 39 40 44 45 51 58 57 50 47 51 46 32 19

GFSSGP_500_rhum_024.txt.gz
RH
20 21 27 25 25 26 24 19 13 17 21 19 13 8 14 23 29 28 20 18 18 17 14 15 17 17 24 36 35 27 27 20 22 25 28 26 24 24 20 15 12 12 10 9 9 9 10 9 11
24 21 24 26 28 29 25 20 16 14 18 22 17 12 9 11 14 17 18 16 17 17 15 15 18 21 30 41 34 26 29 20 30 30 27 23 20 17 12 6 9 11 11 10 11 11 11 11 11
26 26 26 27 29 34 29 25 19 16 17 20 17 17 12 9 8 13 20 19 16 16 15 18 23 27 33 45 33 33 31 24 34 34 32 24 21 19 15 6 6 10 12 12 12 12 13 13 12
14 21 28 27 30 32 32 28 25 21 18 24 24 18 13 8 7 11 14 17 19 17 14 20 24 28 46 45 34 34 37 30 28 31 33 32 27 19 14 9 6 7 11 13 14 14 13 12 12
17 16 16 28 36 37 34 33 29 27 21 25 22 19 15 14 10 12 21 23 18 18 20 23 26 34 57 42 38 43 42 38 34 36 37 33 31 30 24 21 16 10 9 9 11 13 13 13 13
17 17 15 15 42 46 37 32 32 30 25 20 22 20 16 16 13 14 20 20 19 20 21 21 28 52 65 41 37 46 43 42 42 34 39 39 37 33 32 31 31 29 27 23 19 15 13 9 7
15 15 16 16 24 49 48 41 35 37 31 23 21 21 20 18 18 20 22 24 25 25 23 20 22 35 62 40 38 47 43 39 40 42 43 42 41 40 39 40 38 37 34 33 33 32 31 30 30
19 18 13 13 17 35 58 46 43 43 40 30 24 21 23 23 24 26 27 30 30 28 24 20 25 52 56 37 44 49 42 36 33 35 38 40 42 44 45 42 39 36 36 36 40 40 40 37 34
22 17 9 12 16 26 46 51 45 41 40 36 31 24 23 24 24 24 26 29 25 27 22 21 29 59 44 37 47 48 42 36 34 31 28 30 31 32 35 38 38 36 35 35 36 35 34 33 32
23 16 10 15 18 21 38 39 49 41 39 38 32 25 24 23 23 26 27 28 29 30 27 20 22 63 40 40 47 49 43 39 38 40 36 33 33 35 34 36 37 36 32 27 25 24 23 22 22
22 13 15 15 18 15 25 24 35 45 40 44 38 27 28 25 25 26 29 31 35 30 30 22 22 51 42 42 44 46 47 44 45 45 42 42 42 45 47 43 38 34 30 29 31 34 35 35 35
14 19 20 18 20 17 16 25 20 30 44 49 44 32 23 31 29 23 27 33 28 30 27 22 33 43 47 43 50 48 50 58 53 49 49 51 50 52 52 51 46 40 35 32 32 35 37 37 30
14 17 20 20 17 16 15 14 17 16 32 57 49 40 30 25 28 29 18 20 25 31 30 23 53 43 50 46 50 50 49 56 64 63 58 54 53 52 50 50 49 44 38 32 33 36 39 28 12
16 22 26 19 23 19 16 10 10 14 19 42 52 50 42 33 25 25 26 15 19 29 32 30 66 54 50 44 43 43 44 62 72 63 56 55 51 48 49 50 48 47 42 37 38 42 28 9 7
21 22 24 20 22 24 23 14 9 12 23 25 46 50 44 41 30 20 31 15 16 22 31 44 78 70 59 53 56 56 60 69 66 56 52 44 44 35 22 34 45 47 42 39 42 32 15 6 7
29 25 20 20 19 19 27 9 14 12 17 24 39 55 48 44 34 24 30 21 16 20 27 50 80 76 68 63 62 69 69 65 54 50 48 51 42 27 52 66 63 47 44 46 38 26 16 8 14
33 26 23 24 33 35 31 14 18 16 15 22 29 55 52 45 37 28 28 27 14 20 28 35 51 69 64 70 83 76 69 54 49 45 41 39 42 46 67 60 54 51 51 48 34 24 13 11 21
40 40 37 31 34 30 26 14 19 23 20 21 24 39 53 46 39 30 22 33 16 18 27 33 38 61 63 75 86 73 62 56 50 47 43 38 51 51 64 61 60 55 50 40 27 18 10 12 24
40 36 33 36 34 30 23 18 16 20 20 16 23 28 42 48 37 34 23 28 32 19 21 32 34 54 60 67 74 71 64 58 48 47 39 17 37 63 62 54 51 48 39 26 20 12 14 20 33
55 48 44 42 36 30 29 18 15 17 17 15 20 28 37 51 37 38 28 25 36 22 17 27 33 46 60 65 67 66 59 50 49 34 10 25 38 41 45 46 43 35 28 22 18 16 24 33 40
62 54 54 46 40 34 31 22 19 18 22 16 17 25 28 46 38 38 33 26 32 22 20 27 34 35 39 62 64 65 53 49 38 16 26 35 39 43 46 43 33 26 20 18 22 33 42 36 32
71 75 67 53 40 34 33 22 23 22 16 14 19 24 25 35 38 38 36 28 27 33 30 26 32 40 51 58 59 54 48 46 32 27 32 36 39 40 34 27 23 18 19 24 38 42 35 31 28
78 98 86 68 53 41 35 26 17 22 14 13 17 23 27 38 42 40 41 30 27 32 36 24 23 34 44 50 52 44 46 48 48 40 32 31 30 26 24 20 18 22 36 48 40 33 30 28 34
93 99 100 96 80 58 38 35 18 21 16 21 18 23 29 53 46 38 38 28 28 34 31 24 28 35 36 38 39 44 48 46 48 37 26 23 23 20 19 16 27 47 49 39 32 31 36 40 41
100 100 100 100 88 45 39 40 17 17 23 24 20 21 29 54 46 37 42 32 35 37 38 32 22 32 37 38 41 46 42 41 37 25 23 21 19 18 19 35 51 51 38 32 36 40 44 39 38
100 100 100 98 78 53 42 28 15 16 60 61 23 20 30 61 44 46 43 33 30 34 43 36 19 30 37 38 42 40 35 28 22 20 20 21 17 24 41 55 52 37 34 43 46 44 40 42 47
79 83 63 72 66 60 44 19 14 16 54 65 28 23 30 54 46 45 41 32 29 34 43 30 16 21 30 30 25 24 21 20 21 27 22 19 31 51 60 54 38 40 53 44 46 44 46 56 56
57 78 83 69 41 36 26 24 13 17 59 52 51 35 46 48 42 41 35 31 35 47 46 28 18 16 17 19 19 19 23 30 28 22 18 42 62 65 64 53 58 56 49 55 49 55 63 59 49
100 92 48 68 67 42 22 16 12 26 74 82 70 66 55 48 40 40 38 40 47 57 46 34 32 32 32 30 32 35 32 25 18 23 54 71 64 66 71 71 58 59 63 50 65 66 60 48 50
100 96 100 78 44 63 68 56 31 54 79 85 94 81 53 43 39 41 41 46 59 58 53 50 46 40 38 38 32 26 18 17 36 64 80 76 67 71 68 61 72 60 57 70 65 58 50 46 34

GFSSGP_500_rhum_027.txt.gz
RH
21 19 17 21 25 24 23 21 16 12 14 21 21 16 13 11 24 39 33 24 21 20 21 18 14 14 12 13 19 23 21 21 16 17 22 23 22 23 24 23 18 17 16 13 10 9 8 9 9
17 22 22 20 22 25 26 23 20 17 14 16 20 19 18 21 20 19 21 18 16 17 17 16 15 16 17 19 23 28 24 24 19 20 27 26 22 20 19 18 13 10 11 12 11 10 10 11 11
12 16 21 23 23 28 26 26 25 22 19 15 16 22 21 22 23 19 20 15 15 16 17 17 15 16 18 20 26 35 29 25 20 21 28 31 27 22 21 20 16 6 7 10 12 12 11 12 12
15 13 12 18 25 29 27 24 26 27 25 20 16 17 19 20 20 18 14 12 11 16 18 16 16 16 19 21 33 40 30 29 26 21 27 32 30 32 25 19 13 9 7 8 12 14 14 15 14
16 16 15 10 22 36 36 28 26 28 28 26 21 18 19 19 18 13 12 16 18 18 17 15 15 16 20 27 48 40 34 36 33 28 31 36 35 34 32 31 27 23 22 16 10 9 10 11 12
17 17 14 14 13 26 38 36 32 30 30 27 25 21 21 21 18 16 14 19 22 19 18 19 18 18 22 37 58 39 44 43 35 37 36 34 37 39 37 35 33 32 32 32 31 31 29 27 23
10 11 11 14 16 15 25 41 43 40 36 33 28 25 21 21 19 18 18 21 22 23 25 24 23 20 21 46 65 41 53 44 39 38 40 41 41 42 42 44 42 40 40 39 39 39 38 37 35
15 12 9 9 12 17 22 23 42 48 40 35 31 28 26 22 20 21 20 26 28 27 26 26 26 22 25 38 63 45 50 50 40 34 34 35 36 38 40 41 42 43 42 39 36 36 36 38 40
17 13 11 14 18 19 24 23 29 46 48 43 36 29 27 23 22 22 26 32 31 30 30 29 28 26 25 58 64 47 50 55 44 37 36 33 30 31 33 34 36 36 38 38 36 34 31 29 26
18 14 13 20 26 26 24 20 20 30 49 51 42 33 29 24 23 24 28 32 31 31 33 33 33 24 23 58 60 48 54 58 50 43 42 43 44 37 38 42 44 45 40 36 31 29 30 32 34
16 14 19 23 26 23 25 16 15 16 30 54 55 40 31 26 25 28 29 32 32 32 35 34 33 28 22 37 62 45 53 57 57 49 48 50 48 45 45 42 44 45 48 45 39 34 32 33 34
13 15 19 23 28 24 19 19 10 10 15 36 55 52 38 29 25 29 28 28 34 35 33 34 35 31 25 27 56 43 50 55 54 61 60 56 49 51 51 49 49 49 50 48 46 38 34 33 33
12 13 14 15 21 26 21 14 12 7 10 18 40 57 50 32 32 28 30 29 24 24 28 31 32 33 33 42 47 50 50 56 59 70 67 62 61 57 55 51 48 47 46 47 49 43 39 36 37
23 14 13 12 15 20 26 18 15 11 10 14 19 43 55 47 37 33 26 33 33 18 23 27 30 32 39 59 51 59 55 61 70 69 70 67 60 57 46 42 35 29 30 37 47 45 42 41 39
23 25 14 13 13 23 33 21 13 16 17 13 17 20 52 54 41 33 31 22 35 19 16 17 28 31 42 71 64 65 71 73 71 72 76 60 55 44 45 46 35 43 52 56 45 39 41 44 36
28 27 20 17 20 23 32 12 19 19 22 16 13 22 33 66 55 42 33 30 27 35 16 15 25 34 50 75 75 81 76 72 81 83 61 54 47 45 42 44 42 60 56 52 50 49 50 47 31
43 35 32 26 29 28 27 14 21 20 16 18 17 17 24 47 60 53 38 37 26 29 22 15 25 39 56 80 84 77 71 67 71 69 56 48 45 44 42 40 53 63 61 60 59 55 47 33 24
58 52 45 39 44 43 29 16 16 19 15 13 17 14 20 24 46 55 43 37 31 28 28 14 24 37 47 76 78 71 77 76 75 61 53 48 47 44 24 40 57 60 59 50 43 36 33 30 28
43 53 50 46 46 45 31 21 16 16 18 15 13 14 15 19 29 51 46 39 34 26 32 18 19 31 38 56 72 69 76 80 73 63 54 49 47 20 25 38 41 42 43 43 39 34 29 24 21
41 45 53 50 46 38 37 24 22 18 16 16 14 12 13 15 18 41 49 41 38 27 32 35 22 20 32 36 58 65 70 72 68 60 51 47 25 17 29 38 40 41 39 34 29 24 20 17 19
59 47 51 54 60 44 28 19 24 22 21 20 16 12 12 12 15 21 49 48 39 28 31 38 28 16 24 35 46 64 68 67 65 58 50 42 25 29 36 37 34 31 26 24 21 17 15 25 44
68 73 76 74 72 56 44 16 23 22 23 21 19 14 9 12 14 20 40 45 36 30 28 35 29 26 26 34 38 40 55 63 60 51 48 45 42 41 38 32 28 24 22 22 15 13 35 49 45
61 92 86 85 79 64 56 43 20 30 25 21 19 17 14 12 12 21 46 50 40 33 30 31 40 44 30 28 38 48 55 56 53 46 47 47 49 43 32 26 23 22 23 14 14 40 54 44 36
79 94 100 100 98 61 58 59 22 28 28 24 23 23 18 17 13 23 40 51 38 34 34 35 43 39 23 22 27 35 43 44 42 45 46 43 40 30 25 22 25 22 14 24 48 55 42 36 46
100 100 100 100 98 53 62 74 29 30 34 28 24 21 21 19 16 22 38 53 44 39 40 46 49 42 26 23 30 37 38 39 41 44 40 36 27 22 22 27 22 19 31 54 57 44 43 61 64
100 100 100 100 85 84 95 54 25 32 39 30 24 24 23 19 17 20 40 57 50 41 41 52 52 49 36 19 25 36 36 36 41 36 30 24 22 27 29 23 22 35 58 65 60 66 67 60 61
97 99 97 100 100 100 90 46 33 38 36 32 22 25 26 23 18 17 39 62 51 42 41 46 48 50 38 16 19 28 30 28 24 25 23 24 31 26 22 24 42 60 66 70 71 66 63 71 66
100 100 100 100 92 87 54 40 31 40 33 29 26 29 34 25 19 17 43 62 48 42 39 40 49 49 36 16 15 18 20 21 22 26 33 31 25 20 29 52 67 67 68 70 69 75 75 58 68
76 86 84 82 93 66 48 39 33 39 25 17 20 81 56 34 26 29 56 51 44 41 39 44 55 45 30 22 21 24 26 31 36 34 27 20 24 35 54 70 63 66 80 87 87 63 69 71 72
87 55 59 68 60 63 47 27 31 34 25 17 21 74 52 50 43 56 54 50 46 42 46 59 55 34 35 42 38 37 38 37 30 23 22 30 38 59 67 59 69 87 96 71 66 76 73 74 55

GFSSGP_500_rhum_030.txt.gz
RH
9 15 19 18 19 19 20 19 19 18 15 14 17 20 18 16 14 20 25 27 28 26 23 23 20 16 13 13 12 12 14 15 13 12 11 13 13 15 18 22 23 22 16 16 17 15 11 10 9
9 9 21 20 21 19 22 21 20 21 22 18 14 18 21 21 20 18 19 25 26 21 23 24 21 19 16 15 14 14 17 20 17 15 14 19 20 19 20 18 15 15 14 10 11 12 12 11 10
12 10 9 18 24 25 24 24 24 23 24 22 19 19 21 23 25 26 24 20 23 19 17 19 20 18 16 16 16 17 21 28 22 20 16 22 25 24 23 22 20 19 16 11 7 9 12 12 12
13 14 12 8 14 30 31 26 26 25 23 25 23 20 21 23 28 30 28 25 21 22 19 22 21 19 16 15 17 23 27 34 30 28 20 22 27 24 27 28 28 23 19 14 11 8 8 10 13
14 14 14 13 12 14 33 33 31 31 28 26 25 23 23 24 25 22 22 22 19 22 24 23 23 20 18 17 22 31 38 37 35 35 29 28 28 26 31 34 32 30 29 29 28 28 26 20 14
13 14 13 14 16 16 18 27 34 37 33 29 26 24 25 24 23 25 22 20 18 20 25 26 25 20 19 19 23 37 48 41 42 38 33 34 34 32 35 35 36 36 34 33 32 31 33 34 34
13 14 14 15 17 18 18 15 20 37 41 36 29 29 30 25 25 24 21 19 20 18 24 29 26 25 23 22 25 45 56 41 48 41 37 37 38 39 39 38 39 39 40 40 40 39 38 38 37
13 13 13 10 14 19 20 18 16 19 39 40 33 30 32 30 30 27 25 21 22 25 30 31 30 31 30 25 26 47 64 49 51 48 39 34 34 34 35 36 36 36 37 39 39 39 38 36 35
14 11 8 13 14 16 22 18 16 16 21 33 42 40 36 33 31 29 25 24 25 30 31 31 33 34 32 29 26 43 65 58 53 56 44 39 38 36 32 33 36 38 40 40 39 37 34 32 30
12 9 12 17 18 20 25 22 16 13 16 21 41 50 41 36 32 30 27 26 30 34 34 32 34 35 35 31 25 51 76 59 57 62 53 46 44 47 45 43 40 40 42 41 44 45 45 39 34
12 10 14 15 19 20 26 26 24 15 12 15 22 44 46 39 32 30 29 26 31 37 37 35 33 34 36 34 26 30 76 59 57 62 60 56 55 51 51 49 47 46 47 43 43 44 45 45 43
13 12 13 14 16 19 26 26 20 10 10 12 15 18 41 45 38 33 33 30 27 32 37 36 34 35 36 35 30 25 66 66 54 59 59 59 60 62 60 56 52 49 47 44 43 42 43 46 46
12 16 13 11 12 16 24 26 25 16 9 11 12 14 24 47 45 41 37 32 30 30 32 34 32 33 33 33 30 35 41 69 57 59 60 56 58 68 64 60 55 50 42 40 35 32 39 45 46
17 17 17 18 14 12 15 20 21 23 21 12 11 12 16 41 55 42 40 39 37 36 27 24 28 31 30 33 30 46 50 66 71 67 63 58 62 71 63 57 48 43 48 43 38 54 60 51 47
15 17 21 20 26 20 14 14 13 21 27 18 14 14 15 19 55 55 43 39 36 34 41 24 19 22 24 29 30 54 62 77 83 78 74 67 71 70 61 53 44 46 42 48 53 62 58 56 56
12 14 19 27 23 25 20 10 14 16 26 21 15 15 17 16 21 61 47 41 39 38 39 39 20 16 18 25 32 53 81 88 82 82 85 80 81 62 56 46 45 45 35 52 61 65 65 62 58
15 16 19 30 36 28 24 14 14 17 25 24 16 11 14 14 18 29 42 41 40 43 36 36 34 17 16 24 34 62 86 86 81 81 86 82 74 58 51 46 46 36 36 53 56 60 59 49 44
17 15 16 18 37 40 26 18 16 16 19 22 17 11 12 12 12 22 20 32 46 44 40 30 33 26 15 25 43 72 90 85 84 83 91 84 68 57 50 49 44 22 30 41 43 44 46 45 40
15 16 18 23 25 43 42 21 20 15 12 16 14 12 11 12 15 17 15 20 51 48 43 39 29 34 17 25 46 62 83 80 75 83 88 80 68 56 50 47 20 23 34 40 40 40 34 29 25
19 20 22 32 39 30 44 24 24 20 13 15 16 17 15 14 18 17 13 17 42 53 44 41 30 39 31 19 33 39 49 74 72 76 76 74 65 52 49 39 26 30 37 38 36 30 27 24 23
24 30 40 47 59 49 29 17 35 32 18 19 19 20 16 16 16 17 14 16 25 54 50 42 30 33 45 27 21 29 37 48 64 70 71 67 62 52 52 48 39 40 40 34 28 23 24 24 16
30 46 60 61 62 49 62 18 23 36 28 20 22 20 19 19 19 17 15 16 19 55 51 40 35 28 41 30 18 26 35 40 55 65 62 64 59 51 51 47 44 44 37 27 22 27 24 16 16
51 66 68 64 62 58 51 49 12 22 33 26 20 21 24 25 25 22 16 18 20 38 53 41 39 28 40 33 27 27 32 39 43 50 60 57 53 48 49 42 40 37 28 23 29 23 17 23 37
71 71 74 80 78 54 47 56 20 26 22 26 24 20 23 26 25 24 20 15 19 36 54 45 40 29 32 39 40 31 24 31 40 48 50 47 43 46 45 37 35 28 25 31 23 20 35 52 58
67 84 94 94 82 48 49 46 22 25 32 38 41 33 32 30 24 21 21 17 20 46 58 46 42 33 34 38 40 28 25 36 37 36 37 40 43 45 36 32 28 28 32 24 23 40 57 62 66
51 100 100 100 94 87 92 43 21 30 34 46 42 42 33 27 24 24 23 18 23 35 57 50 48 39 39 47 43 29 21 22 32 38 38 39 40 32 30 28 33 32 23 26 46 62 65 67 74
27 46 91 100 100 100 75 50 34 32 41 45 50 46 38 32 26 24 26 19 22 41 59 53 52 41 48 56 52 40 22 21 25 30 31 30 26 28 31 36 29 24 31 44 60 61 63 76 81
44 61 68 79 100 98 66 52 34 33 47 50 53 45 38 30 26 27 26 24 32 59 62 54 52 43 47 50 52 47 27 15 15 18 21 25 32 38 36 26 29 32 44 54 56 67 81 85 75
68 49 56 88 94 100 82 50 46 35 42 45 47 47 35 28 28 33 26 28 38 69 60 55 52 46 45 45 52 44 26 20 21 26 33 38 39 34 30 30 31 45 51 56 74 83 89 83 72
100 99 100 91 66 82 86 43 41 43 50 51 56 47 51 50 26 32 26 29 49 70 57 49 52 48 46 52 53 36 24 32 38 39 41 37 35 36 29 36 48 54 68 84 87 88 71 67 80

GFSSGP_500_rhum_033.txt.gz
RH
6 6 8 14 15 15 19 19 18 19 18 17 16 17 19 23 24 30 27 20 12 16 28 25 20 19 18 16 14 12 12 13 11 12 12 10 10 12 14 15 16 17 19 20 19 19 18 18 13
8 7 6 9 15 17 20 20 20 21 22 22 20 18 18 20 22 23 20 20 17 11 14 22 21 19 18 17 14 14 13 15 15 15 14 12 13 16 16 19 18 16 15 14 14 9 11 12 13
13 9 7 7 9 24 24 21 22 22 25 24 24 22 20 20 23 24 24 24 27 24 16 15 18 17 17 16 16 14 14 17 20 22 18 15 14 15 18 20 21 20 19 18 15 14 9 7 10
15 13 10 8 9 13 26 24 23 24 25 26 26 24 24 23 28 28 27 27 29 36 26 19 17 17 18 18 18 17 16 20 24 25 23 21 18 16 17 20 24 25 26 25 23 21 18 16 12
13 14 12 11 13 12 11 17 28 29 26 27 27 27 27 27 27 31 28 26 27 29 30 21 20 18 19 20 18 18 18 24 32 32 32 28 22 21 23 24 27 29 27 27 26 27 28 30 30
12 12 12 12 14 16 16 13 13 27 32 27 26 28 30 34 31 32 28 29 28 27 28 23 19 22 23 22 21 20 22 29 38 37 40 35 28 27 30 34 32 32 34 35 37 38 37 38 37
12 11 10 12 14 16 18 16 14 14 25 37 31 29 30 33 36 35 30 30 32 30 31 24 21 24 22 23 24 24 25 38 49 43 45 38 35 36 36 37 36 35 37 38 39 40 40 39 39
11 11 10 12 14 16 18 18 17 15 15 21 34 35 34 35 34 35 30 31 29 26 26 27 32 29 27 26 28 26 25 45 63 48 53 43 36 34 34 33 34 34 34 36 36 36 37 37 35
11 9 10 13 16 15 18 18 18 16 16 16 18 31 37 38 38 37 37 37 33 28 28 32 35 34 31 33 32 28 25 33 49 58 52 52 41 39 36 34 34 37 39 40 41 42 43 43 42
10 9 14 16 13 12 13 11 12 11 13 15 15 16 24 38 39 39 37 35 33 28 31 35 35 37 36 35 33 31 25 38 61 71 54 60 52 44 41 43 44 45 44 42 40 41 40 41 40
10 12 12 12 12 14 17 16 14 12 10 13 13 14 15 20 40 42 40 38 32 27 30 36 37 36 36 37 36 35 30 27 69 75 63 63 64 55 48 48 50 52 49 46 42 43 40 38 35
10 12 13 13 12 13 18 18 17 14 15 16 13 11 12 13 19 40 45 42 40 34 28 35 39 38 34 33 35 35 33 25 51 75 62 63 63 62 58 58 61 58 53 51 47 41 40 40 42
11 14 13 14 13 12 13 16 17 17 20 18 13 9 11 13 16 25 44 47 44 40 32 31 36 37 34 32 33 33 33 30 33 70 66 60 61 60 59 62 63 60 57 49 43 47 47 44 43
12 15 17 16 16 16 15 12 13 16 25 23 17 13 15 13 15 17 38 50 49 42 40 35 32 33 34 32 32 30 33 34 47 56 68 59 57 60 60 62 64 60 56 44 46 41 46 47 50
12 13 14 17 18 13 14 12 10 13 18 20 17 14 14 13 14 16 24 53 56 53 43 42 38 28 27 29 31 30 31 36 61 66 69 61 58 58 66 69 64 59 50 45 46 39 48 56 59
8 9 12 13 14 16 15 11 16 18 14 15 15 12 13 15 14 15 18 32 49 57 50 41 41 43 31 21 20 23 27 35 72 76 76 73 68 68 80 82 62 56 48 47 47 34 53 55 57
10 9 10 12 12 13 13 11 15 16 18 14 15 12 9 14 14 15 15 18 21 36 56 55 43 37 37 31 18 16 24 36 77 80 78 78 76 81 84 78 62 56 51 49 40 23 39 46 44
10 10 11 12 14 14 13 11 14 15 16 17 13 14 11 11 13 15 17 16 13 15 41 57 52 42 34 34 29 16 22 40 75 83 78 77 80 92 88 75 64 58 52 49 19 22 33 36 41
11 12 13 18 17 17 15 13 12 15 15 16 18 14 12 12 16 16 20 18 12 14 19 58 55 48 37 33 37 17 22 43 67 72 78 79 83 91 88 76 68 56 52 40 23 26 36 38 38
15 17 17 18 19 18 18 15 15 15 16 17 20 20 15 13 18 16 18 18 14 12 15 39 58 50 44 34 36 22 23 48 69 76 83 77 81 81 77 74 68 59 52 47 41 39 40 39 32
19 19 19 19 21 20 20 15 17 18 18 18 22 24 21 15 19 18 17 19 18 13 16 29 53 55 44 37 32 38 24 44 66 70 72 74 74 75 73 68 66 57 52 49 44 44 40 30 24
19 22 25 24 23 21 25 15 15 19 24 22 26 32 31 30 25 24 21 19 20 18 18 21 44 58 47 42 31 42 37 31 41 45 43 56 64 72 67 65 62 54 49 48 40 39 31 23 31
27 29 29 28 26 24 23 26 11 16 24 36 32 40 40 37 34 31 27 26 23 21 18 20 32 57 50 46 34 43 42 34 51 43 39 43 51 50 56 61 54 47 47 42 37 33 24 32 27
35 37 41 46 53 39 32 36 16 20 26 39 48 40 42 37 34 33 32 29 27 23 20 20 26 52 57 49 36 39 47 39 31 29 35 41 46 52 54 49 42 43 40 35 34 27 34 25 19
30 18 15 16 18 26 43 52 22 23 30 38 46 55 42 41 35 26 24 28 29 25 23 23 26 51 57 48 39 35 38 41 37 26 25 33 34 36 37 39 40 37 34 36 32 35 25 24 26
15 17 20 23 18 16 22 18 18 28 35 46 47 51 54 42 35 28 27 25 29 26 24 24 32 60 58 55 46 37 33 37 36 28 30 27 32 38 39 36 32 34 38 38 34 27 28 30 38
31 48 54 40 34 32 25 16 14 21 35 42 57 55 62 53 38 35 34 34 29 26 24 25 43 61 59 58 51 44 37 43 44 30 21 22 25 26 26 28 37 43 41 33 32 28 31 40 49
49 50 65 82 83 80 58 40 25 42 51 40 37 48 50 59 50 42 37 30 27 25 24 28 35 48 55 58 54 48 49 53 52 44 26 17 18 24 31 44 48 41 37 36 32 35 51 69 76
59 66 84 95 84 97 90 52 60 50 60 55 50 36 50 53 51 46 37 30 25 26 25 28 29 41 58 59 58 54 59 54 55 54 37 26 28 40 49 51 43 41 36 35 39 64 79 80 76
72 99 100 100 96 98 83 36 70 79 76 60 58 44 55 52 55 46 39 33 25 25 24 28 48 59 61 57 57 56 56 55 65 44 28 34 46 52 50 50 46 36 38 53 81 84 84 66 69

GFSSGP_500_rhum_036.txt.gz
RH
6 6 6 6 11 13 16 18 18 17 18 17 17 15 16 18 22 36 30 28 19 13 14 14 16 15 14 13 12 12 11 10 11 10 11 10 10 10 10 12 13 14 15 18 19 16 16 18 18
8 7 6 6 9 11 16 16 18 19 20 19 20 19 18 17 19 24 26 27 22 16 15 18 20 19 16 15 13 12 11 10 11 11 13 11 11 12 15 14 14 16 16 16 16 15 12 12 13
10 10 9 7 6 9 18 18 16 18 20 22 22 22 20 19 19 21 27 32 25 23 20 18 19 15 14 14 12 12 12 12 11 13 16 14 13 12 14 15 17 17 17 17 18 18 16 14 10
11 9 9 9 8 8 8 14 18 19 19 23 25 25 24 23 23 23 24 32 28 32 33 32 20 17 15 13 13 13 13 13 13 16 23 23 19 16 14 15 16 18 19 21 22 21 21 20 22
12 11 9 10 12 10 8 8 12 20 22 21 24 26 27 27 26 26 28 34 31 34 75 38 28 22 14 14 14 16 14 13 14 18 27 29 28 24 20 20 19 21 22 25 24 23 24 24 25
12 12 10 9 14 13 12 9 9 11 20 25 25 27 29 30 30 30 28 30 34 31 30 31 27 25 14 13 16 19 18 18 19 25 32 32 34 29 26 26 27 28 29 29 28 31 34 35 36
10 11 9 10 13 14 14 12 12 12 12 14 24 28 30 32 32 34 36 37 36 37 35 37 35 28 18 15 20 20 19 20 22 32 42 43 38 33 32 35 35 36 35 34 34 36 39 39 39
10 11 10 11 14 13 14 14 14 14 14 11 13 24 30 31 35 35 34 36 37 37 36 31 28 29 23 20 22 24 26 25 22 30 51 50 48 39 34 34 34 34 34 34 34 36 37 40 41
10 8 8 12 14 13 14 14 14 12 13 14 14 14 20 32 34 35 38 38 36 34 35 32 29 30 29 32 29 30 27 28 25 27 48 57 55 47 40 37 36 35 35 38 41 42 42 41 40
10 9 11 14 14 13 14 14 14 12 11 12 15 16 15 18 30 37 39 40 39 36 34 35 32 31 33 36 34 37 33 31 25 26 40 62 60 60 49 46 46 46 46 46 46 44 42 40 39
10 11 12 13 13 12 13 14 11 8 8 10 14 13 15 15 16 27 41 43 41 40 37 35 33 32 36 37 36 37 38 37 32 26 43 66 68 63 65 56 52 53 51 53 54 51 48 44 39
10 12 12 13 12 12 12 10 9 9 12 11 10 10 11 11 12 15 26 46 45 43 42 39 31 32 36 38 36 35 34 34 34 27 35 70 70 60 62 63 66 63 61 60 57 54 48 44 45
9 11 12 13 13 12 11 10 9 9 15 14 12 13 15 17 15 14 16 27 53 55 49 43 37 31 34 38 35 32 31 31 34 33 28 57 76 63 58 60 62 65 65 61 58 54 45 46 41
10 12 13 15 15 14 13 13 10 12 15 15 14 13 15 16 17 13 15 17 35 60 56 47 40 35 32 37 38 35 32 31 32 35 38 43 71 70 61 62 64 66 65 61 58 54 46 46 40
11 12 13 19 19 13 14 12 11 13 12 11 11 13 15 15 16 19 16 18 19 43 62 57 44 39 38 32 33 34 33 33 33 35 42 58 62 71 63 63 71 70 71 64 58 52 47 48 41
11 11 10 16 14 13 12 11 14 16 15 14 13 10 11 14 14 17 19 14 15 18 34 55 53 47 42 40 33 29 26 26 26 34 40 67 69 72 73 71 76 82 84 67 58 54 52 50 33
9 8 8 9 9 10 10 9 13 16 14 13 14 15 13 11 12 12 16 16 14 15 21 44 59 55 46 41 39 36 33 21 19 26 36 75 78 78 78 79 81 85 83 67 60 58 53 49 18
8 7 8 10 10 12 11 8 10 12 12 11 12 13 15 15 13 12 11 20 17 14 15 20 56 65 57 47 40 31 32 36 24 28 35 58 84 86 79 80 85 86 80 69 64 58 53 38 20
10 9 8 9 10 11 11 6 10 14 15 14 13 13 16 19 20 14 11 20 21 16 15 14 26 71 65 54 47 40 29 35 45 42 38 46 81 92 84 82 87 92 86 75 69 62 53 44 38
11 10 10 9 10 8 7 5 9 11 14 17 16 14 15 19 24 20 14 14 25 21 17 14 16 32 69 64 52 45 35 40 54 51 60 66 81 87 83 85 88 82 77 73 69 65 53 47 43
14 12 14 13 13 12 11 6 12 12 14 16 19 17 18 20 30 28 21 15 24 22 17 15 14 20 33 62 61 52 45 36 37 29 47 70 75 84 87 84 83 78 75 71 67 63 52 48 46
16 17 16 16 15 15 15 12 12 12 12 13 20 24 21 24 29 34 26 18 21 20 18 18 15 17 22 36 62 58 49 40 44 45 37 56 78 75 83 88 76 70 72 63 63 58 47 46 43
18 17 20 23 24 23 20 22 10 12 14 18 21 24 32 30 28 39 34 22 22 21 17 20 18 17 18 23 60 61 50 43 35 55 70 65 60 53 46 50 56 60 52 56 57 47 41 38 38
30 28 28 28 30 25 23 24 10 18 19 21 23 25 42 39 36 31 41 29 25 22 20 18 20 18 17 20 37 65 56 48 42 55 65 53 59 47 47 45 45 46 50 48 41 41 36 33 30
29 34 31 26 20 19 18 19 14 15 16 19 28 33 34 51 43 32 43 38 32 26 23 22 21 20 18 20 26 64 64 50 61 62 63 56 35 31 31 36 37 38 37 40 38 33 33 33 38
36 25 20 19 17 23 26 17 21 24 21 20 14 29 48 48 57 45 38 44 36 32 28 29 27 22 19 21 24 59 63 52 41 48 60 48 35 30 33 46 40 36 35 31 33 38 39 39 34
20 19 22 26 35 36 31 24 21 37 35 44 41 27 36 61 57 57 39 44 40 32 29 32 29 25 20 20 23 56 64 57 53 50 58 54 41 50 36 23 23 24 28 36 47 46 39 38 35
18 23 39 63 54 51 39 34 35 57 58 52 60 74 37 48 61 53 53 39 43 34 27 30 29 25 21 21 25 55 66 59 53 61 73 74 58 43 43 36 28 30 42 53 50 43 44 36 35
34 51 74 88 98 98 76 54 71 94 58 77 53 49 54 32 54 54 49 43 38 34 30 31 27 24 21 21 25 53 68 63 61 70 84 79 76 72 50 34 34 50 56 51 52 46 37 39 71
58 82 98 100 100 96 97 44 100 100 78 69 52 48 58 38 46 53 52 49 39 39 35 31 26 23 22 25 31 57 72 68 64 73 77 75 90 69 40 40 56 59 55 60 46 37 56 89 85

GFSSGP_500_rhum_039.txt.gz
RH
5 5 6 7 10 10 14 14 16 17 17 16 15 15 14 13 24 49 27 26 22 14 11 8 7 7 7 8 10 10 9 9 8 8 8 8 9 10 10 10 10 11 12 13 13 14 16 16 16
8 7 7 6 6 7 12 15 15 17 18 19 19 18 17 18 14 17 19 24 26 24 20 16 12 11 12 12 10 10 11 10 9 8 9 9 11 10 11 12 13 13 15 16 16 15 15 15 13
10 9 8 7 6 6 10 10 12 14 18 21 21 21 19 18 17 16 19 21 24 24 20 18 18 18 17 14 11 10 9 10 10 10 9 9 12 12 12 14 16 17 17 17 16 16 16 17 16
11 10 8 7 8 8 7 6 9 13 15 19 21 24 22 21 19 19 20 24 25 24 23 22 22 20 16 14 12 11 11 11 10 10 10 9 13 13 14 14 16 19 20 20 20 18 18 19 21
13 12 10 8 10 11 8 7 6 7 11 19 21 26 24 23 23 22 22 20 23 22 24 24 25 28 22 18 12 10 11 11 11 10 11 12 17 19 21 18 17 18 18 19 20 20 21 23 24
13 12 11 9 12 12 10 9 8 7 7 13 24 26 27 25 24 24 25 24 24 23 23 24 23 21 22 20 14 10 9 11 12 13 14 18 26 27 29 27 23 22 22 21 21 22 23 29 31
14 12 11 12 12 11 11 11 10 10 8 9 13 20 27 23 26 27 28 28 26 24 25 26 26 27 22 22 17 13 13 14 14 14 16 22 30 36 36 34 32 34 35 33 31 32 34 36 36
14 12 11 11 12 12 11 11 11 11 12 11 10 13 22 13 25 28 32 33 32 29 27 26 26 28 26 21 21 17 18 18 20 21 20 26 37 44 44 37 35 36 37 37 36 36 36 37 38
13 12 11 11 12 14 12 10 13 11 12 11 12 14 10 11 27 30 33 35 36 33 30 28 27 29 27 23 21 20 22 24 26 27 26 24 46 54 53 44 38 35 35 37 40 41 42 43 43
12 12 11 12 12 13 12 11 13 10 11 11 12 13 14 14 14 19 33 38 38 38 37 34 31 30 29 26 24 24 25 29 30 31 27 27 35 52 60 60 48 46 43 45 47 48 46 45 42
12 10 13 12 12 13 11 8 12 10 10 10 12 13 12 14 15 15 16 24 35 40 40 39 36 34 32 28 27 26 30 32 34 33 32 26 32 50 68 65 64 55 49 50 50 52 52 49 46
10 11 11 12 13 12 12 9 9 8 11 12 10 7 7 15 14 15 16 15 16 28 38 42 40 39 37 33 29 27 30 33 34 34 33 31 26 45 72 71 67 68 64 61 56 56 55 52 50
11 10 9 12 13 14 12 11 11 9 12 11 9 10 10 10 10 13 16 16 15 15 26 43 47 44 41 38 30 29 32 36 33 32 34 33 31 29 58 78 68 66 64 68 64 62 58 54 55
10 9 10 11 12 12 10 11 9 9 12 10 9 9 11 12 13 14 17 18 17 17 17 24 49 52 45 40 36 30 32 37 36 33 34 35 35 37 35 69 72 64 64 66 66 66 62 58 56
9 13 12 10 12 12 12 10 9 12 12 11 10 10 10 11 13 14 16 18 18 17 16 14 22 48 54 47 40 34 30 32 36 35 36 37 36 37 48 55 70 67 71 71 70 69 68 60 57
15 14 12 11 14 12 11 11 12 12 13 12 12 12 12 11 11 12 16 20 23 20 14 13 13 20 43 52 47 38 34 31 32 35 31 30 35 39 51 68 71 74 76 73 80 83 81 64 59
18 18 14 12 14 11 10 10 14 12 15 12 12 13 13 12 12 13 11 16 18 20 18 13 12 14 26 57 56 48 41 36 37 34 31 21 25 39 42 74 80 78 81 84 91 91 82 66 63
21 18 17 14 13 10 8 7 9 10 11 10 10 12 12 13 13 15 16 13 13 16 20 17 12 14 15 36 58 57 50 40 42 43 43 32 19 26 36 60 91 92 82 82 92 95 81 71 69
19 18 15 10 9 8 8 6 6 8 9 11 11 12 13 13 14 14 14 16 15 14 16 20 17 14 15 18 46 59 59 50 43 37 39 55 43 33 35 45 84 100 87 87 90 94 91 79 72
13 12 11 12 12 10 11 7 7 9 9 9 11 11 14 16 15 14 14 17 18 16 14 23 22 17 16 16 28 54 44 55 50 48 58 68 86 73 55 68 74 100 97 93 92 89 80 75 69
13 12 12 12 12 11 10 5 8 5 5 6 8 11 14 15 16 17 16 15 17 18 16 18 26 19 19 17 16 21 37 64 56 48 45 52 65 76 67 82 92 99 98 98 94 90 80 74 66
13 13 14 13 11 10 8 5 5 7 6 8 11 14 14 14 14 15 18 17 16 18 18 16 22 23 21 19 16 17 26 50 62 56 50 62 70 70 61 68 87 95 95 98 94 80 67 66 56
16 15 16 16 16 15 14 16 5 12 13 15 14 14 15 16 16 14 14 18 18 20 19 19 16 25 22 17 15 17 17 20 58 66 57 53 50 76 77 66 71 79 62 54 54 56 52 48 50
18 20 26 27 24 17 17 21 10 12 14 14 13 13 12 15 19 17 18 17 19 21 22 20 18 21 19 16 17 16 14 19 43 66 62 59 66 66 80 78 72 71 59 50 46 44 44 40 40
30 28 24 22 20 15 21 18 9 14 16 13 22 18 16 13 15 20 21 22 22 25 25 22 22 20 18 18 17 18 16 20 24 60 67 64 85 80 78 78 62 45 38 32 37 43 44 39 33
23 23 36 26 24 19 19 13 11 16 21 20 32 30 21 17 20 17 22 24 27 34 28 27 25 25 23 21 22 18 19 19 22 48 76 67 64 58 66 66 56 39 39 52 44 29 28 32 36
32 29 26 24 20 17 15 16 22 28 30 47 51 41 32 27 28 15 16 29 36 38 34 34 33 29 27 25 23 20 21 20 28 43 71 64 55 61 67 72 55 51 54 28 36 35 36 44 54
35 27 22 21 26 29 28 34 59 53 61 64 82 82 67 57 43 22 18 24 41 48 40 45 39 34 31 29 26 24 21 22 33 47 71 65 70 73 79 86 81 70 74 59 43 41 52 56 52
24 19 24 32 46 74 60 35 78 96 96 96 96 100 70 44 44 24 24 34 50 51 46 50 43 38 35 32 30 27 23 26 30 58 73 72 78 87 93 94 89 94 80 49 45 59 60 59 58
19 24 40 60 93 96 74 38 88 100 94 83 96 99 78 46 45 35 33 74 64 56 50 52 48 35 32 31 31 29 26 23 31 61 79 77 78 97 98 87 80 98 66 48 65 65 71 65 43

GFSSGP_500_rhum_042.txt.gz
RH
12 9 9 12 11 10 11 14 12 13 16 15 12 14 15 18 15 21 22 16 23 20 17 11 7 5 5 5 5 7 9 10 10 8 8 7 6 6 6 7 8 9 10 11 11 14 13 17 16
6 5 5 6 5 5 8 14 11 14 14 16 18 18 16 18 14 14 17 14 19 22 21 18 14 10 7 6 6 6 6 6 6 7 7 7 7 7 7 7 9 10 11 13 13 14 16 17 15
6 7 6 6 5 5 7 15 9 10 11 16 19 19 18 16 11 14 17 15 14 17 18 19 20 18 12 10 9 8 7 7 7 8 8 8 8 8 8 10 11 12 12 14 15 16 16 16 16
9 9 8 6 6 8 7 11 6 6 13 16 18 20 20 16 17 19 18 17 16 16 17 16 18 17 17 15 12 10 7 6 7 7 8 8 8 9 11 12 13 14 16 17 18 18 18 18 18
10 10 9 7 8 10 9 11 6 7 8 10 20 22 19 21 20 20 19 18 18 17 17 16 16 17 18 20 18 14 10 8 8 8 9 9 9 10 14 17 16 16 17 19 20 22 22 21 20
12 12 9 8 12 13 13 10 9 8 8 7 10 25 15 18 22 24 22 21 19 19 19 18 18 16 16 16 19 19 16 10 8 8 9 9 9 11 15 21 24 23 21 22 23 24 23 24 25
13 13 11 11 11 12 14 15 9 11 9 9 8 12 14 9 22 22 23 24 24 21 21 17 17 18 17 16 15 16 19 14 10 9 8 10 11 13 16 27 33 32 31 30 33 32 32 32 32
11 12 11 11 11 11 14 14 10 10 11 12 10 11 12 6 12 21 25 28 26 25 24 24 21 19 18 18 18 19 17 16 13 14 14 13 14 16 20 34 39 37 35 38 38 38 36 36 36
13 8 8 12 13 13 13 14 9 9 11 12 10 14 12 9 10 15 21 27 28 29 26 27 25 24 24 21 19 18 18 18 16 16 19 22 21 20 24 34 46 45 38 36 36 36 36 38 42
12 10 8 12 13 14 12 12 11 9 12 10 10 12 11 12 13 14 13 15 24 31 32 29 28 29 27 28 26 24 21 19 20 20 22 24 24 22 22 32 47 55 47 42 41 41 43 47 45
11 8 10 13 14 13 10 10 12 11 12 12 11 11 10 12 10 12 15 14 12 19 26 33 29 33 28 30 29 28 26 22 22 24 26 27 27 27 26 27 44 65 62 52 51 50 50 49 49
6 6 9 14 13 11 9 11 9 9 10 11 9 9 8 8 10 11 13 15 15 14 14 16 21 27 30 34 34 31 29 26 23 25 30 30 31 31 31 27 42 66 67 69 67 60 58 58 57
5 5 11 14 13 11 12 10 11 8 9 11 10 9 9 9 10 8 8 10 11 11 12 12 12 14 21 29 38 35 33 30 26 26 33 34 33 33 33 33 31 55 75 72 69 70 69 68 63
5 5 11 14 13 12 10 10 10 9 12 11 9 9 10 8 9 9 8 9 12 13 10 13 12 12 13 19 28 37 39 37 31 29 31 36 35 35 34 34 36 38 60 77 72 69 68 65 65
6 10 16 14 14 11 10 9 8 10 11 10 9 9 8 8 8 9 10 9 12 12 12 12 9 8 10 11 13 28 37 42 43 39 30 32 36 37 37 37 36 36 50 67 77 70 70 69 69
14 13 15 14 12 11 10 8 11 9 10 9 9 9 10 10 11 10 11 12 13 14 16 12 12 11 10 11 11 15 29 36 48 42 34 35 36 39 33 33 33 36 42 62 73 76 70 75 77
17 15 15 14 12 11 10 8 12 10 10 10 9 9 10 10 10 12 12 12 12 12 17 17 13 14 15 10 10 12 13 20 46 48 44 43 43 38 33 23 25 34 33 58 79 82 86 89 92
24 18 16 14 11 14 12 9 10 10 10 12 11 11 10 9 11 12 12 13 15 14 12 15 15 14 16 14 11 11 12 11 33 51 50 45 56 52 47 42 24 25 31 39 78 89 89 86 89
19 17 20 22 15 13 17 11 10 11 9 12 11 9 10 10 14 13 12 12 13 13 13 13 13 16 16 13 14 12 14 12 16 43 55 54 56 63 51 55 58 42 34 39 54 94 97 88 89
27 29 29 30 26 17 18 13 11 9 7 7 8 9 10 10 11 14 14 14 14 14 14 13 14 14 14 17 15 15 12 12 12 23 46 59 70 68 73 70 83 96 57 62 68 78 98 94 92
28 26 23 20 18 15 12 10 9 7 7 8 9 10 10 11 10 9 9 8 9 12 14 14 14 16 15 15 20 16 13 15 14 16 25 46 65 77 63 65 75 82 86 83 91 95 97 98 96
18 17 16 15 14 12 11 8 8 8 8 8 9 10 8 7 6 5 6 6 8 10 14 16 16 15 17 15 18 21 16 16 21 22 23 36 53 74 76 61 78 92 88 72 81 92 99 91 83
16 15 15 14 13 11 11 10 6 7 6 6 8 9 9 12 12 12 11 11 11 12 12 14 18 16 18 17 18 23 22 23 28 26 26 28 44 61 77 72 64 69 82 93 91 93 75 70 57
18 17 18 15 13 9 10 13 5 7 9 13 13 12 12 12 12 12 12 12 14 14 14 14 15 18 18 18 20 22 27 22 22 18 20 24 29 55 79 83 74 82 84 85 85 78 64 49 38
18 19 20 20 16 13 16 12 9 12 13 15 14 15 15 14 12 12 13 11 12 13 18 18 16 18 22 20 25 21 26 23 18 20 20 22 27 47 77 87 82 98 95 80 77 64 43 45 61
25 27 31 20 16 14 16 12 12 12 12 12 13 18 23 26 23 18 16 16 15 12 14 26 22 18 25 27 34 28 18 25 20 23 22 24 27 35 60 81 76 74 72 72 70 56 57 50 50
31 28 26 23 23 17 16 15 14 25 23 33 42 40 38 57 66 52 41 34 21 16 10 19 28 25 33 36 40 28 21 23 22 25 24 24 31 40 71 78 71 65 79 80 88 80 82 85 62
25 25 25 26 24 20 14 14 18 41 64 60 55 47 46 51 52 60 62 50 44 30 19 12 33 35 40 48 40 28 27 26 24 27 27 26 31 46 72 75 76 77 88 98 98 98 100 88 57
23 26 31 26 19 29 20 23 58 87 94 96 100 83 72 66 44 46 60 58 55 47 30 11 38 52 50 49 38 35 37 33 29 30 31 29 43 52 74 79 78 87 92 98 98 95 100 84 52
27 34 21 22 48 38 54 27 76 41 37 43 57 53 86 74 64 36 48 53 45 31 18 16 45 66 56 52 52 44 41 36 35 33 38 51 48 51 68 82 87 91 100 90 87 91 98 67 69

GFSSGP_500_rhum_045.txt.gz
RH
14 12 11 10 11 9 10 13 12 11 13 12 11 12 13 15 18 24 18 15 18 22 19 17 13 8 5 4 4 4 5 5 6 8 9 9 8 7 6 6 5 5 6 8 9 9 11 13 14
14 12 12 10 10 9 13 16 13 11 14 11 16 16 15 14 13 13 15 15 14 19 20 19 17 15 10 7 5 5 5 5 5 6 6 6 7 7 7 6 6 6 7 7 9 11 13 14 14
15 12 11 10 6 4 10 13 12 9 10 15 15 16 14 10 12 13 15 16 14 14 14 16 19 20 18 16 10 7 6 6 6 6 6 6 7 7 7 7 6 7 8 9 11 13 14 14 14
16 13 10 7 4 5 6 8 7 6 4 11 12 15 14 13 14 17 15 16 15 14 14 14 13 16 20 18 15 12 10 8 7 6 6 6 7 8 8 8 7 7 9 10 12 15 17 17 17
16 11 7 4 6 8 7 8 6 4 4 12 11 9 10 11 15 14 14 15 17 17 16 15 14 13 14 17 18 18 17 13 9 7 6 6 7 8 8 9 9 11 12 14 14 16 17 18 18
9 7 6 6 8 9 9 10 8 7 8 7 12 10 8 8 11 13 14 15 18 19 17 16 16 15 14 14 13 16 18 19 18 14 9 7 6 7 8 8 10 14 17 20 19 18 18 20 21
8 9 7 9 10 9 11 13 12 8 10 9 8 8 5 6 9 10 8 13 18 20 19 18 17 17 16 16 15 15 15 14 14 17 13 8 8 8 8 9 10 15 20 25 26 26 27 29 31
13 10 10 9 11 12 15 15 13 9 10 10 8 8 7 6 7 10 9 11 17 18 18 18 18 17 17 18 19 18 16 16 17 16 15 13 13 12 12 13 14 15 27 29 29 32 36 36 37
15 10 10 12 13 13 15 13 12 9 9 12 11 10 9 8 8 9 10 8 13 18 19 19 19 19 19 20 18 18 19 19 18 18 18 17 16 16 17 17 17 20 30 35 37 35 36 37 37
14 11 10 12 15 14 14 12 10 9 9 13 12 11 11 10 9 12 13 9 8 10 11 15 18 19 19 20 19 19 19 19 20 20 19 20 21 20 22 22 21 22 35 52 50 43 42 43 43
14 11 12 13 14 12 11 12 10 9 9 9 15 12 11 11 10 8 8 10 9 9 11 10 11 15 21 23 23 24 23 24 22 22 21 22 24 25 25 26 28 27 29 45 65 56 52 55 54
13 13 13 14 13 9 9 11 10 10 10 8 13 12 7 9 10 8 10 11 10 9 9 10 12 11 13 19 22 23 26 27 28 26 24 23 26 30 30 31 31 31 29 37 56 66 70 63 62
13 12 12 12 10 7 8 12 11 11 11 11 11 12 9 7 9 11 12 12 7 6 7 7 9 10 9 11 12 16 19 24 32 34 31 27 26 29 33 33 31 32 32 31 35 56 70 71 71
11 11 10 9 7 5 8 12 10 9 9 11 10 9 9 7 9 11 13 11 7 7 7 7 6 6 7 9 9 10 11 14 28 40 39 34 32 29 34 37 35 34 34 32 33 36 54 70 71
8 8 8 7 7 6 12 11 8 10 9 8 9 9 7 7 8 9 10 8 8 7 6 7 8 7 6 6 7 8 8 9 17 27 40 42 41 40 32 34 37 35 35 32 30 33 43 54 67
8 7 7 15 9 10 10 8 11 11 8 7 8 8 8 7 8 9 8 8 8 10 9 9 9 10 9 9 9 11 8 12 11 14 31 46 49 43 38 38 41 37 32 27 25 29 36 53 61
9 8 10 13 14 10 9 8 10 10 7 7 8 8 8 8 8 9 10 10 11 11 12 10 11 12 14 13 11 12 12 14 8 12 17 30 52 52 50 48 46 43 38 29 21 23 27 41 63
16 12 10 9 11 9 7 7 10 9 7 8 9 9 8 8 10 11 12 12 13 13 13 14 10 10 12 18 15 12 14 13 12 11 14 16 40 54 55 49 50 57 53 49 48 33 28 33 44
13 11 11 15 14 10 10 9 10 10 8 8 9 10 10 10 11 10 10 11 12 13 13 12 13 12 12 13 22 16 13 12 11 11 10 20 31 45 59 65 63 65 58 76 81 88 44 44 59
12 13 18 19 14 6 10 9 10 10 9 10 12 12 12 12 12 12 10 10 10 11 11 13 13 13 13 13 14 23 26 32 42 24 23 18 25 31 33 64 73 77 71 59 77 89 91 82 91
24 18 21 19 18 16 9 7 12 13 14 14 15 13 11 11 12 12 11 10 11 11 12 13 14 13 12 12 13 15 24 34 46 50 33 30 24 20 48 46 68 81 80 65 75 92 88 82 79
27 26 26 26 24 19 15 8 13 15 14 13 11 8 8 9 10 11 11 11 12 11 11 10 10 10 10 11 13 14 13 15 17 33 23 19 30 45 61 64 55 67 75 78 70 66 79 96 95
27 25 24 20 17 15 14 10 8 11 11 10 9 9 9 9 9 8 7 7 7 6 6 9 12 13 13 12 13 14 16 16 18 32 48 52 54 54 62 50 51 66 67 78 84 82 88 95 95
21 20 18 16 14 12 12 11 8 9 9 8 7 7 8 9 8 10 12 12 12 12 12 11 12 16 16 15 13 13 14 21 22 29 40 55 53 53 50 49 54 53 70 78 86 89 98 96 92
18 19 18 15 13 12 10 9 8 11 12 11 10 12 12 12 12 11 11 11 12 11 11 11 11 12 16 16 12 13 13 19 28 32 41 55 50 46 41 46 36 41 58 80 91 88 85 84 80
19 21 19 15 13 12 12 9 10 13 14 15 15 15 14 15 16 16 13 16 14 17 16 14 12 10 12 16 13 17 16 20 35 41 44 47 55 50 48 38 35 38 49 85 91 77 80 86 89
30 25 24 23 20 15 16 14 14 14 18 23 19 19 27 30 41 43 39 39 34 22 30 25 21 16 10 12 17 16 22 32 50 53 53 52 53 43 37 32 36 38 59 84 82 79 83 90 91
30 32 27 23 20 16 13 11 13 48 48 36 33 28 25 29 32 30 26 33 38 47 69 58 38 28 15 8 15 29 31 43 53 59 56 49 36 29 31 34 41 49 60 76 77 80 95 99 100
36 28 21 18 19 19 15 14 45 61 56 32 23 24 33 38 44 42 37 36 35 30 28 45 63 41 21 10 18 49 47 53 62 62 48 37 33 31 36 37 38 62 66 69 76 87 90 100 95
23 16 14 24 21 19 29 18 70 65 43 26 28 41 39 53 92 75 61 42 42 37 30 33 60 54 29 15 13 50 57 69 69 57 46 38 32 36 39 39 51 67 65 64 93 93 87 96 98

GFSSGP_500_rhum_048.txt.gz
RH
14 12 11 10 10 9 10 10 10 12 12 12 13 12 15 18 24 22 15 16 18 22 20 19 16 13 11 7 5 4 4 4 4 5 5 5 6 7 7 7 6 6 6 5 5 6 7 8 9
16 13 12 11 10 9 11 10 10 8 10 11 13 12 12 14 17 15 14 15 15 14 15 16 18 18 17 15 10 7 5 5 5 5 5 6 6 6 6 6 7 7 6 7 7 8 9 10 11
17 14 13 11 9 9 13 11 9 9 12 9 11 9 9 11 12 14 14 14 13 14 14 13 14 16 19 19 16 15 12 9 6 6 6 6 6 6 6 7 7 7 7 7 8 10 11 12 13
17 16 13 11 10 12 12 9 7 7 8 10 8 8 8 9 14 16 16 16 14 13 13 14 13 12 14 17 19 19 17 14 11 9 8 8 6 6 6 6 7 7 8 8 8 10 11 13 15
18 16 13 10 12 13 8 6 4 4 5 6 9 7 7 8 8 12 15 16 16 16 16 15 14 13 13 13 13 15 19 18 18 17 13 10 8 6 6 8 8 8 8 8 9 11 12 13 14
19 16 12 10 14 9 7 6 4 4 4 6 8 5 5 5 5 8 14 15 14 14 16 17 17 16 14 13 13 13 15 15 15 16 18 17 16 10 8 6 7 7 8 9 11 13 16 16 17
20 18 15 16 12 7 9 8 6 6 5 5 6 5 5 5 4 6 8 12 11 14 15 17 18 18 18 17 16 16 15 15 16 17 17 16 16 14 11 9 9 8 9 11 15 23 27 25 24
18 18 16 14 9 11 12 8 9 6 6 6 6 5 4 5 4 4 6 8 11 12 20 15 15 16 18 17 17 17 17 16 16 17 17 17 17 16 14 13 12 13 13 16 20 28 32 34 35
13 8 8 9 10 14 16 12 12 9 7 8 6 6 6 6 5 4 5 6 7 9 16 17 15 14 15 16 16 15 14 16 15 15 17 17 17 18 18 18 17 19 18 21 28 35 39 37 37
12 6 7 10 14 16 17 13 13 9 8 8 9 10 8 8 6 5 6 6 6 7 7 8 10 11 12 14 17 18 16 14 15 16 18 20 19 18 19 21 24 25 25 24 27 39 48 45 42
12 7 12 14 17 16 15 13 12 10 9 9 8 10 10 7 8 7 7 7 8 8 8 9 9 9 8 10 13 15 16 17 16 16 18 20 21 23 22 22 24 28 29 31 30 30 40 57 53
13 13 14 16 17 14 12 12 11 9 9 10 10 10 10 9 8 9 8 8 10 10 11 11 10 11 11 12 12 12 13 14 17 17 20 25 24 27 27 26 28 30 31 31 30 31 32 40 60
15 14 15 16 17 14 11 10 9 9 11 12 12 10 8 7 8 9 9 8 9 11 11 9 8 12 14 14 12 11 10 11 12 13 17 23 28 26 31 29 29 34 34 33 32 31 30 31 35
16 17 15 15 15 13 13 12 11 8 10 12 13 9 6 5 7 7 8 10 9 9 8 7 7 8 11 12 10 10 9 10 11 11 11 17 28 33 31 37 34 34 38 39 37 35 33 32 32
17 17 16 15 16 14 13 10 8 7 11 10 10 9 7 6 7 7 8 10 10 9 8 7 7 7 7 8 10 11 10 9 10 9 10 12 19 27 36 41 46 40 35 35 38 38 34 31 32
12 14 14 15 15 13 12 7 7 6 8 9 10 10 8 7 8 8 8 8 10 8 7 7 15 11 9 9 9 14 18 22 16 12 14 12 13 20 35 42 50 47 43 43 43 38 30 24 22
13 11 10 11 11 11 9 6 8 6 6 9 11 9 8 8 8 8 10 10 10 10 8 8 8 8 10 13 20 15 24 31 29 17 24 17 18 16 19 31 48 53 50 48 49 50 47 46 45
17 15 12 10 8 8 7 5 6 7 8 10 10 10 8 8 9 9 9 9 9 8 9 9 8 9 25 35 37 35 38 34 28 29 29 19 20 15 16 18 33 54 58 56 54 58 55 65 71
18 14 13 12 10 8 7 5 7 12 8 10 12 10 10 10 11 10 9 9 10 10 10 11 10 8 12 36 39 37 44 48 44 23 24 24 16 18 18 23 23 40 56 66 66 69 70 60 73
21 12 13 13 10 8 8 6 8 10 9 10 11 11 11 11 13 12 10 10 10 11 12 12 11 10 8 14 28 24 20 31 37 48 54 68 52 42 46 37 39 39 42 58 70 78 78 67 66
22 17 16 14 11 9 8 7 9 11 10 11 12 11 10 11 13 16 15 14 12 11 11 12 12 11 11 11 12 30 36 33 34 45 48 62 76 80 70 66 55 39 61 63 60 71 82 76 72
18 17 18 16 14 10 11 9 11 10 12 13 16 14 17 16 16 15 14 14 14 15 15 14 13 12 11 11 11 12 12 16 15 16 22 36 41 47 64 67 66 67 75 77 66 72 71 75 78
28 26 28 25 18 13 14 11 11 14 14 15 16 16 15 14 13 11 10 10 11 11 11 12 13 14 13 11 10 8 7 6 9 15 27 36 55 68 86 95 90 86 78 76 65 81 79 87 79
38 39 32 26 23 16 16 12 11 12 12 12 12 12 12 11 11 10 10 10 9 9 8 8 8 8 8 8 7 5 5 5 7 12 18 31 38 58 65 79 82 82 76 70 61 78 76 75 82
35 30 24 20 17 14 14 12 13 13 13 12 10 10 9 9 9 9 9 8 9 9 10 10 11 12 13 13 12 10 7 8 10 13 15 18 29 45 56 73 80 81 74 61 59 58 54 59 85
25 20 18 16 15 14 13 10 15 17 20 17 14 12 10 10 11 10 9 10 10 10 12 11 12 12 13 13 13 12 12 11 12 13 19 20 28 48 48 69 70 77 72 56 50 43 48 68 83
23 20 19 20 16 13 14 14 19 18 16 13 12 11 12 12 14 23 30 28 27 26 27 38 39 21 15 15 14 12 11 10 11 13 20 28 37 55 72 69 70 77 77 60 36 36 50 78 68
20 26 28 28 22 18 17 15 19 22 21 21 22 30 35 29 25 26 24 20 28 25 26 26 36 52 46 22 15 13 11 11 14 18 33 33 61 63 71 74 76 71 67 35 32 47 66 80 67
28 31 32 29 23 18 15 16 24 31 36 39 44 37 32 40 45 46 42 43 47 52 60 48 36 37 39 51 36 16 15 11 16 57 46 62 72 79 73 73 73 59 41 35 36 56 59 77 77
36 35 25 19 18 17 15 50 53 41 43 41 36 41 54 50 53 61 76 91 93 85 82 74 52 47 42 31 57 45 26 23 55 45 58 68 70 74 73 75 57 44 39 39 39 61 72 71 82

GFSSGP_500_rhum_051.txt.gz
RH
22 20 18 17 15 13 12 12 13 12 12 14 17 20 25 27 24 25 22 23 24 26 23 21 19 15 13 11 9 6 4 4 3 3 4 4 5 5 6 7 7 7 6 6 6 6 6 7 8
22 20 17 15 14 12 12 12 11 11 12 12 13 13 14 16 19 18 19 18 16 16 15 15 16 17 16 16 14 13 11 8 6 5 5 5 5 5 5 6 6 6 7 7 7 7 7 8 10
21 18 15 12 10 11 12 11 9 9 10 11 12 12 12 13 17 14 13 14 14 13 13 13 13 12 14 17 16 16 16 15 15 13 10 8 7 7 7 7 7 7 7 8 8 8 9 10 11
22 19 14 12 10 13 15 11 10 10 9 9 9 10 10 12 13 13 12 12 13 13 13 13 12 12 12 12 13 13 15 16 17 18 16 14 12 9 8 6 6 7 8 8 9 9 10 11 14
21 18 16 12 12 16 16 13 9 9 8 8 8 8 9 10 11 11 12 13 12 11 12 12 13 12 12 12 13 12 13 14 15 15 16 16 18 17 15 12 8 6 7 7 8 10 11 12 15
21 18 14 13 14 18 16 19 10 8 7 6 6 8 8 8 8 10 10 12 12 11 12 14 15 13 13 12 12 12 13 14 15 15 15 15 15 14 15 16 13 10 8 8 8 8 11 14 18
22 20 16 16 17 19 19 15 10 8 6 4 3 4 4 4 5 5 8 9 8 10 12 13 14 14 14 16 15 15 15 14 15 16 16 16 16 17 16 15 14 14 13 12 12 12 15 18 21
25 22 18 16 18 22 19 14 11 8 6 4 4 4 4 4 5 6 6 9 9 9 11 12 12 15 17 17 17 17 17 16 14 14 16 16 16 16 17 18 17 16 16 16 16 17 19 20 29
27 20 14 17 22 25 19 13 10 8 6 5 5 6 5 5 6 5 5 6 8 7 9 12 20 19 13 13 16 17 16 15 16 16 16 17 18 19 18 18 18 19 20 20 21 22 25 31 36
10 11 14 23 28 23 16 13 10 8 6 5 6 7 6 6 6 5 6 6 6 6 8 12 23 31 14 10 12 15 15 14 13 15 15 15 17 18 19 19 20 20 20 23 24 26 26 27 35
8 6 7 14 20 17 13 11 9 8 8 7 7 7 8 7 7 7 6 8 7 7 7 13 19 10 7 8 8 9 9 10 10 12 15 16 17 19 22 24 24 24 25 25 27 29 29 29 28
11 8 9 17 16 15 13 11 9 9 10 9 9 8 8 10 9 8 7 8 8 9 9 9 9 9 10 9 9 8 8 8 8 9 10 12 12 13 16 21 26 29 29 29 30 32 32 31 30
15 12 15 18 19 14 13 12 12 10 13 10 9 8 8 9 10 8 7 8 10 13 14 12 11 11 10 9 10 10 10 10 8 8 9 9 9 10 14 20 26 34 35 34 34 35 36 35 34
18 17 18 19 18 15 14 14 15 13 13 12 10 9 8 8 10 8 5 6 8 10 13 12 12 10 8 8 8 9 9 9 8 9 9 10 10 10 13 24 29 33 39 42 42 36 36 37 36
21 20 19 17 18 16 16 13 11 12 13 13 11 8 7 8 7 7 7 6 7 9 10 10 10 11 7 7 7 6 9 19 12 10 8 9 10 11 12 17 26 32 40 46 43 40 39 40 39
17 21 21 19 20 18 17 9 12 11 14 11 9 8 7 9 10 8 7 8 8 8 9 8 8 13 13 9 12 17 17 21 20 25 16 14 12 15 16 14 18 28 39 44 49 49 46 45 47
15 15 17 20 21 19 14 9 13 13 11 10 8 6 6 9 10 11 10 10 9 8 8 7 7 8 17 27 26 24 23 22 25 26 30 29 17 21 18 15 18 19 21 33 45 51 52 49 53
19 16 15 14 15 15 14 9 13 12 10 8 8 6 6 9 12 14 11 9 9 8 8 7 6 7 8 10 25 33 43 45 37 34 35 36 25 27 20 24 22 17 18 22 32 49 57 58 58
22 19 16 15 12 11 11 10 10 11 10 8 7 8 9 11 13 11 10 10 10 9 8 9 8 7 8 8 12 42 58 64 62 63 54 53 34 42 62 65 46 38 27 23 27 34 42 53 56
23 20 19 19 16 12 10 8 9 8 7 7 7 8 11 12 13 11 9 9 9 10 9 9 9 9 9 10 11 11 28 52 50 53 52 52 62 67 81 91 88 84 69 52 46 46 40 47 58
44 22 21 22 18 14 12 10 10 10 8 7 7 7 9 13 14 12 10 9 9 11 11 11 10 10 10 9 10 12 12 20 43 38 45 53 57 65 72 73 81 91 91 85 67 55 56 74 61
90 86 58 30 16 11 11 9 12 10 10 9 9 10 8 8 11 12 12 11 11 11 13 13 14 13 12 11 9 10 12 12 16 35 56 55 40 38 46 60 77 84 89 95 95 96 95 89 68
64 32 23 20 16 13 12 10 15 15 15 13 13 11 12 12 13 14 12 13 14 15 14 14 14 14 14 14 11 10 10 11 12 14 15 16 22 22 40 54 61 77 94 98 97 97 97 94 71
25 24 22 20 18 13 16 13 18 15 15 14 15 14 14 13 14 14 15 15 15 14 13 12 12 12 13 13 12 10 10 9 8 12 12 29 20 28 36 36 49 62 74 86 89 96 97 96 79
39 36 28 25 21 18 20 17 18 16 14 14 13 13 13 12 11 11 11 11 11 11 11 11 10 10 11 11 11 10 10 9 8 8 9 16 23 17 15 19 26 34 54 75 87 95 96 95 79
44 40 33 27 23 19 17 16 17 18 17 14 12 11 11 10 10 10 10 10 10 10 11 10 10 10 10 10 10 10 9 8 7 6 6 9 11 21 28 32 32 56 65 74 94 89 94 91 72
39 33 26 20 18 16 16 18 22 19 19 16 13 11 10 10 10 11 10 10 10 10 10 11 18 22 22 17 14 13 11 11 11 11 12 11 12 17 33 34 46 70 75 79 80 83 78 82 71
26 23 21 20 18 17 19 23 21 17 16 14 13 11 11 18 22 19 20 24 29 29 30 29 25 27 35 47 54 40 24 15 13 14 14 13 12 23 41 42 55 72 76 72 80 88 79 76 70
24 24 26 28 25 23 20 23 19 16 14 13 18 28 30 27 26 27 30 34 35 38 34 41 51 57 50 38 37 37 53 48 24 17 14 12 12 15 44 65 78 83 78 85 82 82 80 75 44
28 32 34 32 26 21 20 26 20 18 19 29 32 29 39 28 28 30 26 20 24 25 20 23 41 90 81 65 59 48 36 50 47 22 14 11 10 14 64 64 73 75 86 90 78 80 75 47 36

GFSSGP_500_rhum_054.txt.gz
RH
26 21 21 20 21 19 17 17 17 18 21 26 30 31 32 30 28 26 25 24 26 27 26 23 22 21 20 16 13 12 10 7 5 4 4 4 4 4 4 4 4 5 7 7 7 7 7 7 8
27 22 20 20 20 18 16 16 15 15 14 16 19 21 22 21 21 20 22 22 22 19 18 19 17 17 18 18 17 16 15 14 12 10 9 8 6 4 4 4 4 5 5 6 7 8 8 9 10
28 25 22 18 17 17 17 16 13 13 13 13 13 13 14 14 14 14 15 16 15 16 15 14 14 13 13 13 15 14 15 15 15 15 15 14 12 10 9 8 7 6 6 6 6 8 8 10 11
27 27 23 21 17 18 18 15 13 12 12 12 12 12 12 12 13 13 13 13 12 13 12 12 12 12 12 12 12 11 11 11 11 12 12 13 15 16 15 15 13 10 7 7 6 7 8 9 11
27 24 23 21 18 17 16 14 12 11 10 10 9 10 10 10 12 12 12 11 10 10 11 11 11 11 10 10 11 11 11 12 12 12 12 12 12 12 13 15 15 15 13 10 8 8 8 8 11
26 23 22 19 18 19 18 17 12 12 10 9 9 8 8 11 11 11 11 11 12 11 11 12 12 12 10 9 10 10 10 11 12 11 12 13 13 14 15 15 15 15 14 14 13 12 12 12 15
26 22 20 19 18 20 23 20 13 11 10 10 8 8 8 10 9 10 12 12 13 13 11 12 12 12 11 11 11 11 11 11 12 13 13 12 13 13 14 15 16 17 16 15 14 15 16 18 22
34 26 18 17 17 21 22 21 18 11 10 10 9 8 6 6 6 6 6 9 9 8 8 9 10 11 12 12 10 12 13 13 12 12 13 12 12 14 14 15 15 16 16 17 18 17 19 22 27
39 29 18 17 17 22 23 21 18 14 13 11 9 7 6 5 5 5 6 8 9 9 9 9 11 12 12 16 17 16 13 13 13 12 11 12 13 12 12 13 15 16 18 18 18 21 22 23 25
40 28 21 24 24 27 22 22 18 15 13 12 9 7 5 6 5 6 7 7 8 8 7 8 8 9 14 22 30 25 12 11 10 11 11 11 12 13 13 14 14 14 17 19 20 21 23 25 27
15 19 26 31 32 34 26 23 20 17 14 12 9 7 8 8 7 7 7 8 9 11 9 7 8 8 12 26 30 12 10 10 9 9 9 11 12 11 12 13 13 15 18 19 21 22 24 28 28
14 11 11 17 27 31 32 22 18 17 15 12 10 7 8 9 9 10 10 12 10 10 9 12 10 10 14 11 9 9 9 9 8 8 9 10 10 9 8 9 11 13 15 20 23 24 26 29 32
17 15 13 16 13 11 15 19 19 16 14 12 9 8 7 9 10 11 11 10 8 8 9 10 14 14 10 10 10 9 8 8 9 9 9 9 8 7 7 8 8 11 15 19 21 27 27 29 30
21 18 19 19 16 11 9 10 10 13 13 12 10 9 9 8 9 11 12 10 9 9 8 14 13 12 12 10 8 8 6 7 8 8 9 8 7 7 7 8 8 9 12 16 17 21 26 33 34
19 20 21 19 17 13 10 9 6 15 14 12 13 12 10 9 8 8 10 10 10 9 8 11 16 14 11 8 8 12 15 19 15 15 11 8 7 7 8 11 11 9 9 13 17 21 32 38 43
19 19 21 22 18 15 13 9 9 13 14 16 14 12 9 8 8 8 9 11 11 10 9 9 16 17 10 9 9 15 22 21 21 20 21 21 15 14 12 12 14 14 12 12 12 12 15 26 39
22 16 17 23 24 18 13 9 12 13 14 15 14 12 9 8 8 8 8 10 10 9 10 9 7 8 8 13 12 20 24 31 28 27 28 34 29 30 26 16 17 21 16 16 16 14 14 17 18
22 19 18 19 22 22 15 8 12 14 14 13 13 15 14 12 11 9 7 9 10 9 10 9 9 8 7 7 8 11 24 36 39 38 37 37 34 39 37 30 24 28 27 30 29 19 18 20 19
25 23 21 18 16 17 17 11 13 15 15 15 14 14 13 11 10 8 6 7 11 9 8 9 9 9 9 9 11 10 8 13 27 36 57 70 69 70 56 57 55 60 64 78 70 56 51 32 32
26 23 22 21 18 14 14 13 15 15 14 14 14 13 12 10 9 8 6 6 10 10 8 8 9 9 9 9 9 8 9 9 11 25 48 70 84 84 82 80 87 82 83 84 92 89 89 78 61
31 28 26 24 20 16 14 11 12 12 11 10 9 9 9 8 7 7 6 6 8 9 10 9 9 9 9 9 10 9 9 9 10 14 18 36 50 72 68 61 72 78 82 72 78 84 97 95 96
73 37 29 25 22 18 16 12 16 15 13 10 9 8 7 6 6 6 6 6 7 10 11 10 9 10 11 11 10 12 12 12 14 15 16 16 20 53 54 65 80 82 64 54 77 76 94 98 98
97 100 64 44 26 18 16 14 18 14 12 11 10 9 8 8 8 7 8 8 7 7 9 11 10 10 11 13 12 11 12 13 14 16 17 19 22 23 49 71 67 56 53 48 61 65 85 90 90
97 100 99 84 56 29 21 15 16 14 13 13 14 13 12 11 10 10 10 9 10 11 12 12 13 14 13 13 13 12 12 12 12 15 15 16 19 18 20 27 45 56 56 45 50 53 61 65 77
38 57 58 27 19 17 20 18 18 18 17 16 16 14 13 12 11 11 11 11 11 11 11 11 12 12 13 13 13 13 12 12 11 11 13 13 15 24 30 37 55 59 76 52 43 50 56 78 74
40 30 25 24 22 23 26 24 22 19 17 16 15 14 13 12 11 11 11 10 10 10 10 10 10 10 10 11 11 11 11 11 10 10 10 10 12 13 13 28 33 43 73 50 56 66 67 72 84
38 30 33 32 30 29 23 21 20 20 17 14 13 11 11 10 9 9 9 9 10 10 11 12 13 14 15 14 15 14 14 13 12 10 10 9 9 9 10 11 22 44 67 75 87 74 80 75 92
43 45 37 32 27 23 22 22 22 18 15 12 10 11 12 11 10 10 11 13 18 24 28 28 28 29 30 33 33 35 36 28 18 16 14 12 12 11 12 13 21 70 65 62 62 65 60 80 85
51 41 32 25 21 23 28 26 22 18 14 14 13 13 13 15 22 24 25 21 18 18 19 20 20 22 25 28 33 49 35 35 38 40 32 19 17 16 15 15 16 17 46 69 79 78 75 100 99
32 27 25 29 28 28 28 23 19 16 15 14 15 19 22 24 26 21 23 18 19 20 25 30 28 16 11 11 12 20 57 49 43 43 37 43 46 35 21 16 16 14 14 48 54 82 94 98 96

GFSSGP_500_rhum_057.txt.gz
RH
55 37 30 26 29 43 46 47 47 49 43 39 37 33 31 28 26 26 27 26 27 26 26 23 22 21 19 16 14 13 12 11 10 9 8 5 4 3 3 3 4 4 4 5 6 6 7 8 8
68 47 31 27 25 25 23 23 26 32 35 36 37 37 35 34 31 29 28 27 26 24 21 19 17 18 17 16 16 16 15 15 15 14 13 11 10 10 8 6 5 5 5 5 5 6 6 8 8
74 56 36 27 25 23 21 20 18 18 18 19 20 23 24 24 23 21 22 21 20 18 18 16 15 15 14 13 12 12 12 12 12 12 13 13 13 14 13 12 10 9 8 7 6 6 6 8 8
63 54 42 29 23 23 24 20 18 17 16 16 15 15 16 15 16 15 15 15 15 15 14 13 12 12 13 12 12 11 12 12 11 11 11 11 11 11 11 11 13 14 14 13 11 9 8 7 7
42 49 40 34 24 22 24 22 17 16 15 15 14 13 13 13 12 12 13 13 13 13 14 13 11 10 10 9 10 8 8 9 10 10 10 9 10 10 10 11 12 12 13 14 14 13 13 12 11
35 42 40 34 26 24 26 23 19 16 15 14 14 13 12 12 12 12 11 12 11 12 12 12 13 12 10 9 10 9 8 8 8 8 8 8 9 10 10 10 12 13 15 16 16 14 14 14 14
36 34 35 31 27 26 28 24 19 16 14 12 12 11 11 11 13 14 12 12 13 12 12 12 12 12 12 10 10 9 7 6 6 8 8 8 8 9 8 9 9 10 11 12 14 15 16 16 16
33 33 29 28 26 26 27 25 20 16 14 13 11 11 11 13 12 11 12 13 14 15 15 14 12 12 10 9 8 7 7 8 8 8 8 8 8 9 8 8 8 8 10 11 13 14 15 16 18
41 30 27 24 24 26 26 28 22 19 16 15 13 11 12 12 10 8 8 10 13 13 12 12 11 10 11 10 8 9 14 16 18 11 9 9 9 8 8 8 8 8 8 10 11 14 16 16 18
49 32 24 25 25 27 26 27 25 20 18 16 14 13 13 12 8 6 6 6 8 9 9 9 9 8 8 8 9 11 20 29 28 12 10 9 9 9 8 8 8 8 8 9 10 11 14 15 17
56 38 32 32 28 30 25 24 25 20 18 17 14 14 13 11 9 7 8 8 8 8 8 9 7 7 7 8 8 13 24 32 16 9 8 8 8 7 7 8 8 7 6 7 9 11 13 15 17
67 51 39 39 34 37 26 24 26 23 19 16 15 15 14 10 12 13 12 11 13 10 10 10 11 10 9 9 9 16 17 11 9 9 8 8 8 8 7 6 6 6 6 6 8 11 14 15 16
28 52 33 42 41 40 31 24 25 28 20 17 16 16 14 11 9 10 14 14 21 18 16 19 13 9 10 14 17 11 11 9 8 8 8 8 8 8 6 6 6 7 6 5 7 9 10 12 14
22 18 20 21 20 25 29 28 23 28 23 20 18 17 15 12 9 9 11 12 12 10 12 12 10 9 10 20 24 14 8 8 8 8 6 7 7 7 6 6 6 6 6 7 7 7 10 12 13
24 24 22 23 18 13 11 12 16 25 25 19 20 18 14 12 10 12 12 12 12 11 10 9 10 11 12 15 19 15 11 10 9 11 18 8 9 9 7 6 6 7 8 8 8 8 10 9 9
24 21 20 23 21 16 13 11 8 8 12 15 15 14 12 10 10 11 12 12 12 11 10 11 10 9 9 13 22 27 21 28 39 16 20 24 22 14 17 10 10 11 10 11 13 10 13 12 11
28 24 20 20 21 19 16 14 13 10 10 14 15 13 12 12 11 12 11 9 9 9 10 10 10 9 8 8 17 35 32 34 31 50 31 36 26 52 32 26 25 23 18 14 20 19 19 22 18
25 24 22 19 20 20 16 13 14 14 13 16 16 16 15 14 14 12 9 8 7 6 6 9 10 9 9 8 9 18 31 44 38 39 39 46 46 42 42 48 33 32 36 25 26 34 53 62 58
29 28 26 23 19 18 17 11 12 14 16 16 17 17 17 16 13 10 9 8 8 7 6 5 9 9 9 9 10 10 12 38 38 39 28 34 49 50 55 63 59 55 52 50 54 64 73 80 76
32 29 27 25 21 16 15 14 19 19 18 15 15 15 15 15 15 13 11 9 8 8 8 5 5 10 10 10 10 11 11 10 25 28 27 26 35 45 63 82 94 88 78 80 79 84 81 79 64
32 29 27 26 23 20 16 14 16 18 18 16 14 14 14 14 15 14 12 10 9 8 7 6 7 9 10 10 10 10 11 11 12 13 16 24 24 34 36 57 76 84 84 84 68 70 83 80 61
34 30 28 26 24 21 18 16 17 14 13 14 14 13 13 12 11 10 9 8 8 6 6 5 6 7 9 10 9 9 9 10 12 12 15 14 12 14 22 34 32 48 64 75 74 83 86 73 64
58 38 32 29 25 23 20 17 19 16 13 12 12 11 10 9 9 8 8 7 6 6 5 5 6 6 6 7 8 10 10 10 11 13 13 13 14 16 16 20 25 29 34 71 82 93 76 71 66
100 79 45 31 26 21 22 20 22 17 16 15 13 12 10 10 9 9 9 8 8 8 9 9 8 8 8 9 9 10 11 13 14 15 16 15 14 15 16 24 34 40 38 52 74 68 63 74 76
100 100 98 76 51 36 38 32 26 19 16 14 12 11 10 10 11 11 12 12 12 11 11 11 10 10 10 10 10 10 11 12 13 14 15 16 20 21 20 25 27 38 51 54 55 52 76 79 92
96 96 94 92 83 49 31 27 23 19 17 14 12 12 12 13 14 14 14 13 12 11 10 10 9 9 9 9 9 10 10 9 9 10 11 12 13 15 18 20 21 31 41 59 73 82 94 97 100
89 61 42 43 41 26 27 25 26 23 18 16 14 16 16 15 14 13 11 10 9 8 8 9 10 11 11 12 12 14 15 15 15 15 14 12 12 13 15 16 18 18 26 40 53 66 84 81 91
81 63 43 34 32 34 31 28 23 21 19 18 17 15 14 12 10 9 9 10 11 12 12 13 15 19 21 23 25 30 37 38 36 33 30 24 18 16 16 18 19 19 20 31 35 47 58 100 82
57 51 45 44 39 36 26 24 21 19 18 16 15 13 11 11 11 12 11 14 18 17 16 17 17 18 21 27 34 31 23 20 29 36 42 44 38 34 32 21 19 20 23 24 25 30 40 54 80
51 49 46 39 29 26 26 24 21 18 16 16 15 14 14 13 13 16 17 17 15 14 16 18 24 25 24 18 14 14 24 32 24 15 20 54 57 46 37 41 45 33 21 20 21 21 20 20 30

GFSSGP_500_rhum_060.txt.gz
RH
73 57 55 64 59 59 49 43 38 35 28 26 24 22 19 19 18 18 19 20 21 24 27 24 23 22 19 16 13 10 9 9 8 8 8 8 7 6 5 4 3 3 3 4 4 4 4 5 6
68 69 53 44 48 52 58 58 53 51 47 41 39 35 29 26 26 26 26 27 28 26 24 21 20 19 18 17 16 16 15 14 14 13 13 13 12 11 11 10 9 7 5 6 6 5 5 5 5
57 77 66 46 37 37 40 52 52 51 49 50 48 45 42 36 33 33 31 30 27 23 20 18 16 16 15 15 13 12 12 12 12 11 11 11 11 11 11 11 12 12 12 12 11 10 8 7 6
60 68 69 55 35 30 29 29 35 30 32 37 37 36 37 34 31 27 25 23 20 18 16 16 14 12 12 12 12 12 12 11 11 11 10 10 10 10 10 10 11 11 11 11 12 13 13 12 11
67 55 67 58 41 29 28 27 23 21 20 20 20 20 20 21 22 19 19 16 15 14 14 14 13 11 10 8 9 8 8 8 8 7 6 6 6 6 6 7 8 9 10 12 13 14 15 14 14
55 58 52 57 47 32 27 26 24 21 19 18 17 17 16 15 14 14 13 13 13 14 14 14 13 12 10 9 9 9 7 7 6 6 6 6 6 6 6 6 7 7 8 9 11 13 14 14 15
81 47 48 50 55 35 30 27 25 23 20 18 17 16 15 14 14 14 14 13 12 12 13 13 12 12 12 10 10 9 6 4 4 5 6 6 6 6 6 6 6 6 7 8 8 9 11 12 13
52 64 44 45 51 35 34 29 26 23 20 18 17 16 14 13 14 12 11 11 12 12 11 12 12 12 12 11 10 8 6 5 5 6 8 9 8 6 6 6 6 6 6 6 7 7 8 9 11
59 42 56 41 44 34 35 36 29 26 22 19 18 16 14 13 14 13 12 11 12 12 12 12 12 12 11 10 9 8 7 7 6 10 16 20 9 7 6 6 6 6 6 6 6 6 6 7 8
71 43 40 44 37 33 37 40 32 27 24 19 18 17 15 14 15 14 12 10 10 11 10 11 11 10 10 9 9 8 8 8 8 16 23 24 8 6 5 5 6 6 6 5 5 5 6 7 7
71 56 35 33 35 33 34 40 35 29 26 20 16 16 15 16 16 15 12 8 7 6 7 8 8 9 9 9 8 8 8 8 10 18 24 14 6 6 6 6 6 6 5 5 5 5 6 6 7
82 64 43 37 38 35 33 33 35 31 26 23 18 15 15 15 16 14 12 11 8 8 9 9 8 8 8 8 7 7 7 8 11 18 13 8 7 7 7 6 6 6 5 5 5 6 6 6 7
82 78 64 52 52 40 43 33 32 32 27 23 20 18 16 16 16 14 12 12 14 14 12 11 9 8 8 9 10 10 15 12 12 10 9 8 7 7 7 6 6 5 5 5 6 5 6 6 6
45 70 82 77 65 50 40 39 28 30 28 24 21 18 17 18 18 15 12 10 16 17 14 18 19 16 15 16 12 17 23 27 23 14 8 7 7 6 6 6 6 5 5 5 6 6 7 7 7
31 41 60 78 77 60 44 32 28 33 33 23 20 19 17 19 18 17 12 10 10 10 9 10 9 11 13 14 12 12 13 17 25 35 23 22 14 12 12 7 8 7 7 6 7 8 7 8 8
30 30 30 42 61 57 41 35 27 33 32 28 23 21 20 20 21 18 13 11 10 10 11 10 10 10 11 11 11 10 12 16 21 40 34 35 41 27 18 23 20 13 12 9 10 10 9 12 12
32 28 29 27 41 36 23 21 21 25 28 29 26 22 22 24 22 19 14 11 10 11 11 12 11 11 10 10 10 11 14 14 15 35 43 34 40 48 43 29 24 25 24 20 22 21 16 16 20
33 32 31 24 25 22 18 17 16 13 11 11 12 13 13 14 15 14 13 11 11 11 11 11 10 9 10 10 11 11 12 13 12 20 40 42 41 41 51 56 53 48 42 47 34 31 34 24 28
33 31 28 26 25 24 19 17 18 18 16 16 14 11 8 8 11 11 11 11 11 12 10 10 9 10 8 8 10 13 12 15 15 14 12 16 48 48 51 45 55 59 63 61 51 44 47 43 48
37 32 30 29 25 29 23 17 17 17 17 17 18 17 13 10 10 10 11 10 10 10 9 9 9 10 9 6 6 10 12 12 12 11 11 12 14 34 44 45 46 50 60 64 75 85 83 72 75
41 32 30 30 28 25 30 22 17 17 17 16 15 16 16 14 13 12 11 10 10 10 10 9 9 9 8 7 5 6 11 12 12 11 11 12 13 13 18 32 45 36 52 63 84 87 93 91 81
47 38 32 29 28 26 23 21 18 16 16 16 16 14 14 14 14 13 12 12 11 10 10 10 9 9 7 6 6 6 8 10 12 12 12 11 11 11 13 29 43 29 38 51 50 77 90 86 84
48 38 35 32 29 26 23 22 20 18 15 14 14 15 14 14 13 13 12 12 11 10 9 8 7 6 5 5 5 5 5 6 8 10 12 14 14 14 13 26 17 56 42 44 45 50 50 53 71
63 41 35 31 37 29 25 23 21 20 17 15 13 12 12 12 11 11 10 10 9 8 8 8 8 7 7 7 7 8 8 8 8 10 10 13 17 22 19 16 23 18 53 51 60 66 67 65 68
92 54 38 33 36 42 31 25 22 20 18 16 14 12 11 11 10 10 9 9 9 9 9 10 11 11 12 11 11 10 10 9 9 10 11 12 14 17 21 26 24 20 22 46 52 57 73 79 76
100 89 51 40 36 39 34 26 24 22 19 17 15 13 12 12 11 11 10 11 11 12 13 13 14 14 12 10 8 8 8 8 9 9 10 10 11 13 15 16 19 28 31 29 32 44 69 75 84
100 100 96 92 85 81 69 50 40 33 28 23 16 13 12 12 12 12 13 14 14 15 14 13 12 9 8 8 10 11 12 13 15 18 20 23 21 18 16 16 17 19 21 28 35 36 40 57 69
96 95 96 96 90 87 56 35 25 25 22 18 15 15 16 16 16 15 15 14 13 11 9 8 9 11 12 13 13 14 16 20 25 31 32 32 31 35 42 40 34 24 21 22 23 25 30 46 52
89 89 84 58 40 42 34 29 24 22 21 20 19 18 18 17 16 15 13 10 9 10 11 14 14 15 15 16 19 22 25 21 14 14 17 19 20 19 25 41 51 48 41 38 27 23 25 26 28
90 84 82 71 50 36 35 30 27 23 21 20 19 17 15 13 12 12 11 11 13 15 16 16 17 17 17 20 21 16 10 13 14 17 19 28 27 31 32 16 24 44 57 54 66 60 32 24 24

GFSSGP_500_rhum_063.txt.gz
RH
70 70 69 70 59 41 33 32 26 24 23 17 18 18 16 14 15 16 14 14 14 16 17 18 19 18 18 16 14 12 10 9 8 7 8 8 8 8 7 7 6 6 5 4 3 3 4 4 4
83 74 71 69 62 59 54 42 39 34 23 24 23 22 21 20 17 18 19 19 19 22 24 24 23 22 21 18 18 17 16 15 15 14 13 12 12 12 12 11 11 11 11 9 8 7 8 8 7
98 83 75 68 66 60 63 62 56 41 37 30 28 27 24 22 23 23 25 28 29 30 28 24 21 18 17 16 14 14 13 12 12 12 11 11 11 11 11 11 11 11 11 11 11 12 12 12 11
89 93 76 70 59 59 55 56 61 56 51 49 46 46 38 38 34 34 36 36 34 31 24 21 17 15 14 13 12 12 12 11 11 11 10 8 7 7 7 7 7 7 7 8 9 10 12 13 13
93 93 77 70 62 56 48 47 48 57 56 55 52 51 47 44 39 38 36 34 30 24 19 16 15 14 12 11 9 8 8 8 6 6 6 5 5 5 4 4 4 4 4 5 6 9 11 14 15
93 67 68 59 66 61 45 37 34 35 45 45 38 40 41 38 34 30 27 24 22 17 14 14 13 12 10 8 7 6 6 6 5 4 4 3 3 3 3 4 4 4 4 4 5 6 6 7 10
92 76 52 51 66 75 55 36 30 29 28 25 25 23 24 23 20 19 19 16 15 14 12 12 11 10 8 7 6 6 6 4 4 4 3 3 4 4 5 5 4 4 4 4 4 4 4 4 4
83 86 61 58 52 72 70 42 30 28 26 24 21 20 19 18 17 15 14 13 13 14 12 12 10 9 9 8 8 7 6 4 3 4 4 5 6 10 13 8 4 4 4 4 4 4 4 4 4
51 90 74 51 52 57 70 47 33 28 26 24 21 19 18 17 16 15 15 14 12 10 9 9 9 9 9 9 9 8 6 4 4 4 5 5 8 15 18 8 4 4 4 4 4 3 4 4 4
71 75 73 72 53 50 63 47 39 32 27 26 23 21 18 17 16 15 13 12 12 11 10 9 8 9 9 9 9 7 6 6 5 5 5 5 10 17 18 5 5 4 4 4 4 4 4 4 4
85 75 66 56 83 49 67 48 42 37 29 26 24 21 19 16 15 15 13 13 12 11 10 8 8 7 8 8 7 7 7 7 7 6 5 5 8 14 9 5 5 5 5 5 4 4 4 4 5
73 91 67 58 52 73 62 47 46 43 36 28 22 22 21 17 14 15 15 14 13 11 9 7 6 6 6 6 7 8 8 8 6 6 6 7 9 9 8 6 6 6 5 5 5 5 5 5 4
58 91 93 77 53 87 75 73 44 44 35 31 26 23 20 18 16 15 17 14 13 12 11 9 9 8 7 7 7 8 8 9 9 12 18 16 15 8 6 6 6 6 6 6 5 5 6 5 5
50 87 92 89 72 74 90 78 50 40 38 34 31 26 22 19 17 16 18 16 14 12 11 12 12 14 10 12 20 15 14 13 11 17 24 27 25 24 13 11 8 10 6 7 6 6 6 6 7
59 85 68 95 83 68 80 85 70 45 38 36 31 27 23 21 19 18 17 18 15 12 11 10 12 13 13 15 19 16 14 11 9 9 11 14 22 37 48 42 34 15 17 15 13 8 8 7 8
50 91 67 95 97 96 77 72 77 55 41 33 29 26 24 22 20 20 20 19 16 14 12 10 9 9 10 10 10 12 11 10 10 10 11 13 18 30 43 33 36 58 27 24 22 14 14 12 12
44 87 71 89 96 96 88 72 66 60 52 41 33 29 23 21 20 20 20 18 18 16 13 11 9 9 10 10 10 12 18 15 18 15 16 20 15 14 33 42 37 38 43 51 36 28 29 24 24
40 73 71 65 86 94 89 76 66 50 51 42 36 32 27 23 20 20 19 19 20 18 15 11 10 11 13 12 11 11 10 10 18 22 18 20 18 14 13 21 37 42 42 51 65 58 51 44 45
45 46 69 54 58 74 90 80 66 49 41 43 43 37 31 25 20 18 20 22 21 19 15 12 12 13 13 12 10 10 10 9 11 13 19 23 23 19 16 12 12 14 40 52 55 62 63 68 62
41 40 57 44 43 43 37 62 66 29 21 19 17 15 15 14 12 12 10 10 12 14 13 12 12 13 12 11 10 9 10 9 7 8 10 14 14 13 14 12 12 12 12 28 41 52 60 63 68
41 39 40 38 41 37 38 29 34 23 19 19 20 17 14 11 9 8 7 7 9 10 11 12 12 12 11 11 10 9 9 8 8 8 9 13 17 14 12 12 11 11 12 12 15 27 48 47 57
44 39 39 35 40 39 42 27 26 23 21 19 19 16 15 14 13 12 11 9 8 8 9 10 10 10 10 10 10 10 9 8 7 7 10 15 15 14 14 14 20 26 30 32 27 31 45 55 58
48 42 38 36 35 47 36 30 40 38 30 18 17 18 17 13 13 12 12 11 11 11 11 10 10 10 10 10 9 8 6 6 6 6 7 8 13 15 16 23 32 36 27 19 44 57 55 68 84
70 55 44 38 34 33 35 40 54 42 30 29 18 15 15 14 14 13 11 10 10 10 10 10 10 9 8 8 7 7 7 8 8 8 9 9 9 12 15 20 23 25 26 26 31 36 46 59 95
97 64 46 42 38 32 29 28 28 29 35 25 20 16 14 13 12 12 12 12 11 11 10 9 9 9 9 9 10 11 11 12 12 11 10 10 10 10 11 13 15 17 21 27 34 35 40 49 76
94 86 73 46 42 46 45 37 30 26 24 21 18 16 15 13 12 11 11 10 10 10 10 9 10 10 11 12 14 15 12 9 8 8 9 10 12 14 16 17 18 16 17 17 18 23 36 43 48
100 91 79 58 44 38 37 45 48 41 32 30 26 20 16 14 14 13 12 12 12 11 11 11 12 13 14 16 15 10 8 9 10 11 12 13 17 22 25 26 29 35 46 52 43 28 28 35 49
100 100 100 86 72 61 44 38 39 43 43 33 26 25 22 18 14 13 12 12 11 11 13 14 15 17 14 9 9 9 10 10 13 16 19 21 14 11 12 12 13 15 17 23 45 66 60 56 50
99 90 99 99 92 92 88 67 54 51 41 35 32 28 24 19 15 14 13 13 14 15 15 14 11 9 11 11 11 10 11 13 12 13 11 8 10 14 15 16 15 22 28 31 26 26 66 72 74
93 91 90 88 87 85 82 71 56 38 26 24 23 21 20 18 17 16 16 16 16 13 11 10 13 14 12 11 10 14 10 8 8 6 8 15 16 21 18 13 20 41 47 35 54 55 67 86 79

GFSSGP_500_rhum_066.txt.gz
RH
66 56 49 38 34 25 23 24 19 16 16 13 13 11 10 10 9 10 8 9 11 12 12 12 14 16 15 15 14 13 12 11 11 12 10 10 10 10 10 10 10 9 9 9 9 8 6 6 7
74 69 66 60 39 30 29 32 21 23 18 16 18 17 16 15 14 14 15 15 14 15 16 17 20 20 20 19 18 17 16 16 15 15 14 13 13 12 12 12 12 12 12 12 12 12 11 11 11
90 78 74 62 52 39 42 52 31 29 21 22 22 21 21 14 15 16 18 19 19 20 22 24 24 22 20 18 16 15 14 14 13 12 12 12 12 12 10 9 8 8 8 8 9 10 11 11 12
97 96 77 68 58 54 59 56 39 32 32 28 25 26 21 19 24 23 22 22 24 27 29 27 24 19 16 15 15 14 12 12 11 11 10 7 5 4 4 4 4 3 4 4 5 5 5 6 9
97 95 90 77 70 68 70 60 42 40 49 40 38 31 27 24 24 26 28 31 33 32 30 26 21 16 14 14 12 12 10 8 6 5 5 4 4 3 2 2 2 2 3 3 3 3 4 4 5
92 96 88 76 70 76 72 67 56 57 57 57 60 50 35 35 36 37 39 38 36 34 28 21 17 14 13 12 11 9 7 6 5 5 4 3 2 2 2 3 3 4 4 3 3 3 3 3 3
97 95 85 93 90 94 84 76 57 55 54 57 60 59 44 50 46 44 42 39 33 28 23 17 14 13 12 11 9 6 6 5 5 4 3 2 2 3 3 5 8 11 6 3 3 3 3 3 3
73 98 97 96 100 90 94 90 64 48 42 43 47 53 52 47 43 41 36 30 26 21 17 14 13 12 10 9 7 6 5 5 4 3 3 3 3 3 3 6 10 12 6 3 3 3 3 3 3
48 89 95 96 94 83 94 99 68 49 37 36 31 39 42 44 30 27 23 18 18 15 13 13 12 10 8 7 6 6 6 5 3 3 3 3 4 4 4 6 12 11 4 3 3 3 3 3 3
72 65 89 100 100 91 96 96 82 60 37 31 29 27 27 23 20 19 18 16 15 14 13 11 10 8 8 7 7 6 5 4 3 3 3 3 3 3 4 6 11 7 4 3 3 3 3 3 4
92 61 37 56 98 94 95 94 75 68 42 32 30 28 24 21 20 18 17 16 15 14 11 9 8 8 7 6 6 5 4 3 3 4 4 4 5 6 7 8 8 5 4 4 4 4 4 4 4
88 84 61 58 86 95 94 84 85 72 49 35 29 26 25 22 20 19 18 16 14 12 11 10 9 8 7 6 6 5 5 4 4 4 6 7 9 18 16 16 7 6 5 4 4 4 4 4 5
86 73 100 67 65 86 90 73 73 80 50 40 31 26 28 25 21 19 18 16 15 13 11 13 10 9 9 9 9 8 7 7 7 8 10 10 12 19 23 22 24 13 8 7 7 5 5 5 6
50 86 79 86 69 87 95 95 89 82 57 43 36 31 28 27 23 21 19 17 15 19 14 12 11 10 10 11 12 12 10 14 21 21 12 9 8 8 9 11 27 44 41 27 15 16 14 12 9
71 59 91 88 78 96 97 96 72 85 62 46 42 38 31 28 24 22 20 18 17 16 13 13 12 12 11 11 11 10 10 10 10 9 9 8 8 8 9 11 13 32 34 27 44 32 24 23 19
97 51 62 78 91 97 95 85 93 90 73 48 43 38 35 31 27 23 21 19 17 16 16 23 17 13 11 10 9 9 9 9 9 10 13 12 12 11 12 15 15 10 23 40 36 45 47 44 33
94 83 51 65 75 97 95 88 97 96 86 63 43 38 36 33 30 26 23 20 18 17 16 14 13 14 15 11 10 9 9 9 10 10 14 13 14 16 16 13 16 14 10 14 31 39 42 45 57
70 83 53 60 69 90 96 92 87 94 91 78 58 45 36 32 29 26 23 19 18 17 18 17 18 16 14 12 13 13 19 17 12 9 10 12 15 21 17 20 26 29 18 14 20 13 20 42 55
85 100 65 53 62 96 90 99 93 81 95 84 80 66 50 42 34 27 24 20 20 20 20 19 19 20 16 14 12 17 19 15 12 10 9 11 23 25 26 21 30 31 31 19 14 21 16 11 28
99 96 75 53 55 89 91 89 98 78 75 96 86 70 64 55 45 38 30 25 23 21 20 20 21 20 18 14 12 10 11 12 11 10 10 10 15 21 22 22 27 28 28 16 12 17 49 40 35
98 84 72 50 48 77 93 89 88 86 67 86 87 70 58 50 39 29 24 22 22 20 17 16 15 14 14 13 12 12 10 11 11 11 10 10 9 12 18 29 39 32 28 24 27 30 50 63 74
96 92 78 48 49 74 94 69 79 94 87 78 64 55 40 28 18 15 14 12 10 8 8 8 9 11 12 12 12 12 12 9 10 11 11 9 8 8 7 11 17 13 16 17 26 40 31 44 57
100 99 66 44 46 62 85 60 54 58 76 62 38 21 19 18 17 16 15 13 12 11 10 9 8 9 10 10 10 10 10 10 9 8 7 7 7 7 9 14 23 19 21 16 20 31 30 28 34
99 100 60 47 45 47 73 56 53 56 32 43 54 34 21 18 17 24 39 25 20 19 15 11 10 11 10 10 11 10 9 8 8 8 8 9 10 11 11 12 15 14 14 13 15 22 21 28 34
100 100 72 50 44 42 52 70 67 59 47 31 34 37 36 28 21 26 19 14 12 11 10 10 10 10 10 11 10 9 8 9 10 11 13 14 12 10 9 9 11 14 16 19 19 18 18 22 29
100 100 90 52 42 40 48 43 47 56 54 54 53 47 32 31 22 17 15 13 12 12 11 11 10 10 10 10 9 10 11 13 14 15 12 9 9 11 13 13 16 20 23 26 22 22 25 37 49
98 98 98 76 54 43 44 48 37 36 36 38 31 28 36 32 19 16 14 13 12 12 11 11 11 11 10 10 11 12 14 15 11 8 10 11 11 12 13 13 12 10 10 13 14 14 18 19 26
98 100 99 87 74 64 56 51 47 40 36 33 31 28 25 23 22 19 16 14 13 13 13 13 12 11 11 12 14 17 13 8 10 11 10 10 8 7 7 8 10 13 15 17 21 21 20 23 31
96 100 93 96 86 82 65 54 50 43 40 43 47 47 45 40 30 28 22 17 15 14 12 12 12 13 14 17 15 9 10 11 10 10 8 6 7 9 10 10 11 13 14 21 23 20 31 60 70
100 97 100 100 92 92 82 66 49 44 42 42 41 41 38 33 30 28 25 20 16 15 14 14 14 16 15 10 12 11 10 11 11 6 5 5 8 10 10 13 17 18 19 24 26 26 41 60 50

GFSSGP_500_rhum_069.txt.gz
RH
61 44 31 26 22 17 16 16 14 11 10 9 9 10 9 10 9 7 6 5 7 6 8 9 12 13 14 14 14 12 12 12 12 13 14 15 14 14 13 13 12 12 12 12 13 12 12 12 11
90 62 39 31 24 20 20 18 14 13 11 12 12 13 11 10 9 8 11 10 9 11 12 12 14 18 20 19 18 17 17 16 16 15 15 14 13 13 13 13 13 12 10 9 9 9 9 10 11
93 84 50 37 28 25 27 26 20 18 16 15 15 13 9 9 10 10 13 15 15 14 15 16 18 20 21 20 18 17 16 15 14 14 13 12 12 11 8 6 4 4 3 3 3 3 3 3 3
96 88 68 48 32 35 37 29 20 19 21 20 20 17 12 13 15 15 17 19 19 19 19 20 22 23 22 18 17 16 15 14 12 11 9 7 5 4 4 3 2 2 2 2 2 2 2 2 3
98 96 78 58 46 56 47 45 27 20 29 26 24 20 18 17 22 18 18 21 22 22 26 27 27 25 21 17 15 14 14 12 10 7 5 5 4 3 2 2 2 3 3 4 4 3 2 3 3
98 96 94 76 60 77 56 52 52 26 30 34 28 24 28 24 21 21 20 27 29 30 32 32 28 23 19 16 14 13 11 9 7 6 5 4 3 2 2 2 3 4 7 9 6 3 2 2 3
94 96 95 98 97 98 79 51 49 35 37 48 33 30 33 32 30 32 36 35 43 40 35 31 26 21 17 14 13 11 9 7 6 6 5 4 2 2 2 3 3 4 7 10 6 3 2 2 2
93 97 98 98 96 96 98 84 62 53 56 61 50 37 45 55 39 33 37 43 46 42 36 28 22 18 15 13 11 9 7 6 5 5 4 3 2 2 3 3 3 4 6 8 5 3 2 2 2
95 98 95 92 94 96 100 88 82 76 66 59 56 50 52 54 63 47 48 50 46 43 35 24 19 16 13 12 9 6 6 5 5 4 3 2 3 3 3 3 3 4 7 6 3 3 2 3 3
92 87 95 99 98 97 96 96 75 88 76 60 55 54 54 52 56 67 50 43 41 36 25 20 15 13 12 9 8 7 6 5 4 3 3 2 3 4 5 5 7 8 7 5 3 3 3 3 3
91 69 92 97 98 96 96 96 98 73 82 62 47 42 43 39 43 59 45 28 32 27 20 18 14 13 10 9 8 7 6 5 4 5 4 3 3 4 6 16 17 16 10 6 4 4 4 4 4
93 90 97 100 93 98 95 97 95 82 83 67 51 40 38 33 28 34 40 31 27 18 18 15 14 11 9 8 7 6 6 7 8 6 6 6 7 9 9 12 20 21 22 18 8 5 5 4 4
90 100 98 98 82 97 98 98 97 85 89 75 54 39 34 30 27 24 22 21 25 21 16 14 12 10 10 9 8 8 9 10 11 9 10 14 16 10 8 7 7 8 10 26 35 26 12 10 10
65 88 99 93 86 84 92 96 98 90 95 87 61 43 33 30 28 25 22 21 21 19 17 15 12 10 10 9 9 9 10 10 10 9 10 11 10 7 7 7 7 9 9 10 27 33 27 34 20
83 71 93 88 91 83 51 87 94 97 83 95 74 51 36 34 29 28 24 22 20 20 22 22 19 16 12 11 10 10 9 10 10 8 8 7 7 9 8 8 10 10 11 14 12 11 32 37 48
83 80 73 78 82 89 81 71 89 96 83 81 86 57 44 37 35 31 29 25 21 18 17 16 16 14 15 15 12 11 11 10 9 8 8 8 8 7 10 10 12 13 14 13 15 13 10 14 32
65 92 83 68 73 85 98 82 100 95 87 77 80 64 49 43 38 34 30 28 23 20 17 17 20 18 20 32 26 22 14 13 10 10 10 12 10 14 15 16 19 22 20 17 20 26 20 15 14
28 47 76 85 61 67 91 94 97 93 92 83 78 66 50 44 41 37 32 26 25 23 20 17 16 18 18 15 16 16 26 28 31 31 23 22 13 18 20 22 26 24 23 26 28 28 27 26 18
39 62 71 92 85 60 81 97 97 96 91 89 83 76 57 44 41 36 32 30 27 25 22 20 17 16 16 19 18 16 15 28 47 25 23 22 23 23 35 26 21 22 28 27 30 36 41 34 19
31 46 49 82 82 70 61 81 94 96 88 87 93 91 72 53 42 36 33 30 27 25 24 22 21 20 19 16 14 14 18 15 13 12 12 10 8 13 16 19 21 31 38 50 40 50 54 64 45
40 46 58 67 68 75 55 60 83 82 92 91 80 87 84 72 52 44 39 40 37 32 30 28 24 22 20 18 18 16 13 12 12 12 13 12 10 9 8 9 10 15 28 32 55 36 25 33 48
31 56 93 52 47 66 55 47 55 83 90 99 96 83 77 71 66 61 58 56 52 38 30 26 22 20 18 16 12 9 8 8 9 10 11 11 11 11 9 8 7 6 7 17 30 42 51 47 53
47 86 95 69 83 75 56 48 50 77 72 75 88 93 69 61 57 54 51 46 40 40 36 20 13 9 8 7 6 7 7 7 7 9 10 11 10 9 8 8 8 10 14 22 24 26 32 47 44
61 82 90 77 93 77 55 47 48 60 63 84 82 76 75 70 63 47 34 20 15 14 13 12 12 12 11 11 10 10 10 10 10 10 9 9 8 9 10 12 12 12 12 11 12 14 16 18 22
70 98 88 100 98 58 57 47 42 66 58 60 67 87 67 71 37 20 18 18 17 30 33 27 23 17 12 10 10 10 10 11 10 9 8 9 10 13 15 13 9 10 13 14 17 18 19 16 14
100 89 96 80 73 63 54 44 46 62 54 54 43 33 61 49 36 29 25 20 21 30 30 19 13 11 12 12 11 11 11 10 9 10 11 13 15 16 10 9 10 12 11 8 9 9 12 14 15
100 95 84 100 92 80 50 42 41 55 57 60 60 35 36 44 42 40 35 32 25 20 18 17 14 12 11 10 10 10 10 10 11 13 15 17 11 9 9 9 8 8 7 8 9 13 16 17 17
100 99 100 100 100 89 58 42 40 44 49 43 60 79 64 47 41 38 38 33 21 18 15 14 13 12 11 11 12 11 11 12 14 15 12 10 11 10 8 6 6 4 7 8 15 14 12 17 17
89 87 97 100 98 99 73 50 42 41 45 43 40 42 40 51 43 30 25 23 20 18 18 16 14 13 13 12 12 11 13 15 12 10 11 9 9 6 5 4 4 6 8 11 17 14 12 13 20
91 97 94 100 99 98 84 70 70 61 56 53 51 49 48 45 42 40 38 38 33 34 30 22 18 17 14 13 13 15 16 11 11 10 9 10 6 5 5 6 7 8 10 13 17 15 15 15 14

GFSSGP_500_rhum_072.txt.gz
RH
94 58 41 33 25 15 13 12 12 12 14 24 31 26 22 17 12 14 15 9 10 9 12 6 6 10 11 13 13 14 15 14 14 14 15 15 15 14 14 13 13 13 13 13 13 12 10 8 7
96 68 47 36 29 19 17 15 13 11 10 12 17 15 13 16 11 10 9 10 7 8 6 8 11 14 17 18 19 18 17 17 16 16 15 14 13 13 13 13 12 10 7 4 3 3 2 2 2
96 92 55 39 32 24 23 16 15 11 11 10 11 11 11 11 14 8 10 13 9 9 10 12 14 18 21 22 20 18 17 16 15 14 14 13 12 10 7 4 3 3 2 2 2 2 2 2 2
96 96 72 46 33 31 26 18 18 16 14 15 12 10 10 10 9 8 10 12 17 15 14 15 17 21 23 23 20 17 16 15 15 14 11 8 5 4 4 3 2 2 2 2 3 4 4 3 2
96 95 92 53 40 41 29 24 18 17 17 17 15 12 11 11 10 10 14 16 18 19 18 19 20 23 25 22 18 16 15 14 12 9 7 5 4 4 2 2 2 2 3 3 5 7 5 3 2
93 96 90 74 53 52 42 37 24 20 20 18 17 16 14 13 13 13 17 18 18 20 20 22 25 27 26 22 17 15 14 12 10 7 6 5 4 3 2 3 2 2 3 4 6 7 5 3 2
77 95 70 98 85 79 66 55 38 24 24 23 18 18 17 14 16 16 19 22 22 23 23 26 28 29 27 21 17 14 12 11 9 7 6 5 4 3 2 2 2 2 2 4 6 6 4 3 2
96 95 91 99 97 99 81 51 38 33 25 26 21 19 23 18 21 24 29 27 31 30 32 35 33 30 24 19 16 14 11 9 7 6 5 5 3 3 3 2 2 3 3 4 5 4 3 2 2
95 97 97 92 95 91 78 62 54 42 27 32 25 24 25 24 32 35 39 43 41 37 38 37 36 31 22 18 15 13 10 7 6 5 4 4 3 3 3 3 4 5 6 7 6 5 3 3 2
84 92 84 95 100 96 89 80 83 57 37 38 34 32 32 28 32 49 43 43 46 47 46 43 40 30 21 16 14 11 8 6 6 5 4 4 4 3 3 4 7 12 15 15 13 8 5 3 3
87 81 95 100 97 96 98 96 88 79 49 51 52 38 42 50 54 60 66 66 53 52 48 42 32 24 18 14 13 10 8 7 6 6 6 6 6 6 6 7 9 12 17 18 17 17 15 8 4
93 95 97 98 97 97 97 98 88 82 65 55 62 53 51 53 63 65 68 73 79 57 43 38 27 21 17 14 12 9 8 7 7 9 10 10 9 12 14 12 8 7 6 5 5 8 16 22 18
96 96 99 98 95 95 96 97 97 93 84 68 61 60 50 52 56 60 66 64 69 57 42 32 22 20 16 14 10 9 8 8 9 10 11 10 9 8 8 6 5 5 5 5 7 8 10 26 30
60 98 96 88 91 97 94 97 96 97 82 80 73 71 58 53 52 46 46 57 58 56 40 28 20 17 15 12 11 10 10 9 10 10 10 9 8 7 6 6 7 7 8 8 10 10 12 12 11
95 90 94 98 99 94 97 97 98 96 92 99 93 87 61 51 48 41 35 30 32 41 30 23 19 16 14 13 12 11 10 10 10 10 10 9 8 8 8 7 7 9 10 10 10 12 13 13 14
97 99 89 98 95 93 94 97 98 99 99 99 97 96 73 48 39 35 32 30 28 26 21 21 21 22 23 20 17 14 12 13 12 11 10 10 9 9 10 9 11 14 15 16 19 21 19 17 20
53 94 79 96 96 100 89 97 99 92 91 96 97 89 85 56 43 35 31 29 26 26 22 20 19 18 17 21 27 24 24 25 24 20 18 19 18 22 20 19 15 17 19 24 23 22 22 26 29
18 41 72 62 94 94 95 98 98 89 69 85 96 86 85 72 51 42 34 30 27 26 24 22 21 18 17 16 20 17 14 16 18 20 29 28 37 38 21 24 23 22 29 22 22 23 25 34 36
17 42 68 81 75 88 96 100 96 94 78 78 92 92 84 84 67 46 40 34 30 28 27 25 23 22 19 16 15 14 14 15 18 26 34 40 36 50 38 39 18 15 13 17 33 37 38 44 54
16 22 41 57 73 81 80 95 99 90 90 90 94 92 87 86 81 60 44 42 39 35 31 28 24 22 21 21 19 17 17 16 15 14 20 18 26 30 24 12 9 9 9 10 18 13 37 52 65
15 14 23 47 53 56 78 74 82 67 71 80 84 92 84 74 74 71 52 42 39 37 34 31 28 25 22 20 20 21 21 19 18 18 16 13 10 8 7 7 8 9 10 9 8 7 14 39 50
26 19 25 36 37 36 56 52 64 72 59 89 78 75 85 82 72 73 66 47 40 36 33 30 28 28 30 29 32 33 27 20 17 14 11 13 12 10 9 8 9 9 9 8 8 9 26 43 44
42 32 32 36 36 31 29 39 43 57 60 64 84 70 75 79 76 70 74 61 46 41 38 38 42 42 38 34 26 22 16 11 8 7 7 8 9 9 10 10 10 8 7 8 12 15 13 11 12
55 40 34 34 26 24 40 40 27 50 46 56 78 90 71 62 70 76 73 73 70 65 64 62 64 64 60 50 32 14 17 10 12 15 11 10 10 11 11 10 9 9 11 14 16 11 9 10 11
52 46 43 49 35 18 39 62 24 48 44 47 79 83 84 76 66 70 74 71 68 61 58 54 31 19 19 14 12 15 18 17 16 13 11 10 9 10 9 10 11 14 13 11 10 10 9 6 4
48 47 45 54 42 56 65 32 31 46 42 51 76 77 80 76 84 84 73 70 57 31 23 18 17 19 26 25 24 18 14 12 11 10 9 9 9 9 10 13 15 11 11 11 10 8 6 5 7
36 34 67 62 67 68 57 46 37 46 43 49 71 65 65 82 95 81 67 58 25 20 19 18 24 31 29 22 15 13 12 11 11 10 10 10 10 11 13 16 11 10 10 9 6 4 5 8 11
33 93 92 69 70 63 56 55 46 45 45 50 68 56 55 52 39 69 57 36 32 32 32 29 26 25 21 18 16 13 12 11 11 11 11 11 12 15 15 10 9 8 6 5 4 6 8 9 13
49 84 87 92 85 83 68 66 61 49 44 44 74 96 95 93 50 47 52 52 47 41 42 41 40 34 23 16 14 12 12 12 12 11 11 13 15 12 10 8 8 5 4 4 5 8 12 13 12
78 83 94 97 87 71 81 70 71 61 46 43 51 91 83 88 86 64 62 51 40 33 33 35 21 18 18 19 16 14 14 13 12 13 15 13 13 12 10 10 6 5 6 5 8 13 16 18 19

GFSSGP_500_rhum_075.txt.gz
RH
44 72 92 52 39 22 16 14 14 30 57 79 79 68 37 28 25 19 18 16 13 13 17 21 11 5 7 7 10 11 11 12 14 15 16 15 15 14 13 13 13 13 12 11 7 4 2 2 2
56 73 77 68 41 29 19 17 14 16 38 64 66 61 42 28 18 21 19 22 16 11 11 14 7 7 12 15 17 18 18 17 17 16 15 14 14 13 12 10 8 6 3 2 2 2 2 2 2
86 91 82 92 45 34 28 21 17 15 17 39 52 48 38 35 25 16 15 14 12 8 9 7 9 12 15 18 21 20 18 16 16 15 14 14 12 9 6 4 3 2 2 2 2 2 3 4 4
97 90 95 95 52 41 37 26 20 16 14 15 25 34 30 27 21 11 9 9 13 7 8 10 13 16 20 22 21 19 17 16 15 14 13 10 7 4 4 3 2 2 2 2 2 4 5 5 4
83 100 98 73 75 46 40 33 24 18 14 13 12 14 18 18 13 10 8 9 11 12 12 13 16 19 24 26 22 19 17 15 15 13 10 7 5 4 4 2 2 2 2 2 2 4 5 5 4
48 93 87 58 86 55 45 36 28 22 17 14 12 11 12 12 12 10 10 11 12 15 17 16 19 23 26 27 23 18 16 16 14 11 8 6 5 4 3 2 2 2 2 2 3 3 4 4 3
52 50 79 70 91 79 54 42 33 24 18 17 12 12 12 15 12 11 12 13 14 16 18 20 21 25 29 28 23 18 15 14 13 10 8 6 5 4 3 2 2 2 2 3 3 4 4 4 3
51 38 66 94 100 97 69 48 38 29 20 18 14 12 13 16 14 12 13 13 16 18 19 20 23 28 30 28 23 18 15 13 11 8 7 6 5 4 3 2 2 3 4 5 5 6 6 5 3
56 47 49 82 99 94 80 61 46 31 23 16 16 14 16 17 17 17 17 21 21 22 22 24 29 33 33 30 22 18 16 13 9 6 6 5 4 3 3 3 3 4 5 8 11 13 13 11 7
95 69 33 66 98 98 82 75 56 38 25 20 23 16 17 19 19 20 24 28 34 32 31 32 35 38 37 33 23 18 16 13 9 6 5 5 5 5 5 4 5 7 8 9 10 10 9 10 12
39 66 59 83 96 96 97 85 65 46 31 30 37 23 23 22 27 24 31 32 36 46 45 39 41 42 40 34 23 18 14 11 9 7 6 7 8 8 9 11 13 12 9 6 6 5 5 5 6
39 82 100 99 96 95 98 96 77 57 45 32 36 34 27 27 35 38 42 56 49 52 50 52 48 44 39 31 23 17 13 10 8 7 7 9 10 9 8 7 7 6 5 4 4 4 5 6 7
43 80 99 98 96 96 98 96 94 72 63 45 40 49 41 34 41 49 54 55 72 70 74 66 54 43 38 29 22 16 13 10 9 8 8 9 9 9 8 8 7 6 6 6 7 8 9 10 11
57 81 84 90 98 96 97 98 95 94 76 58 49 49 46 47 44 56 67 72 66 64 65 73 55 43 35 24 19 16 14 11 9 9 9 10 9 9 9 8 8 7 8 7 8 8 9 9 10
69 70 96 98 98 97 98 95 97 96 94 76 73 67 55 42 52 52 65 69 63 65 64 64 62 46 30 21 18 16 14 11 10 10 10 10 10 10 10 9 9 10 11 12 16 17 17 19 23
85 77 83 84 97 97 97 97 100 98 99 92 93 90 80 62 55 58 56 60 61 70 67 60 56 47 32 23 18 16 14 13 13 12 12 12 12 12 13 13 15 19 20 18 16 22 27 26 20
62 67 72 91 94 97 93 98 98 97 98 98 97 100 96 87 70 62 54 49 47 47 45 46 50 38 25 21 20 23 22 19 16 16 21 24 23 20 25 26 33 31 23 29 24 26 24 21 28
34 48 74 94 93 91 89 98 98 98 97 98 100 99 98 97 78 66 54 47 40 34 30 28 28 24 22 22 23 25 25 35 32 22 18 17 18 21 34 39 45 52 42 37 21 13 12 11 16
31 54 77 90 92 97 98 98 96 97 97 98 95 96 97 97 94 74 62 54 42 34 31 29 28 32 37 31 25 25 19 26 20 15 15 18 32 32 37 44 39 42 35 23 9 8 8 9 10
26 33 46 67 98 97 98 97 95 95 91 94 94 88 90 95 95 91 71 54 46 37 32 31 29 27 25 23 22 20 18 17 17 18 18 18 19 26 32 42 24 12 11 8 9 8 9 9 8
14 18 38 54 58 76 93 96 88 88 80 68 67 63 67 67 77 88 90 72 53 45 38 32 31 29 28 26 24 22 21 20 18 18 20 22 24 23 19 13 9 8 7 8 9 9 9 8 8
14 14 17 24 45 51 61 57 71 74 91 83 59 57 74 72 72 79 82 85 80 54 45 40 36 32 30 28 26 25 24 22 22 25 27 28 27 19 12 8 7 8 8 9 9 9 8 9 12
22 16 16 18 17 27 28 38 44 55 50 64 66 63 64 81 70 78 81 81 82 79 60 43 40 37 34 32 29 27 25 26 32 37 31 19 12 9 7 9 10 10 10 9 9 8 10 13 15
44 26 18 16 21 20 26 22 19 34 41 46 55 66 81 74 74 69 73 85 84 80 63 61 54 42 36 33 32 34 35 39 43 38 18 14 9 10 13 12 12 11 10 9 8 10 13 16 10
72 47 31 26 20 17 26 22 11 19 28 35 42 55 71 75 68 66 68 79 86 86 83 65 51 48 42 41 48 52 59 61 55 33 14 14 21 16 13 12 12 10 9 9 10 13 16 9 8
69 55 40 31 26 24 29 17 11 20 32 31 40 50 55 70 67 65 68 73 80 82 84 79 73 69 66 68 68 47 25 18 14 17 21 19 16 14 12 10 10 10 10 12 15 12 10 9 6
51 45 42 39 32 31 21 16 20 21 32 45 50 51 51 53 80 81 77 69 67 76 76 74 70 64 60 56 34 17 19 24 22 20 17 15 13 12 10 10 10 11 14 14 11 10 8 5 4
44 52 46 33 28 28 27 40 40 43 54 35 47 48 50 73 86 99 99 93 78 72 74 72 49 29 23 19 18 28 34 30 25 19 16 15 12 11 10 11 11 14 14 11 9 9 5 5 5
48 44 40 41 40 43 39 38 53 65 60 53 52 48 50 76 96 90 86 90 87 91 78 66 37 22 20 19 20 23 25 26 25 24 20 15 11 11 11 12 14 14 11 10 10 5 5 6 7
74 62 46 34 39 48 44 39 72 75 74 60 50 48 50 87 88 87 71 46 50 74 50 33 30 32 33 36 40 41 41 30 17 14 13 12 12 12 13 14 14 13 11 11 6 6 7 7 11

GFSSGP_500_rhum_078.txt.gz
RH
10 13 43 94 70 38 19 16 15 43 80 99 90 76 67 58 45 38 31 38 31 25 18 21 23 13 6 6 6 7 9 10 11 12 15 16 15 14 14 13 12 10 8 4 2 2 2 1 1
8 10 21 74 86 53 27 20 18 23 54 88 81 83 70 55 42 40 33 26 26 20 16 16 22 11 7 10 10 13 16 17 17 16 15 15 14 13 11 9 6 3 2 2 1 1 2 2 3
7 6 21 36 76 77 40 27 20 17 22 68 75 72 77 56 42 37 34 28 24 19 14 12 14 9 9 15 17 19 19 18 16 15 15 14 12 9 7 4 3 2 1 1 2 2 2 3 4
6 6 11 30 27 80 53 37 25 20 17 38 63 68 64 61 44 36 31 23 21 16 11 11 9 9 12 17 21 21 18 17 16 15 14 12 10 6 4 3 3 2 2 2 2 2 2 4 4
7 8 15 13 24 54 76 46 31 23 18 16 37 53 61 50 43 34 30 21 12 12 8 9 10 12 16 22 22 22 18 16 15 15 13 10 7 5 4 3 3 2 2 2 2 2 3 3 4
12 9 8 6 18 67 92 54 43 26 21 16 16 35 48 50 37 30 20 14 11 10 11 12 13 15 20 26 26 22 20 17 16 14 12 9 6 5 4 3 2 2 2 2 2 3 3 4 4
16 79 12 6 38 93 95 78 47 34 26 19 14 15 26 36 27 19 15 10 10 10 13 16 17 18 22 28 28 23 20 17 17 15 12 9 6 5 4 3 3 2 2 3 3 4 6 7 7
11 19 13 23 44 96 96 94 50 42 28 21 16 13 14 17 16 13 10 10 10 11 14 17 20 20 23 28 29 24 19 17 16 14 10 7 6 5 4 3 3 2 2 3 5 8 11 12 11
22 13 13 23 68 94 95 94 61 47 34 25 19 16 15 13 14 14 13 12 12 13 17 19 20 21 25 30 30 25 20 17 14 12 8 6 5 5 4 5 4 4 6 7 8 9 7 6 5
56 20 22 35 74 98 94 95 87 52 41 30 22 23 18 14 14 15 16 14 15 16 20 22 24 28 30 33 33 28 22 18 16 12 8 6 5 5 6 7 8 9 10 9 7 5 4 4 4
41 27 32 50 52 84 94 93 90 62 48 35 25 25 30 22 17 18 16 15 16 20 22 26 29 33 35 36 35 32 25 20 16 12 9 7 6 7 8 9 8 7 7 5 5 5 5 5 6
20 37 58 71 62 61 92 96 75 70 56 41 29 30 37 28 29 35 28 26 20 24 28 32 40 42 38 40 39 34 26 19 15 12 9 8 8 8 8 8 8 8 7 7 6 6 7 8 8
22 25 63 89 81 56 65 97 78 69 61 47 36 30 40 59 55 47 48 46 31 31 36 49 50 51 49 44 41 36 26 20 15 13 10 8 8 9 8 9 9 9 8 8 8 8 9 11 12
23 23 36 100 95 98 58 95 95 77 62 56 42 40 35 68 71 56 58 52 56 46 52 48 50 48 51 51 44 36 27 21 17 14 11 9 9 9 9 9 10 10 9 10 13 16 17 16 17
18 36 40 50 78 98 93 87 96 99 70 65 57 50 46 52 83 70 60 58 56 61 55 70 64 66 68 58 46 37 28 21 18 14 11 10 10 10 10 10 11 13 15 18 22 21 19 21 22
61 38 42 56 80 100 100 92 99 97 87 74 63 62 53 57 73 74 61 64 71 70 72 69 66 68 71 64 51 37 26 20 17 14 12 11 12 12 14 16 19 18 21 28 33 38 36 33 24
40 25 31 33 66 94 97 100 93 98 97 76 68 70 72 68 78 78 93 61 67 85 86 81 75 72 68 64 56 44 32 22 18 16 18 18 15 18 25 22 17 22 31 38 44 48 38 37 25
12 18 43 48 48 87 98 98 97 97 98 97 83 88 90 89 80 82 66 67 73 80 82 78 84 80 73 63 56 45 32 26 22 28 28 30 30 23 14 15 20 27 35 43 40 42 41 25 9
20 36 76 69 68 86 92 94 97 96 97 97 94 93 95 98 95 87 68 60 62 62 68 66 71 62 52 47 43 35 29 22 23 26 24 26 28 16 16 22 34 30 32 37 43 26 17 8 7
25 36 71 91 84 79 79 87 90 93 99 96 97 98 92 92 82 87 86 68 64 59 52 45 38 32 30 28 29 30 31 26 26 26 25 32 32 28 34 31 33 34 28 19 14 9 8 8 9
23 35 66 92 94 89 77 87 82 90 98 96 98 97 92 93 87 90 89 88 75 67 56 49 42 33 31 31 31 34 37 34 27 22 20 19 19 18 18 21 26 29 25 14 8 8 8 10 10
16 25 40 53 68 77 70 60 82 98 94 92 95 95 100 100 97 95 95 96 90 76 68 56 43 37 35 33 30 29 27 26 25 24 23 22 21 20 22 29 35 29 15 7 8 10 11 10 10
16 15 16 24 29 28 34 40 56 67 89 81 95 95 97 98 84 75 72 76 85 94 97 85 69 60 42 35 32 31 29 28 27 26 25 24 24 26 30 34 22 10 8 14 13 13 12 10 9
33 20 14 15 21 20 33 30 30 40 40 48 84 95 96 94 83 70 70 70 68 70 78 88 91 84 64 54 48 43 36 33 31 30 28 27 29 34 39 44 17 17 18 18 18 15 10 9 10
41 24 17 15 13 11 11 13 13 20 33 46 52 55 80 82 82 62 62 78 71 74 73 72 79 85 85 77 67 50 42 38 35 33 32 34 42 51 52 24 14 19 18 18 13 10 10 10 13
55 43 33 22 16 13 14 13 12 19 29 33 42 43 46 55 63 64 66 68 76 69 64 67 72 78 82 71 66 64 55 50 42 46 52 61 56 32 15 19 19 16 15 12 10 10 10 13 15
85 80 67 51 34 22 18 17 18 19 22 21 25 21 22 32 47 66 68 81 78 71 68 69 73 74 76 80 80 71 59 62 64 67 50 16 16 20 21 23 17 14 12 11 11 11 13 14 10
81 79 74 62 46 30 22 19 20 24 34 25 23 26 28 35 30 52 67 79 83 80 73 73 78 85 83 81 77 74 72 66 61 49 19 27 29 27 22 19 16 14 11 11 11 13 14 10 10
74 60 56 54 44 33 24 22 22 38 53 42 37 27 28 34 52 54 57 60 76 82 77 76 74 79 83 78 74 68 56 40 30 21 24 27 26 29 32 28 19 13 12 12 13 14 13 11 8
64 68 63 51 38 35 29 17 35 48 68 68 47 38 37 50 43 52 54 66 84 95 96 93 83 79 78 78 73 38 22 20 19 19 25 35 36 38 23 14 13 13 13 14 14 15 13 9 8

GFSSGP_500_rhum_081.txt.gz
RH
34 58 87 96 73 50 26 20 26 35 69 86 90 71 65 61 58 59 54 55 53 49 35 25 24 24 13 9 9 8 6 7 8 12 14 14 14 14 13 11 9 6 3 2 2 1 1 1 2
17 46 67 90 85 74 42 22 22 26 48 82 88 74 69 64 59 53 48 44 43 40 30 20 19 23 13 6 7 8 11 14 16 17 16 15 14 12 9 6 4 3 2 1 1 2 2 2 2
13 28 51 52 75 79 67 36 21 21 35 81 81 70 65 67 66 58 52 42 36 31 26 18 15 21 12 7 11 15 18 18 17 16 15 14 12 9 6 4 3 2 2 1 2 2 2 2 3
13 16 25 31 24 55 81 56 29 20 23 57 72 64 57 62 72 68 54 47 39 28 23 17 12 13 10 11 16 20 20 18 17 16 15 13 11 8 5 4 3 2 2 1 2 2 2 2 2
10 10 13 13 14 25 69 80 43 24 20 26 68 52 62 62 66 70 59 50 36 26 24 14 11 10 9 12 18 22 20 18 16 16 15 12 9 6 4 4 3 2 2 2 2 2 2 3 4
14 10 10 11 12 18 34 85 72 33 23 21 42 52 47 59 58 61 57 46 34 23 17 13 10 10 13 16 18 23 22 19 17 16 14 12 9 6 5 4 3 2 2 2 2 2 3 4 6
40 15 11 12 10 24 43 67 89 50 27 24 23 40 48 49 59 56 47 41 30 21 13 13 12 14 18 21 22 23 24 21 18 17 15 13 9 6 5 4 4 3 3 3 3 4 6 7 7
75 23 12 15 9 14 60 68 86 86 38 28 25 23 31 38 44 50 48 36 26 14 12 12 18 19 21 25 28 27 24 21 18 17 15 13 10 6 5 5 5 5 5 6 7 8 7 6 4
70 93 49 13 10 13 30 64 91 91 59 35 29 22 19 22 36 37 41 33 20 13 12 12 18 21 22 26 30 30 26 22 18 16 14 11 8 6 6 5 6 6 8 8 8 6 4 4 4
75 65 41 19 14 20 30 70 88 96 76 48 33 27 20 17 20 24 27 22 16 16 14 13 19 20 23 27 33 31 28 23 19 17 14 11 8 6 6 7 8 8 8 7 6 6 6 6 6
68 48 20 29 34 25 28 66 94 100 80 72 39 28 26 20 26 19 22 16 14 17 16 14 19 22 24 29 36 34 31 27 22 19 16 13 10 7 7 8 8 8 8 8 7 7 7 7 7
49 46 25 13 21 26 30 57 85 99 88 75 47 36 30 29 29 39 43 28 16 17 16 17 20 24 26 30 35 36 36 33 25 20 16 14 11 9 8 8 8 8 9 9 9 8 8 11 13
41 53 29 26 16 28 51 60 93 100 93 76 63 42 36 29 40 71 60 49 25 17 18 21 24 25 26 34 38 40 41 36 29 23 18 15 12 11 9 9 9 9 9 10 10 12 16 18 18
33 39 43 45 47 34 51 50 93 100 76 81 63 54 40 34 45 68 74 64 47 38 25 22 26 32 38 43 44 46 45 40 33 26 20 16 14 12 11 10 9 10 10 12 16 18 20 23 26
19 29 28 33 50 53 59 43 65 89 92 90 66 61 43 40 36 59 72 72 71 63 57 36 35 39 47 45 43 47 50 45 36 28 21 18 16 14 11 10 11 12 14 20 18 22 26 31 38
29 17 17 24 39 57 65 41 55 76 95 85 88 66 51 53 48 42 74 95 94 88 56 45 50 51 49 52 58 64 57 48 38 29 22 19 17 14 13 15 15 15 24 18 17 24 30 35 34
93 25 11 19 25 81 81 74 77 62 100 78 81 77 62 45 52 43 50 92 97 95 68 56 52 57 72 76 70 69 63 54 46 37 28 22 18 17 20 20 22 26 16 14 22 30 31 32 33
38 18 13 13 24 38 72 65 99 64 83 97 66 72 69 66 56 54 51 66 90 95 91 63 70 74 83 79 73 71 66 61 52 44 33 25 21 27 28 31 30 22 14 21 26 27 29 26 25
36 22 20 27 35 36 52 78 91 92 92 100 79 67 73 81 87 72 69 71 82 92 95 76 82 92 91 86 80 77 72 63 56 46 40 35 25 29 32 34 41 38 36 33 28 25 27 24 18
22 22 26 30 36 39 45 55 75 98 100 97 95 84 82 96 92 93 94 76 74 92 93 85 83 86 89 83 80 79 72 64 57 45 33 26 23 35 44 44 41 36 30 26 22 28 31 21 12
18 26 37 30 28 43 42 44 55 95 96 96 99 79 89 93 93 97 97 97 93 89 78 70 70 76 76 71 72 69 51 39 33 31 32 37 37 31 23 20 20 19 19 22 29 35 30 13 8
17 25 29 31 29 44 42 43 52 54 72 76 97 100 98 100 100 100 98 97 98 96 92 76 69 65 62 59 51 45 41 36 34 33 36 35 29 25 24 23 22 22 22 28 32 32 11 8 14
15 17 22 26 32 48 60 48 55 54 56 65 76 96 98 96 88 98 100 98 97 96 96 97 94 67 52 45 40 38 36 33 32 31 30 28 27 26 26 26 26 26 29 31 43 44 17 20 20
24 16 16 18 25 30 52 47 41 51 63 85 91 94 94 97 89 96 100 96 96 99 99 96 96 96 93 78 61 50 46 42 39 35 33 31 30 30 30 29 30 29 34 41 51 30 17 19 15
52 20 14 14 14 12 19 23 21 40 40 67 95 97 99 98 99 97 97 100 100 97 97 96 94 92 89 88 87 88 88 84 75 63 51 49 43 38 35 33 34 37 47 54 22 18 18 19 15
74 44 23 16 14 12 12 13 16 35 46 44 59 92 89 82 93 98 98 99 93 81 77 73 69 70 70 72 77 80 82 83 82 76 66 53 45 41 41 47 53 58 34 16 20 21 19 18 11
69 65 46 32 24 16 13 12 13 18 35 34 34 30 43 58 62 66 92 97 91 76 68 73 75 67 63 68 70 71 74 78 79 73 69 68 56 52 53 63 37 16 20 22 22 20 19 13 11
83 80 63 54 43 32 29 23 20 19 22 30 26 24 22 18 22 34 47 60 80 63 61 64 64 68 70 65 63 62 63 67 72 76 76 74 69 67 64 45 20 28 26 26 29 23 15 12 12
87 87 84 77 61 51 43 40 32 33 30 28 34 41 31 22 17 20 21 22 40 63 68 64 68 73 71 69 66 65 68 68 72 74 73 71 64 56 40 25 26 26 35 34 21 14 13 13 14
81 76 75 68 54 49 47 40 39 31 38 41 60 51 38 33 32 26 21 27 29 28 53 71 72 78 84 80 73 71 73 80 81 75 65 51 34 26 20 21 30 38 30 24 19 17 15 14 15

GFSSGP_500_rhum_084.txt.gz
RH
21 58 94 90 60 47 26 22 32 48 73 84 81 69 67 67 68 69 72 72 63 54 52 42 30 27 21 13 14 11 8 7 6 8 11 14 14 14 13 10 7 4 3 2 1 1 1 2 2
15 40 93 96 81 59 39 22 27 36 47 81 84 78 68 67 66 66 73 68 61 51 49 35 24 23 22 11 7 7 8 8 12 14 15 15 14 13 10 6 4 3 2 1 1 1 2 2 2
14 27 90 99 94 72 52 37 23 27 50 82 93 86 78 65 64 64 65 60 52 47 41 31 22 17 22 12 8 10 12 15 17 17 15 15 13 10 7 5 4 3 2 2 1 2 2 2 2
12 21 59 95 79 82 69 53 29 25 34 68 90 84 82 77 70 68 62 59 57 47 31 27 21 14 17 14 10 14 17 18 18 16 15 14 12 8 5 4 3 3 2 2 2 2 2 2 3
10 16 28 54 71 88 78 67 43 26 24 46 81 75 85 82 78 80 69 64 64 56 35 24 18 14 11 12 12 18 20 19 17 16 15 14 10 7 5 4 4 3 2 2 2 2 2 3 4
20 11 14 18 50 58 90 81 64 38 24 26 63 72 82 86 80 81 77 70 66 52 38 28 18 14 11 11 15 21 22 20 18 17 16 14 11 8 6 4 4 3 3 3 3 4 6 6 6
46 15 9 13 33 66 69 85 83 78 33 24 28 64 69 74 82 78 71 72 69 49 42 25 18 12 12 14 17 23 24 22 20 18 17 14 12 8 5 5 4 4 4 5 6 7 7 6 5
49 42 16 14 14 44 44 63 84 85 71 30 24 26 40 61 71 78 72 64 65 50 41 26 16 15 14 18 22 25 25 24 21 19 18 16 14 10 7 5 5 6 6 7 7 6 6 5 6
72 68 48 11 13 31 52 44 64 80 88 53 30 22 25 48 64 72 68 58 51 44 34 21 15 20 19 21 26 29 29 26 22 20 18 16 15 12 9 7 6 7 8 7 7 7 8 7 7
64 71 42 16 11 18 37 54 56 63 84 95 44 28 21 23 42 67 73 63 50 42 32 18 15 18 23 22 25 32 32 28 23 19 17 16 15 12 10 8 7 8 8 8 8 8 8 8 8
74 54 52 37 16 14 30 49 55 52 57 85 92 40 25 24 24 42 62 69 52 42 27 19 15 16 21 22 25 30 34 32 26 21 18 17 15 12 10 8 8 8 8 8 9 9 9 9 11
73 97 94 62 23 17 25 30 30 39 36 48 90 79 37 30 29 24 29 43 40 34 24 16 16 15 19 22 25 29 34 36 34 27 22 19 16 13 11 9 9 9 8 9 9 10 11 14 17
66 87 80 80 83 60 24 20 22 25 29 35 52 86 68 42 43 36 28 37 36 30 16 13 14 14 18 22 24 32 35 39 40 34 26 21 18 15 13 11 10 9 9 9 10 11 16 18 21
26 70 86 99 100 63 37 42 39 22 20 33 39 62 82 65 45 47 31 36 47 36 30 14 16 15 17 22 25 30 36 40 43 40 33 27 21 18 17 15 12 10 10 10 12 18 19 18 22
19 64 78 96 73 53 76 73 22 20 22 39 68 66 75 65 75 39 42 43 40 62 65 27 17 17 21 23 26 31 40 44 45 42 39 32 27 22 19 17 13 11 12 14 16 24 18 16 24
40 35 78 100 69 33 19 26 26 14 25 30 68 93 77 66 71 42 36 39 42 70 81 64 38 20 22 25 31 41 45 46 50 49 45 39 32 24 20 17 15 15 18 18 26 22 15 20 28
70 37 44 71 76 59 23 22 18 24 25 24 53 88 90 78 70 70 41 35 47 67 72 75 69 52 31 31 36 42 47 50 56 58 49 43 36 28 23 20 19 21 25 30 28 21 16 24 24
89 42 26 31 49 44 38 35 44 25 25 33 70 90 92 74 78 78 68 38 36 51 73 96 94 90 55 42 45 47 54 65 71 65 59 53 46 38 31 24 23 28 29 30 32 32 35 34 24
93 92 20 17 21 24 30 44 51 40 36 36 44 75 80 89 85 84 94 58 44 45 71 91 95 96 91 68 63 63 76 74 69 70 66 62 53 45 38 35 26 26 38 42 42 36 24 21 22
94 71 56 37 20 18 22 23 64 48 28 28 48 50 61 73 75 82 95 74 57 50 66 82 96 95 96 90 70 70 78 79 73 70 67 64 60 54 44 31 25 29 37 24 20 20 20 20 26
82 57 51 34 34 32 15 16 20 36 35 43 62 55 84 92 78 76 95 96 77 67 70 71 69 96 96 97 94 82 80 82 77 74 71 67 57 44 35 32 38 37 28 23 22 22 21 23 29
71 30 29 29 25 28 30 20 21 28 42 58 99 94 70 99 99 84 97 97 96 93 85 78 73 66 78 88 96 94 77 82 82 72 69 58 44 37 34 36 34 28 26 25 24 25 24 28 33
62 44 20 18 21 17 18 18 25 31 41 57 74 98 93 84 86 87 96 97 96 96 97 97 93 92 86 92 85 75 79 83 75 67 57 45 41 39 36 32 30 28 28 28 28 28 30 34 41
64 47 24 18 17 14 18 18 18 30 71 78 74 90 77 97 94 99 90 94 90 92 99 98 97 96 95 97 93 82 72 66 60 53 46 40 38 35 33 32 34 34 33 34 33 32 34 40 55
77 55 17 18 17 14 19 22 16 56 67 71 98 86 70 78 92 94 83 88 97 100 98 97 98 97 97 96 94 94 88 71 60 51 44 40 41 45 59 80 74 52 44 39 37 39 53 52 18
70 55 31 18 13 13 17 15 15 21 47 48 56 82 82 94 98 99 100 98 97 99 94 91 86 92 87 89 94 98 97 95 94 78 75 82 87 87 76 60 52 48 45 42 47 56 42 17 20
91 68 48 27 16 14 14 12 12 14 26 40 43 55 67 70 80 97 93 98 100 98 99 99 100 99 98 90 85 82 77 77 76 75 74 75 77 78 76 72 71 70 64 55 62 49 20 24 24
83 85 72 58 35 27 20 18 19 14 14 26 29 36 40 54 64 67 92 96 98 99 99 96 96 96 89 82 77 73 73 75 75 74 75 74 75 75 76 75 73 70 68 66 54 24 24 29 35
99 80 68 63 55 49 44 36 34 36 31 26 23 25 26 26 33 39 44 55 75 95 95 98 97 96 86 72 68 76 76 74 70 71 72 73 72 71 73 75 74 71 60 47 24 23 32 35 29
87 81 74 72 61 59 61 53 58 62 51 34 32 32 25 26 23 19 18 18 19 25 35 46 62 92 92 80 74 70 71 72 71 69 68 68 70 75 77 74 65 47 30 23 23 37 35 34 28

GFSSGP_500_rhum_087.txt.gz
RH
41 83 96 94 84 52 36 36 40 48 83 89 85 79 72 91 83 71 62 61 64 58 52 47 37 30 24 18 16 14 11 8 8 6 8 12 14 14 13 11 8 4 3 2 1 1 1 2 2
28 77 96 91 87 72 43 35 28 52 76 99 93 83 78 88 71 65 71 82 73 66 55 51 40 29 26 21 11 11 9 6 7 9 13 15 14 13 10 8 5 3 2 2 1 2 2 2 2
24 59 96 94 87 86 57 48 31 32 50 99 98 88 88 72 71 67 64 73 73 64 52 49 38 25 22 21 10 8 8 9 12 14 16 15 14 12 9 6 4 3 2 2 2 2 2 2 2
24 50 89 84 80 77 84 65 45 27 44 80 96 93 87 80 73 69 67 66 72 60 50 42 35 24 16 20 12 8 12 14 16 17 16 15 13 11 8 4 4 3 2 2 2 2 2 2 4
20 31 73 69 79 94 88 60 45 29 31 72 99 95 91 83 76 72 70 67 65 61 52 37 28 20 16 14 14 12 16 18 18 17 16 15 13 10 7 5 4 4 3 3 2 3 4 6 7
19 25 32 42 83 100 84 72 53 36 27 44 100 85 97 95 90 81 73 70 70 66 57 45 27 20 15 11 13 14 18 20 19 17 16 16 14 11 7 5 4 4 4 4 5 6 7 7 6
32 16 22 20 86 85 50 79 80 60 34 35 44 89 94 100 100 99 90 83 77 72 65 53 34 22 15 12 11 15 19 21 20 18 17 17 15 12 7 5 5 5 5 6 7 7 7 7 7
26 41 16 37 100 65 64 89 83 74 81 32 36 51 60 90 100 100 97 94 84 78 74 54 38 23 16 12 11 15 22 22 22 20 18 17 16 14 9 7 6 6 7 7 8 8 9 9 8
34 59 35 39 100 81 53 88 95 84 77 82 30 26 51 72 90 87 95 86 79 74 73 58 44 28 15 12 12 15 22 24 24 22 20 18 17 16 12 10 8 8 8 8 8 9 10 10 11
40 62 71 31 100 93 31 96 98 97 91 90 52 28 29 55 71 81 93 92 86 71 62 65 48 33 17 14 14 19 23 29 27 24 21 19 18 17 14 12 9 8 8 9 9 9 10 10 13
93 61 83 97 57 93 55 82 86 97 95 94 94 42 28 26 40 75 94 92 97 82 62 54 50 36 18 13 16 19 26 33 31 26 22 19 18 16 14 12 10 9 9 9 9 9 10 11 15
97 69 98 92 98 30 37 40 94 89 74 83 89 91 50 29 29 44 73 86 82 84 81 54 41 33 20 12 16 20 23 33 36 33 27 22 19 17 14 12 11 10 9 9 9 10 10 12 18
98 63 92 93 84 94 25 28 72 77 54 57 77 88 89 48 40 34 41 59 73 70 67 55 37 25 14 12 16 20 23 30 38 41 38 31 24 19 17 15 13 12 10 10 10 11 12 16 20
100 100 94 93 98 82 42 20 29 51 41 42 35 61 75 86 65 47 50 39 39 47 43 47 47 30 16 14 17 18 21 26 38 44 43 38 32 26 22 18 16 14 12 11 11 12 14 20 22
80 100 98 86 98 96 71 19 13 35 27 29 21 25 44 55 89 74 49 53 32 30 38 36 35 31 21 16 14 18 20 25 34 42 46 44 40 34 29 24 19 16 15 13 13 16 18 27 20
48 77 84 98 100 85 64 30 15 20 18 15 12 11 20 37 44 86 69 52 54 40 33 41 38 34 29 18 15 15 20 25 32 43 46 46 44 42 36 27 21 19 18 15 18 21 30 28 21
61 89 96 99 96 90 85 66 45 29 16 14 11 12 14 16 45 50 81 71 67 52 43 35 58 62 61 25 18 21 21 26 32 43 45 46 46 51 43 32 28 24 20 18 24 29 30 33 41
94 75 75 93 87 74 97 72 67 26 14 16 17 14 14 13 16 46 53 68 66 66 45 69 51 79 83 71 38 39 56 33 34 42 44 43 57 59 50 47 42 36 28 25 26 28 40 44 35
100 89 62 58 79 84 89 71 65 41 56 36 16 14 17 16 19 29 79 69 67 79 40 42 44 69 89 95 79 63 59 56 45 36 41 53 67 68 64 61 54 48 42 38 24 26 38 25 21
87 95 55 36 34 71 89 67 50 27 24 23 15 18 17 15 19 18 66 88 84 92 73 42 42 63 83 82 92 92 83 58 47 50 56 68 72 72 70 67 62 58 48 33 29 38 32 24 23
97 100 95 59 37 42 42 44 56 38 18 15 19 18 16 18 14 35 74 84 95 94 95 72 48 50 47 62 82 90 97 91 74 65 56 73 77 74 77 75 69 55 39 32 36 33 29 27 26
97 100 91 92 50 31 22 21 27 33 38 36 30 25 24 19 20 31 62 79 84 93 94 95 76 69 66 73 90 98 98 94 93 94 78 83 87 83 80 75 66 44 38 36 33 31 29 29 29
93 92 98 97 84 50 34 30 16 15 19 20 28 49 47 45 48 35 37 70 87 95 95 96 92 76 68 66 76 77 97 96 90 96 94 78 76 80 76 67 55 45 43 39 35 33 42 36 37
97 96 84 52 40 81 37 28 27 20 16 19 23 20 28 35 62 82 65 54 83 93 92 95 96 90 86 85 80 74 72 79 82 90 88 80 76 80 69 59 50 45 42 38 40 52 73 50 38
95 94 73 50 34 40 31 22 18 18 23 29 28 19 23 32 59 74 86 59 88 100 96 96 97 96 95 94 94 95 91 93 95 96 95 90 83 74 65 57 50 46 42 48 62 83 59 43 41
74 82 64 47 55 43 29 22 15 23 30 35 26 26 19 52 53 63 82 66 56 84 91 96 95 90 98 94 95 96 95 97 97 96 92 92 94 92 76 64 57 59 60 80 82 61 55 56 60
79 65 65 55 50 40 29 19 15 20 16 30 28 27 46 66 90 84 72 62 60 92 98 99 97 98 95 96 97 97 96 92 97 99 98 98 98 98 94 86 81 86 89 82 78 76 70 68 63
96 100 91 73 49 27 26 17 15 15 13 15 21 35 39 51 77 99 97 95 97 96 92 94 96 97 96 96 96 95 94 92 90 89 92 91 91 92 92 90 84 78 73 72 75 76 74 73 62
99 98 97 99 76 55 97 64 22 21 17 14 13 16 25 41 44 49 64 84 87 97 99 98 98 98 98 96 97 97 96 97 90 81 77 75 75 75 75 73 71 69 67 66 68 72 70 57 34
98 99 100 99 93 81 63 65 50 53 38 31 26 20 17 21 23 33 42 48 58 68 94 96 97 97 98 98 97 98 98 94 91 81 79 83 80 78 73 70 66 65 68 74 75 71 51 29 22

GFSSGP_500_rhum_090.txt.gz
RH
90 99 96 94 83 45 37 60 98 98 96 78 79 88 77 95 74 64 49 48 58 59 54 49 40 33 24 20 17 14 11 9 9 8 7 7 12 14 13 11 8 5 3 2 1 1 2 2 2
75 100 98 96 92 67 38 62 72 93 74 97 89 92 78 75 86 60 50 52 57 63 60 53 47 38 29 24 16 15 12 9 7 7 8 11 14 14 12 8 6 4 3 2 1 2 1 2 2
68 100 100 96 92 81 61 53 52 58 41 94 95 98 90 83 94 64 64 65 66 66 64 54 50 41 30 25 19 10 10 8 8 10 12 15 14 13 11 8 5 3 2 2 2 2 2 2 3
55 92 94 91 72 67 87 76 58 39 43 85 99 97 91 94 85 88 68 64 67 71 66 52 49 40 27 22 22 10 8 10 12 15 16 15 14 13 10 6 4 3 3 2 2 3 3 5 6
46 90 93 87 71 79 99 94 62 41 68 73 96 86 97 94 98 95 73 68 64 71 64 51 42 39 26 17 19 15 9 12 15 16 16 16 15 13 10 6 4 4 3 3 4 5 7 7 7
50 68 56 58 73 90 96 79 55 48 54 68 92 71 98 94 95 84 74 71 66 66 67 54 39 31 22 18 13 15 12 15 17 18 17 16 16 14 10 6 5 4 5 5 6 7 7 7 8
58 50 41 31 61 100 80 57 73 69 48 59 91 48 95 93 96 88 74 69 67 66 64 59 46 34 23 16 12 12 13 16 19 19 18 18 17 15 11 7 6 5 6 7 7 8 9 9 10
52 58 50 42 94 98 85 55 51 74 90 62 73 51 83 97 97 90 84 73 78 74 70 68 58 46 31 18 13 10 11 17 21 21 20 19 17 16 14 9 7 7 8 8 8 9 10 10 11
56 60 54 44 99 82 80 59 51 80 88 83 56 38 85 99 99 99 97 88 94 85 80 79 70 56 40 24 14 11 10 15 23 23 22 19 18 17 16 12 10 9 8 9 9 10 10 10 12
69 65 45 55 78 98 87 60 78 82 92 94 69 44 54 87 94 99 98 98 96 93 82 82 81 66 48 32 17 10 10 15 22 25 24 22 19 18 17 15 13 11 10 10 10 10 10 11 13
97 52 57 73 76 95 90 71 76 92 96 92 87 53 49 69 78 98 97 95 96 99 85 74 78 77 55 40 24 11 9 14 21 26 27 24 21 19 18 16 14 12 11 10 10 11 11 11 12
96 69 78 99 70 84 77 67 54 78 84 90 93 91 56 42 65 87 94 88 82 85 72 64 76 73 64 45 30 14 10 14 21 27 30 28 24 21 19 17 15 13 12 11 11 11 11 12 14
100 91 86 97 85 97 94 79 48 59 45 83 78 89 89 56 40 62 84 92 76 82 65 97 78 60 64 54 36 19 11 16 21 29 32 33 32 28 23 20 16 15 13 13 12 12 12 13 16
93 98 91 98 88 74 99 97 43 35 36 84 84 83 94 92 64 38 39 66 76 77 65 53 56 62 54 51 39 23 13 16 20 26 34 39 38 36 31 26 22 18 17 16 15 14 13 15 18
99 98 98 98 99 96 66 79 50 42 44 67 78 81 88 93 90 88 44 41 42 66 63 64 60 51 42 43 44 31 28 17 19 23 28 38 40 40 38 36 31 25 22 19 17 15 15 18 24
98 100 97 96 97 94 99 93 79 56 32 33 70 64 78 80 60 71 74 66 49 47 54 66 57 62 48 28 30 30 22 18 18 22 24 33 37 38 43 44 42 36 28 21 19 18 17 24 30
87 86 97 99 98 100 99 99 88 83 21 36 44 55 48 52 54 33 37 54 70 66 62 58 50 48 47 40 33 34 25 20 17 22 23 28 34 38 46 50 50 47 34 28 28 28 25 26 27
78 97 99 95 99 97 97 85 77 78 28 14 20 32 30 22 23 28 34 38 41 69 76 61 58 57 48 38 51 49 50 26 20 17 19 23 24 34 45 44 55 55 50 50 45 40 38 32 26
68 61 89 78 94 98 100 98 93 83 39 13 12 14 18 16 12 10 12 15 38 45 53 75 74 69 67 63 59 82 77 59 35 30 31 22 26 41 46 44 65 68 66 64 58 56 50 32 33
83 76 61 100 93 99 73 90 92 83 48 31 11 12 15 14 12 12 13 13 12 26 58 60 68 72 72 66 62 69 93 88 65 57 63 60 50 45 45 52 71 74 73 74 70 65 45 35 37
75 98 100 84 96 81 82 84 70 77 59 43 26 14 15 14 15 13 13 15 13 11 18 68 75 90 75 69 46 78 87 96 95 92 87 79 83 71 64 64 75 75 76 81 78 65 45 41 37
78 98 88 92 77 61 65 71 72 65 65 64 44 30 25 25 20 14 13 15 14 14 12 33 85 86 88 86 66 87 77 87 94 96 96 97 96 95 88 72 79 86 85 81 71 61 50 47 40
84 77 100 95 84 76 57 48 50 49 38 40 44 37 37 35 24 32 13 12 18 14 15 42 63 97 90 96 97 75 76 69 73 86 91 97 96 96 97 90 81 72 72 76 71 60 51 46 43
77 88 87 96 100 78 68 50 37 35 29 26 36 32 27 17 17 38 18 14 13 18 16 23 75 78 87 92 84 97 83 68 66 85 92 97 96 81 95 82 82 78 70 73 66 57 51 48 44
90 100 100 99 95 64 82 70 47 37 28 18 19 25 32 31 25 33 25 16 14 15 28 35 61 81 92 97 95 94 97 72 62 78 73 84 87 79 86 87 91 91 93 89 85 82 63 54 65
94 100 99 100 93 76 58 64 57 43 34 31 26 20 15 16 17 17 18 15 15 17 41 68 62 71 97 99 90 84 96 93 84 78 78 91 94 96 96 97 96 96 95 94 89 75 73 74 77
79 81 100 99 91 73 60 46 40 35 30 23 20 19 18 16 15 15 17 15 12 33 60 75 74 52 84 91 87 94 90 92 87 89 95 96 96 97 93 91 98 96 95 96 95 90 93 99 88
84 100 94 84 86 68 59 53 53 42 24 20 19 19 23 30 26 19 15 17 23 53 82 69 71 65 79 88 93 96 89 98 98 98 95 97 97 93 94 97 99 98 95 94 90 84 78 75 71
100 94 100 97 94 84 71 67 49 34 18 15 14 15 19 23 24 20 30 64 67 95 94 66 74 98 76 94 100 97 98 98 94 96 96 96 93 93 94 93 86 79 77 76 72 71 70 66 69
100 100 100 99 91 100 100 76 88 57 24 20 18 14 14 16 17 19 30 48 53 60 97 96 100 98 96 100 98 98 92 95 91 96 97 95 95 94 93 86 78 79 84 81 79 74 70 66 66

GFSSGP_500_rhum_093.txt.gz
RH
100 98 95 95 96 69 50 55 96 97 95 79 77 59 96 76 63 65 65 54 51 49 46 44 41 36 26 19 16 14 11 9 9 8 8 7 9 12 13 12 8 5 3 2 1 2 2 2 2
100 97 99 96 93 75 56 68 90 96 78 82 81 63 80 96 82 72 56 52 50 50 48 48 46 39 32 24 19 16 14 10 8 8 7 10 12 14 13 10 7 4 3 2 2 2 2 2 3
100 100 100 93 83 72 54 69 95 70 96 98 78 79 94 97 86 77 55 51 48 52 54 53 50 44 36 28 22 14 13 11 7 8 11 14 15 14 12 8 5 3 3 2 2 2 2 4 6
85 97 96 86 71 73 51 80 100 56 73 96 80 75 90 96 86 86 73 54 50 52 56 58 53 48 39 29 24 17 10 10 9 11 14 15 15 14 11 7 4 4 3 2 3 4 6 7 7
58 90 94 75 61 77 83 84 75 57 83 90 95 85 87 97 94 88 80 68 63 72 66 65 55 49 42 27 22 20 10 9 11 14 16 16 15 14 11 7 5 4 3 4 5 6 8 7 9
62 86 94 72 52 86 95 83 67 50 97 89 71 95 98 87 96 96 89 80 68 68 74 68 53 42 42 29 18 19 14 11 14 16 17 17 16 15 12 8 5 4 5 5 6 7 8 9 10
67 71 71 64 70 99 85 87 65 59 64 64 53 71 92 96 97 97 86 81 73 68 66 72 61 43 33 25 19 14 15 14 16 18 18 17 17 16 14 9 6 5 6 6 8 8 9 10 11
65 72 77 81 99 97 67 75 80 84 54 60 42 68 81 95 96 91 97 93 79 72 67 65 62 54 39 29 19 13 11 13 15 19 20 19 18 17 15 11 7 7 8 8 8 9 10 10 12
82 86 74 77 100 85 72 67 75 65 83 64 46 54 90 99 96 86 80 92 81 73 67 66 64 60 53 42 30 16 11 10 13 16 21 21 20 18 16 14 10 9 9 9 10 10 10 11 12
99 91 92 78 100 98 78 72 72 67 80 91 66 60 90 82 95 82 80 89 86 77 76 76 74 69 66 58 43 25 12 10 11 16 22 22 22 20 18 17 14 12 10 10 10 10 11 11 12
98 96 96 98 100 100 81 77 86 69 71 94 87 62 74 97 97 71 86 86 90 84 87 88 82 77 76 69 54 34 18 10 11 14 21 25 24 22 20 19 18 16 14 12 11 11 11 12 13
94 99 97 98 98 90 96 79 79 79 75 78 89 82 78 84 78 95 96 100 99 94 98 86 85 79 75 76 66 45 27 14 11 15 21 26 27 25 22 21 20 18 16 14 13 13 12 12 12
87 97 98 99 96 90 95 92 72 60 70 74 83 85 89 72 77 78 68 74 91 93 85 88 73 71 70 70 67 58 38 20 13 14 20 29 32 31 28 26 23 20 16 15 15 15 15 14 13
98 99 97 98 95 96 87 82 91 55 46 62 79 73 84 93 60 68 91 86 73 76 86 74 71 61 64 83 65 65 53 37 18 18 19 24 32 34 35 36 30 25 21 19 18 18 16 15 15
100 98 99 95 96 87 91 80 87 64 45 44 71 87 92 81 88 81 46 74 88 81 83 86 81 76 94 91 64 60 54 43 30 19 18 22 27 37 38 39 40 37 33 30 26 22 20 20 19
92 98 98 95 97 98 92 74 99 82 58 48 46 69 92 93 68 87 90 48 42 65 77 79 73 62 74 74 66 50 40 43 40 33 22 19 22 27 36 38 42 42 41 42 38 30 25 27 27
57 80 92 94 96 96 92 97 76 98 77 61 48 41 64 90 94 88 76 94 73 53 48 41 56 80 76 82 70 58 44 30 31 26 21 24 20 22 27 32 39 44 48 48 48 38 37 41 39
54 85 96 98 99 91 94 89 98 99 57 59 38 33 46 64 74 79 82 62 62 74 53 57 64 60 63 69 54 48 44 37 35 31 22 24 24 23 24 26 35 42 48 54 60 53 57 54 54
66 98 100 98 99 97 97 94 90 89 74 56 62 33 26 37 79 71 78 67 62 53 67 54 51 64 77 73 63 62 62 54 36 58 47 29 22 19 20 24 29 40 49 49 69 70 70 69 66
79 90 100 99 98 100 97 97 97 98 86 81 67 60 29 22 39 47 62 54 42 52 48 43 41 43 48 55 69 76 70 66 61 68 75 79 66 53 47 46 46 41 49 49 69 77 74 75 74
73 79 93 98 99 97 94 91 85 92 68 68 63 53 26 17 17 28 44 31 26 16 13 15 17 28 48 51 46 50 68 76 89 84 93 97 93 97 95 95 96 83 69 76 82 81 76 78 71
59 71 85 92 86 99 81 77 82 86 69 63 74 58 38 18 14 14 23 25 12 14 13 12 12 17 13 22 64 73 60 93 82 82 96 97 96 96 95 90 97 96 94 85 78 86 81 68 63
50 53 59 88 77 82 69 57 66 87 77 57 47 47 55 47 20 11 10 15 18 15 13 13 18 21 26 27 30 66 76 74 75 89 80 76 90 92 94 92 97 95 93 96 83 87 82 70 66
78 84 82 82 88 93 88 76 47 64 55 65 58 45 38 48 44 27 11 14 15 17 14 14 13 16 13 26 48 63 82 81 98 95 96 86 92 83 78 96 97 95 91 90 81 80 74 78 82
62 63 93 95 92 77 90 80 44 63 51 45 52 43 34 34 42 47 30 15 18 14 17 28 20 14 14 23 42 49 64 90 88 86 96 87 90 92 91 90 89 94 92 92 94 94 94 90 88
90 98 99 89 75 71 100 74 45 66 70 54 42 37 32 26 34 38 38 34 32 19 17 17 21 18 16 14 16 32 66 82 75 98 96 83 96 90 78 76 85 88 96 96 86 83 80 82 84
96 85 95 94 94 89 88 69 64 70 72 68 50 40 30 21 19 26 32 28 22 19 21 18 17 15 15 15 19 24 42 77 90 98 93 82 86 86 86 88 95 97 85 87 79 78 78 88 90
94 98 95 92 94 88 75 75 72 60 50 68 68 47 28 26 23 20 18 18 19 18 17 15 14 14 14 19 59 54 67 62 82 93 93 91 89 85 93 96 98 96 94 91 86 82 85 94 88
99 83 79 86 98 89 76 71 61 59 57 51 42 26 21 23 22 20 21 17 17 18 16 15 14 13 16 31 51 59 73 62 66 99 99 99 87 88 93 97 96 96 96 95 92 91 84 73 74
100 99 100 93 86 78 70 64 53 54 50 44 23 18 18 17 27 34 29 22 17 16 15 22 27 54 68 74 80 83 98 79 78 95 84 81 98 97 98 87 84 82 84 94 92 85 78 73 74

GFSSGP_500_rhum_096.txt.gz
RH
85 98 88 98 97 70 64 82 97 100 88 78 80 75 75 83 62 57 64 58 48 49 45 44 35 32 30 23 17 15 13 9 9 9 8 7 9 12 12 12 10 7 4 2 2 2 1 2 2
96 99 96 96 95 72 52 60 94 94 85 78 86 84 74 83 80 70 70 59 48 48 49 44 39 38 34 26 19 17 14 11 9 8 8 8 11 13 13 11 8 5 3 2 2 2 2 3 5
100 99 98 93 76 81 52 56 86 95 96 94 81 66 77 100 82 73 70 61 55 47 48 47 44 44 38 30 23 17 15 12 8 8 8 10 13 14 13 10 7 4 3 2 2 2 3 6 7
100 99 100 95 68 58 73 80 86 94 96 77 81 66 76 82 97 80 74 62 53 49 45 49 49 47 42 34 27 18 12 11 9 10 11 13 15 14 12 9 6 4 3 3 3 4 7 7 8
98 96 99 86 66 57 85 89 88 85 94 94 92 74 66 66 87 88 75 69 55 49 49 50 52 52 46 36 28 22 11 11 12 14 15 16 16 14 12 9 6 4 4 3 4 7 8 8 9
97 98 99 78 64 60 93 97 81 98 91 91 97 86 97 89 97 88 68 91 64 50 52 54 59 55 49 39 25 22 17 11 12 16 17 16 16 15 12 9 5 4 4 5 6 8 8 10 11
94 93 70 64 68 69 96 92 85 100 90 90 92 98 86 91 95 83 80 82 67 58 59 66 66 52 42 38 25 16 17 14 13 17 18 17 17 16 15 10 5 5 6 6 7 8 9 10 12
96 90 74 67 86 78 89 95 88 96 88 75 84 85 81 81 80 98 97 99 84 66 70 74 73 57 43 33 22 18 13 15 15 18 18 18 18 18 17 14 8 6 7 8 8 9 10 10 11
90 94 85 76 100 95 72 95 86 80 74 52 58 72 96 82 96 96 95 91 91 74 72 70 68 68 59 44 35 22 15 12 14 16 19 20 20 19 19 17 14 9 8 8 9 10 10 11 11
80 91 84 98 100 84 69 96 92 71 60 60 68 70 75 87 95 96 96 93 89 84 80 72 70 65 62 60 51 42 24 13 12 14 18 22 22 21 20 18 17 14 11 10 10 10 10 11 12
96 99 92 98 99 94 84 80 95 94 74 58 68 84 77 80 85 92 96 96 96 96 87 78 76 71 66 66 65 59 41 23 11 11 13 21 24 23 22 20 19 18 16 14 12 12 12 13 13
98 100 97 100 100 96 92 72 85 87 96 96 89 75 78 94 90 90 94 95 94 92 95 95 92 85 81 72 69 69 58 36 19 12 11 17 24 26 25 23 21 20 19 18 16 16 15 15 16
80 98 93 97 91 90 85 72 58 68 81 89 94 90 67 65 76 86 95 88 96 94 84 79 90 91 84 78 72 67 66 54 35 18 16 18 25 29 30 28 26 23 22 20 18 17 16 16 16
98 99 92 94 91 99 90 73 68 56 70 74 91 81 87 82 82 79 93 96 96 96 82 97 97 97 83 71 73 72 74 68 54 38 19 18 22 27 33 37 37 34 29 25 23 21 21 20 19
99 97 98 96 97 96 74 80 90 76 68 75 78 79 72 79 72 77 76 81 93 95 95 82 82 97 86 79 75 74 81 70 63 53 38 20 18 24 27 36 40 41 40 38 35 31 28 25 22
94 98 99 98 90 86 98 73 75 71 70 68 74 83 82 78 74 68 79 74 70 77 91 95 84 96 94 89 72 86 82 60 54 52 45 37 28 20 22 26 36 44 46 46 45 44 44 38 28
96 97 96 99 98 96 91 99 83 65 63 56 48 51 70 78 78 82 72 70 75 68 52 68 86 94 84 90 61 66 64 59 55 45 42 40 37 30 22 20 24 32 41 45 51 54 56 54 38
85 96 96 97 97 97 98 98 95 84 60 53 67 64 54 52 66 83 87 79 60 72 79 44 45 43 45 43 49 75 71 76 50 51 47 41 41 35 22 22 21 22 29 37 46 51 56 66 58
54 96 98 98 97 98 99 99 98 84 98 93 75 46 40 40 45 42 50 78 76 79 70 97 69 69 56 56 62 67 73 63 62 59 55 45 38 48 39 24 20 18 20 26 32 44 51 63 76
39 51 92 94 96 99 97 97 98 98 81 99 93 76 63 51 48 38 31 44 80 78 74 82 80 80 71 71 62 68 68 67 64 60 62 62 52 54 72 70 66 41 29 34 42 44 52 65 84
41 46 66 81 93 88 98 98 96 92 92 91 83 75 63 63 54 41 34 28 40 64 87 84 86 76 68 53 44 42 42 33 27 38 57 61 73 86 92 96 97 96 97 97 96 91 77 79 96
55 58 50 72 95 98 98 91 96 100 84 75 83 86 85 77 70 52 38 31 28 40 66 70 74 77 68 54 45 47 37 42 47 38 30 63 74 71 87 95 95 95 95 95 96 97 96 94 92
49 55 53 57 92 97 93 86 90 90 75 53 53 66 71 73 68 54 43 39 40 56 59 61 60 62 39 19 22 48 69 72 62 29 33 52 47 50 68 95 90 86 94 92 97 96 96 98 96
44 39 44 77 64 72 69 87 87 76 84 98 86 83 66 58 61 52 41 25 26 36 31 37 37 25 26 17 20 35 40 46 47 55 63 47 50 65 75 98 95 96 94 96 96 93 96 95 92
67 79 80 74 91 81 68 69 68 71 60 58 68 56 55 51 45 44 46 34 18 16 21 21 22 18 37 41 42 41 69 58 54 55 87 93 67 80 84 85 88 92 94 95 96 96 97 95 94
82 100 100 84 78 85 96 62 48 56 48 42 44 43 40 34 37 33 30 29 37 33 19 16 22 20 18 23 37 36 36 38 31 47 81 97 97 78 78 84 90 95 93 90 100 91 95 96 94
75 75 97 100 91 80 76 60 49 56 78 55 51 50 46 40 29 40 40 33 27 23 36 36 37 29 23 19 16 17 24 34 45 39 26 60 78 75 96 98 96 95 93 94 96 88 98 96 82
88 100 100 99 99 89 76 59 46 58 80 79 65 54 49 48 46 43 38 34 27 27 32 34 31 34 25 24 24 23 19 15 15 14 12 29 38 41 57 94 97 95 94 96 95 92 96 96 80
100 100 97 99 100 94 85 73 76 80 75 80 74 53 64 58 49 41 37 24 20 23 32 31 29 27 27 21 22 19 16 15 14 15 18 19 37 51 53 77 94 95 99 98 99 98 96 98 86
100 100 100 100 79 81 97 84 94 92 94 82 80 54 52 66 55 44 29 26 24 21 20 19 20 20 19 18 16 14 14 14 15 18 47 45 58 64 66 96 93 82 96 99 97 96 94 94 92

GFSSGP_500_rhum_099.txt.gz
RH
60 86 100 99 99 88 71 75 96 92 92 89 87 74 79 71 61 45 41 43 40 40 41 35 39 34 31 31 26 24 18 9 9 9 8 7 7 9 10 12 10 8 5 3 2 2 2 2 3
73 95 100 98 98 79 70 60 91 92 93 96 92 68 77 72 64 57 56 50 43 37 41 40 42 34 31 29 26 17 15 11 10 9 8 8 9 10 12 11 10 7 4 3 2 2 2 4 6
74 100 100 96 95 67 62 60 92 98 90 100 97 82 75 69 71 59 54 63 53 46 45 44 42 37 36 31 25 19 17 13 9 9 9 9 10 12 12 12 9 6 4 2 2 2 4 7 7
82 99 96 99 79 58 61 74 81 95 98 95 94 85 75 69 65 76 70 62 55 51 50 50 45 41 41 37 28 22 16 15 10 8 9 11 12 14 13 11 8 4 4 3 3 4 7 8 8
78 96 98 92 70 64 66 90 91 93 98 99 89 89 76 75 71 61 76 75 65 55 54 52 49 45 45 39 32 25 15 13 12 10 12 14 15 15 14 11 8 5 4 3 4 7 7 8 9
100 97 97 84 64 61 76 99 92 87 96 96 98 92 83 84 74 97 81 83 70 56 56 56 54 51 49 44 33 28 20 10 12 12 14 15 16 15 14 12 9 5 4 4 6 8 8 9 11
73 92 96 65 59 61 81 97 96 88 85 93 96 97 78 69 71 81 98 91 73 58 52 54 58 56 52 46 34 23 21 16 13 14 16 16 16 16 16 14 9 5 5 6 7 8 8 10 11
69 75 88 97 65 75 84 79 92 70 87 88 95 94 97 63 69 96 86 89 75 63 56 54 59 59 52 43 36 22 16 17 16 15 18 18 17 17 17 16 13 8 6 7 8 8 9 10 11
97 99 90 64 68 88 87 68 96 76 68 94 90 96 92 95 94 86 87 82 88 82 70 68 68 64 50 40 32 21 17 14 16 18 18 18 18 18 19 18 17 14 9 8 8 9 9 10 11
95 97 88 66 70 100 87 74 70 76 80 92 86 96 92 65 96 98 92 94 94 93 83 83 81 76 66 54 42 36 23 16 13 14 18 20 22 21 20 20 18 17 14 11 10 10 10 11 12
79 88 98 86 89 100 94 88 72 96 88 95 94 93 96 100 89 81 96 96 98 100 91 84 74 73 73 67 62 55 46 34 20 13 12 16 22 24 23 21 20 19 18 16 13 12 13 13 13
100 98 98 93 100 92 97 88 79 91 94 100 96 95 90 84 97 83 96 85 96 96 94 92 84 80 80 77 72 72 66 55 39 25 13 13 18 23 26 26 24 21 20 19 18 16 15 14 14
100 97 98 98 94 94 96 87 75 76 96 90 94 95 94 92 81 98 94 89 97 96 89 94 94 90 91 88 83 77 74 71 62 45 29 17 15 19 23 29 31 27 23 22 21 19 18 17 17
98 77 82 98 99 88 92 90 81 69 80 88 86 86 90 84 92 98 96 96 96 97 88 88 94 96 96 99 92 83 76 72 72 65 49 34 19 17 18 22 29 35 34 32 29 24 22 21 21
97 97 80 91 93 90 92 83 73 68 67 83 94 88 81 96 92 96 99 93 100 95 96 88 69 74 95 97 93 82 70 73 73 69 66 56 42 28 17 19 22 28 38 41 40 39 36 33 32
100 97 100 100 94 82 86 84 76 67 62 62 80 92 88 95 96 93 91 93 96 95 98 96 90 97 96 89 81 75 66 63 72 76 65 60 54 46 40 30 20 22 26 33 42 46 45 45 46
97 100 100 100 99 87 98 85 72 66 60 55 59 76 88 90 99 95 96 93 92 95 96 95 96 94 84 88 95 99 89 66 67 68 55 50 47 45 43 40 37 27 20 22 28 36 45 51 56
99 100 96 97 97 99 91 84 77 68 65 54 51 60 66 74 94 94 90 78 86 95 92 95 96 96 96 90 96 98 88 64 71 78 68 58 54 50 46 40 40 38 25 22 22 24 28 39 49
87 94 94 98 98 92 98 93 88 75 69 53 48 49 55 60 64 65 78 90 71 76 73 93 94 96 95 93 55 51 49 49 55 66 62 67 67 63 59 52 41 41 43 35 26 22 23 27 36
36 47 90 96 96 96 92 96 97 87 69 71 67 51 44 52 52 43 51 58 73 82 93 86 79 75 87 94 91 62 59 67 65 71 68 64 62 60 58 62 77 81 81 96 94 95 66 43 45
17 22 73 93 99 98 98 93 96 97 100 96 72 66 55 46 43 48 39 33 40 51 71 79 87 85 96 96 77 83 79 67 65 80 78 53 32 28 34 57 89 96 95 96 96 96 97 97 98
23 20 27 64 86 92 100 92 100 99 89 84 77 81 67 56 48 47 41 36 42 53 49 52 74 88 87 94 78 72 78 65 59 74 76 75 60 51 42 30 50 80 92 83 96 94 95 96 94
32 27 31 36 34 49 81 87 81 89 92 92 88 84 94 88 72 82 82 64 61 60 54 55 51 73 84 90 90 89 82 66 66 58 52 68 68 69 75 54 59 68 72 66 76 96 92 95 97
28 54 51 48 43 36 46 65 82 84 98 95 86 86 89 72 83 70 75 67 56 53 53 40 46 59 73 79 76 72 72 70 54 38 55 67 88 100 92 95 98 96 96 67 94 97 93 93 95
27 42 51 57 75 50 44 50 67 98 98 86 75 74 76 71 69 76 84 66 58 55 48 44 49 64 84 65 66 58 56 58 66 56 66 53 57 61 90 98 96 96 94 62 85 85 90 84 95
92 90 73 61 57 79 68 59 58 89 97 87 75 74 68 78 82 83 69 58 61 58 54 52 47 31 46 50 51 50 39 44 52 58 56 46 68 76 39 52 70 97 91 71 59 96 96 98 94
85 96 83 100 73 68 57 58 50 77 83 92 93 73 61 86 86 75 55 49 46 43 47 40 31 21 17 18 22 35 37 37 50 53 39 42 40 48 56 58 43 24 85 27 98 97 97 95 97
100 99 95 83 100 99 66 77 76 63 77 72 78 70 64 43 49 50 45 38 36 36 35 30 33 41 35 22 13 12 18 22 27 38 34 37 28 36 38 15 15 22 22 15 22 64 73 88 98
96 95 86 85 90 78 67 66 66 73 69 80 66 64 58 48 38 37 35 35 34 33 32 36 33 32 34 30 31 23 16 16 17 17 21 22 20 16 15 14 15 18 33 27 39 73 94 82 75
100 100 100 100 97 94 79 61 68 78 77 77 73 78 68 68 58 51 46 42 38 36 33 34 32 30 27 29 34 36 42 41 31 26 22 21 19 16 14 14 15 14 38 58 56 93 86 77 60

GFSSGP_500_rhum_102.txt.gz
RH
11 38 73 86 100 95 59 79 65 91 96 83 78 68 59 60 51 51 47 38 34 34 29 26 25 28 31 31 33 31 28 12 8 8 8 8 7 8 9 11 10 8 6 4 2 2 2 3 4
18 42 86 98 100 95 57 52 74 91 92 97 86 74 67 66 60 60 57 44 38 36 34 31 29 32 34 31 31 27 29 20 9 9 10 19 8 9 10 11 10 8 5 3 2 2 2 5 7
22 49 99 100 96 89 63 39 87 82 92 98 98 87 77 63 66 64 57 50 46 45 39 35 34 36 34 31 29 28 21 18 11 10 11 12 9 10 12 11 10 7 5 3 2 2 4 7 7
31 54 100 99 93 71 64 46 89 97 77 96 97 88 82 72 72 72 67 54 50 49 46 43 40 40 36 33 30 26 23 20 14 9 9 9 10 12 13 12 10 8 5 3 3 4 7 7 8
40 64 82 97 81 62 64 68 68 95 75 91 97 86 83 82 77 77 70 60 57 54 48 48 45 42 40 36 34 28 23 19 16 11 9 11 12 13 14 13 11 8 5 4 3 5 8 8 9
54 48 85 97 68 61 63 81 72 92 96 89 96 80 92 88 84 81 75 66 56 63 55 52 51 48 43 40 39 31 24 18 14 12 11 13 13 15 15 14 11 8 5 4 5 6 8 8 10
40 42 96 84 96 62 62 86 99 76 90 94 88 98 94 88 89 82 73 72 72 70 60 60 53 51 49 46 41 33 27 20 11 13 13 15 15 16 16 15 13 9 5 5 6 8 8 9 10
21 46 60 96 87 88 63 92 89 71 81 96 97 94 91 86 83 82 67 67 79 79 73 63 56 54 53 51 44 35 28 22 17 13 14 16 16 16 17 17 16 12 7 6 7 8 8 9 10
25 97 55 90 95 98 83 95 72 67 74 80 96 96 96 95 94 88 80 83 88 88 79 62 55 56 54 52 46 37 24 20 19 17 16 17 17 17 18 18 18 16 13 8 8 9 9 10 10
26 98 96 71 99 100 100 83 75 72 66 75 93 96 96 96 96 96 95 94 99 97 80 68 60 61 54 48 41 36 23 16 15 16 18 19 19 19 19 20 20 19 17 14 11 10 10 10 11
24 78 92 99 98 99 96 86 95 69 69 77 89 94 95 98 95 95 84 99 100 97 90 76 70 66 59 50 43 36 29 21 16 14 13 15 21 24 23 22 21 21 19 18 16 13 12 12 12
60 66 73 96 90 95 94 84 84 86 84 100 91 90 96 96 91 97 96 86 93 97 95 91 78 73 67 60 57 53 48 42 35 25 17 12 13 17 20 24 26 24 22 20 19 18 16 14 14
99 81 96 99 74 86 97 89 74 83 80 96 87 89 93 97 96 94 96 95 94 96 97 93 94 89 81 76 75 74 72 66 58 49 36 27 17 12 11 15 21 27 28 27 23 22 21 20 18
100 100 70 97 98 97 99 100 72 86 80 75 91 99 96 96 96 99 95 95 96 95 98 96 96 94 95 88 82 78 77 75 72 68 61 52 42 29 19 14 14 16 23 27 30 30 30 28 26
99 98 92 98 95 97 89 92 92 75 68 60 70 91 94 86 80 90 93 95 96 97 96 94 93 93 93 88 84 88 81 78 76 68 61 61 58 54 44 33 20 15 15 17 21 28 35 39 40
100 92 99 100 98 94 97 86 87 73 68 66 67 85 96 95 94 97 94 97 92 96 97 96 95 90 81 90 87 91 90 81 72 70 66 64 60 56 56 53 46 37 29 22 17 19 22 27 34
95 98 98 98 100 94 97 83 79 77 65 66 71 85 96 97 95 92 91 94 96 96 95 96 96 93 95 88 91 90 75 63 61 67 90 88 76 57 50 47 46 44 40 38 40 34 23 20 22
100 100 100 96 98 98 91 89 75 69 72 65 67 69 83 92 97 96 94 85 95 94 95 95 97 95 96 93 96 89 79 95 87 96 81 79 81 66 61 54 54 50 41 35 35 32 31 29 25
91 95 94 97 99 99 96 92 72 65 60 72 67 62 61 71 77 94 96 92 95 97 95 95 96 96 96 89 94 95 96 91 84 71 57 58 65 64 66 63 59 56 57 57 50 36 42 57 56
60 92 99 98 100 98 99 92 94 80 70 67 79 62 61 52 57 74 79 92 96 95 93 95 96 95 94 95 96 96 96 92 68 57 62 77 74 69 65 60 58 52 50 49 67 94 96 96 95
18 54 82 94 98 99 96 97 87 83 64 65 63 68 66 64 72 84 81 82 85 76 89 96 96 96 95 95 97 95 96 96 91 75 82 80 74 69 74 57 35 33 36 72 79 94 94 96 95
14 16 44 58 90 94 100 100 95 83 78 57 51 59 73 73 63 62 75 73 70 65 65 68 79 80 71 99 95 95 96 95 92 95 96 97 94 91 88 89 92 95 95 91 96 94 95 96 96
22 25 20 15 35 70 87 94 97 99 84 84 61 65 63 70 75 69 68 62 61 59 53 58 61 54 55 72 86 94 96 97 93 96 97 85 72 76 71 58 62 68 93 96 94 96 97 96 96
22 21 25 26 26 26 43 63 94 94 98 97 98 96 90 89 90 89 82 81 77 74 80 81 60 59 53 68 85 92 86 96 82 81 82 84 79 63 58 56 54 97 96 97 97 96 97 92 85
26 27 32 55 60 32 38 37 52 85 94 95 91 94 90 94 94 96 99 92 84 84 89 90 81 67 56 55 67 67 64 84 87 89 84 82 77 59 62 84 60 50 83 94 89 89 93 49 34
25 33 36 38 51 50 53 31 33 44 82 83 83 87 97 99 84 91 100 94 86 100 94 80 67 61 61 52 50 46 52 62 72 78 66 61 53 52 55 65 45 50 53 56 56 44 16 35 32
45 82 87 68 58 50 47 35 32 45 42 45 55 87 85 82 71 71 88 90 88 88 86 84 76 58 54 52 47 42 41 42 51 48 55 51 41 45 51 52 43 39 41 42 34 16 13 34 22
74 87 100 100 100 97 54 30 29 59 63 59 54 91 92 81 90 84 79 80 81 100 92 79 64 53 51 47 47 50 46 29 21 30 39 50 47 38 48 50 41 25 24 24 16 14 13 15 16
94 100 100 100 100 83 71 60 55 64 100 94 75 68 91 84 81 86 95 97 96 79 65 56 48 41 39 44 42 39 36 34 30 24 16 14 18 29 48 45 28 20 16 16 16 15 15 16 17
100 100 100 100 97 92 72 75 65 71 80 99 100 98 84 83 80 78 76 70 70 68 57 46 38 32 28 30 32 29 27 29 29 27 30 27 21 20 22 24 24 23 21 18 17 15 16 21 23

GFSSGP_500_rhum_105.txt.gz
RH
4 8 33 50 51 48 40 36 39 42 80 95 85 68 58 46 40 31 28 37 34 37 42 33 22 18 18 25 33 34 28 18 8 7 7 7 6 7 7 7 8 8 7 5 3 2 2 3 5
7 41 45 50 82 50 35 35 43 33 75 98 94 76 67 53 46 39 41 40 42 39 34 29 24 22 20 26 32 33 32 26 16 9 9 16 8 8 8 9 9 8 6 4 3 2 3 6 7
19 27 48 61 78 73 35 34 42 42 91 95 97 84 77 57 53 44 46 52 54 44 35 28 26 26 23 29 31 31 26 29 24 12 10 23 14 8 9 10 10 8 6 4 3 2 4 7 8
35 30 60 76 86 65 55 44 60 49 87 84 97 90 83 71 63 60 55 62 59 50 46 36 32 31 28 33 31 29 24 21 23 18 10 9 8 9 10 11 10 9 6 4 3 4 6 8 9
56 46 67 87 95 67 65 83 73 65 78 73 88 96 75 77 75 67 61 68 60 48 47 43 38 36 33 36 32 30 26 19 21 20 12 9 9 10 12 12 11 10 7 5 4 4 7 8 9
73 54 100 98 73 76 79 82 90 72 95 81 84 96 96 76 77 73 71 74 65 52 47 48 44 39 39 39 35 33 27 21 20 18 13 10 10 13 14 14 13 11 8 6 5 5 7 8 10
71 65 97 66 99 90 98 100 97 76 69 82 90 97 96 92 74 81 77 76 70 61 50 51 50 47 44 42 39 37 32 23 17 16 13 11 12 13 15 15 14 12 9 6 6 6 7 8 10
76 84 91 67 100 78 94 99 99 98 64 76 91 92 96 86 85 86 78 71 73 64 63 61 55 52 51 45 42 40 35 27 20 13 13 13 14 15 15 16 16 15 13 8 6 7 8 8 10
84 74 95 97 98 99 100 99 96 93 78 56 88 86 89 96 94 96 80 64 70 68 61 69 67 58 53 50 45 44 36 30 23 18 13 13 14 15 16 17 18 18 17 13 8 8 9 9 10
86 65 100 90 97 98 97 98 93 96 83 66 83 96 96 79 80 91 77 72 72 72 72 77 78 66 57 52 50 46 40 29 25 21 18 16 16 16 17 18 19 19 19 18 16 12 11 11 11
79 55 100 93 98 98 97 92 98 85 75 53 57 91 95 70 97 94 88 76 86 86 80 82 79 68 60 58 52 48 41 28 19 18 19 18 19 20 20 20 20 20 20 20 18 17 15 13 13
75 67 95 100 98 93 98 84 74 72 67 74 48 80 95 97 98 97 96 96 86 88 98 89 80 71 64 58 51 40 36 29 22 17 14 14 14 15 17 20 22 23 23 22 21 19 18 18 17
52 69 96 98 99 98 99 98 74 66 70 75 81 69 96 99 96 95 96 96 82 88 98 99 96 80 66 54 48 42 39 33 26 22 19 16 13 12 11 13 15 19 23 25 26 25 24 22 21
39 44 98 82 93 96 92 95 80 73 72 76 71 87 94 95 96 95 95 97 95 93 94 97 96 89 73 65 57 51 48 44 42 40 38 34 30 26 21 16 14 13 13 15 18 23 27 29 30
16 32 42 100 76 76 96 98 90 82 70 72 94 91 88 92 94 97 92 95 96 96 97 94 96 93 80 72 69 69 67 64 62 58 56 55 53 49 46 40 34 30 24 19 16 16 17 18 21
74 100 100 92 98 94 64 72 66 68 83 77 85 82 79 86 91 96 87 91 96 95 95 88 100 99 87 87 88 87 85 77 71 68 64 60 57 57 56 56 54 52 51 47 42 37 35 31 23
97 100 100 96 95 98 66 58 77 61 69 79 92 97 91 95 91 96 99 94 96 96 97 96 99 97 98 95 90 94 95 85 72 68 64 61 59 60 56 52 50 47 45 43 42 39 37 38 37
93 98 96 99 98 99 71 55 64 67 70 79 95 96 96 96 96 97 91 91 96 96 94 96 94 96 96 94 94 86 85 81 79 72 64 62 65 65 66 60 56 54 48 42 46 44 38 33 28
92 98 96 93 97 99 77 75 61 64 68 61 81 90 92 95 95 96 95 95 92 92 96 96 97 96 96 96 96 96 82 84 82 65 58 67 74 50 58 63 62 58 61 59 56 51 47 47 65
71 59 78 91 97 99 93 82 87 62 65 72 67 68 75 84 95 96 97 97 96 97 96 93 96 96 97 97 94 97 94 91 88 72 66 77 78 56 62 60 58 61 61 56 48 42 39 60 73
39 38 46 64 96 97 93 75 66 77 68 68 77 74 77 69 68 79 93 94 97 97 96 95 96 96 95 97 96 96 96 96 91 83 86 93 84 68 73 72 62 64 62 57 44 58 93 97 97
20 28 31 54 90 94 99 98 76 74 86 80 76 73 77 75 66 65 75 80 83 82 93 97 96 97 95 96 96 97 97 97 96 99 97 96 96 96 96 67 68 76 80 92 96 96 97 95 97
20 17 17 20 46 96 96 95 95 81 64 67 79 91 94 75 74 79 72 68 66 64 90 85 89 92 93 91 90 94 95 94 96 97 97 98 96 96 96 92 80 74 81 96 96 97 97 97 96
20 25 26 23 18 76 75 85 96 94 84 100 100 93 93 95 96 88 94 81 81 74 75 77 71 84 92 87 96 96 97 93 94 96 95 96 91 77 75 77 82 93 92 94 94 94 96 96 96
24 24 21 22 20 22 33 42 69 98 92 94 92 94 91 87 84 88 87 84 97 93 85 74 64 59 58 86 89 84 75 80 91 80 91 87 95 70 57 64 66 63 59 65 71 67 75 71 52
19 31 40 25 25 24 24 31 36 49 58 66 100 100 93 99 83 91 87 93 100 88 85 87 78 71 68 66 63 65 64 62 61 59 60 67 73 66 60 67 62 57 50 52 61 48 36 40 42
37 80 98 84 46 29 26 22 33 41 48 43 78 91 98 95 98 96 94 100 99 98 86 84 82 80 86 87 78 66 61 54 54 55 51 49 62 66 60 60 55 49 43 41 43 44 33 24 21
91 97 100 99 100 78 37 29 29 40 36 35 40 45 93 99 96 89 96 92 85 96 100 89 87 87 94 87 78 72 53 50 53 53 45 43 45 46 54 55 52 52 45 38 33 37 40 34 26
50 88 100 100 100 99 86 51 39 34 36 58 46 52 59 78 96 100 96 96 93 90 84 78 90 83 89 82 78 77 64 48 42 42 45 51 45 27 22 29 38 21 22 22 24 31 41 33 24
98 99 100 98 97 100 94 82 83 82 52 63 71 64 93 81 71 86 90 92 100 100 100 88 86 88 82 86 77 61 51 45 44 43 41 39 36 34 32 31 30 27 22 21 20 21 22 24 24

GFSSGP_500_rhum_108.txt.gz
RH
4 3 3 4 45 53 23 7 9 8 10 22 40 89 60 52 42 33 24 32 41 50 51 45 42 31 20 17 20 29 29 16 9 6 6 6 6 6 7 8 8 7 7 6 4 2 2 4 6
3 3 3 8 44 45 11 7 10 9 9 23 42 88 80 62 49 41 34 34 39 45 48 49 45 33 19 18 21 28 32 26 13 8 6 8 8 7 8 8 8 8 7 5 3 2 3 6 8
2 2 5 34 60 55 11 13 18 16 14 27 42 85 90 67 56 47 42 41 43 39 38 38 42 33 22 19 22 28 33 31 23 13 14 10 16 8 8 8 9 8 7 5 3 3 4 7 9
4 4 24 49 74 64 23 48 41 24 14 33 44 86 96 90 65 56 54 48 42 39 36 37 33 29 24 22 24 28 32 29 29 22 19 14 24 12 9 10 10 9 7 5 4 3 5 7 9
33 65 81 55 83 84 77 80 49 34 27 40 49 67 90 91 75 69 60 54 51 40 40 42 35 31 28 25 26 30 30 26 25 24 20 16 10 8 9 11 11 10 8 6 4 4 6 7 9
74 98 93 65 98 89 75 86 61 54 45 47 58 64 90 89 83 73 67 61 54 48 44 47 39 34 34 30 28 32 29 27 23 23 17 15 11 8 9 11 12 11 10 7 5 5 6 8 9
74 100 89 68 92 99 99 96 82 82 62 50 63 64 74 97 82 84 72 66 57 51 50 50 43 38 37 35 30 32 31 28 23 20 19 15 11 9 10 12 12 12 10 8 6 6 6 7 8
74 99 98 93 100 98 100 91 89 89 82 55 70 69 66 97 88 86 72 66 65 59 58 53 43 42 39 40 35 34 34 32 26 20 18 14 12 11 12 13 14 14 13 11 8 7 7 8 9
79 100 96 83 100 100 100 98 96 98 100 58 65 68 84 96 98 90 72 66 66 59 61 58 45 43 45 43 42 40 36 34 31 20 16 14 13 13 13 14 15 16 15 15 13 9 8 9 9
91 97 99 98 100 99 100 94 98 91 97 75 62 59 77 86 96 94 85 74 70 68 65 64 57 49 49 48 46 44 41 39 34 24 17 13 13 14 14 15 16 17 18 18 17 16 13 11 10
100 100 100 100 100 97 100 83 98 78 73 90 57 63 72 96 88 97 96 98 95 96 85 75 63 59 56 54 53 49 46 42 35 28 22 18 15 15 15 15 16 18 18 18 18 18 17 16 15
100 96 97 100 99 94 97 99 80 98 56 82 79 70 81 84 98 97 95 98 98 98 100 95 79 64 65 62 56 54 50 43 34 29 24 21 19 17 18 18 18 18 19 19 20 20 19 18 18
100 96 100 99 98 96 97 97 86 95 67 57 76 64 69 91 93 95 96 96 97 97 98 100 96 83 76 69 60 55 51 44 36 29 21 20 20 18 18 18 18 19 20 22 23 23 23 23 22
97 88 97 99 99 100 99 91 96 73 64 54 64 68 64 85 90 96 96 96 96 96 96 98 100 96 86 75 66 59 50 44 34 32 24 20 16 14 14 13 14 15 16 17 19 23 24 26 27
79 86 98 99 96 97 93 91 73 71 51 60 66 92 72 82 90 95 96 97 98 96 98 95 94 99 90 77 63 55 43 38 34 29 22 19 18 17 16 15 15 16 16 16 15 15 14 13 13
58 75 95 99 91 98 80 78 81 66 56 64 76 70 90 92 91 93 96 89 96 97 96 96 98 100 87 72 67 48 45 36 38 35 33 33 34 35 35 38 40 40 39 38 39 38 37 35 33
40 46 70 86 98 94 82 70 75 67 55 67 77 82 90 87 78 94 92 95 94 96 95 95 96 94 87 84 62 59 56 49 47 46 49 51 52 57 58 59 58 57 54 52 48 43 41 39 37
59 96 95 94 97 98 98 68 52 62 56 68 85 88 92 94 87 94 91 96 96 95 96 94 94 96 94 80 86 81 64 66 60 65 68 68 67 68 66 62 60 56 52 46 45 43 39 36 34
83 97 95 91 97 95 95 61 66 55 61 63 76 89 96 94 96 95 97 96 96 97 96 97 95 94 97 100 91 83 80 76 84 91 93 90 78 70 64 63 60 60 58 54 54 55 53 50 48
76 73 72 68 79 92 89 66 47 54 66 78 75 88 96 97 96 98 96 94 96 96 97 96 97 96 96 96 97 92 88 88 90 92 90 78 74 66 57 56 58 66 63 60 56 55 57 54 54
49 56 56 52 53 87 89 78 68 59 76 63 68 76 90 93 96 92 96 96 97 96 97 95 97 95 96 92 92 98 96 98 93 96 84 78 73 57 75 75 61 61 58 56 58 56 54 75 95
34 47 45 35 29 75 98 87 78 76 72 71 70 66 76 95 94 97 97 96 96 96 97 97 96 96 96 95 96 97 96 96 95 96 94 92 81 86 97 96 96 95 93 63 64 62 87 97 97
20 21 26 24 20 63 89 96 88 97 86 81 65 60 62 78 93 91 96 96 88 93 93 96 97 97 96 96 96 97 96 97 97 96 97 96 95 97 96 95 97 96 95 85 95 96 96 97 96
18 21 20 18 21 28 52 66 88 90 100 100 98 91 87 72 67 79 91 93 88 94 96 96 95 96 96 96 97 97 97 97 96 97 96 97 96 96 97 96 97 97 96 88 77 56 53 88 94
12 19 27 24 19 21 26 46 69 100 99 97 97 97 95 94 85 77 80 77 78 91 89 89 86 83 91 100 87 94 95 97 96 96 96 96 95 96 96 95 95 96 94 66 59 60 55 54 55
39 31 72 55 27 19 19 36 71 83 83 93 82 84 94 94 91 94 84 88 82 73 72 70 75 70 74 79 68 70 82 96 94 95 95 96 96 92 94 95 90 82 66 62 55 50 51 48 46
64 66 88 88 58 32 22 18 49 68 44 65 96 80 76 84 86 86 85 70 74 80 81 81 76 73 68 64 57 52 71 81 81 78 87 87 81 79 90 86 65 62 60 58 54 48 44 42 37
71 85 100 99 91 92 42 24 30 66 50 48 74 92 79 57 100 78 73 99 94 94 85 92 83 79 78 70 61 57 58 67 71 67 60 54 50 50 59 51 47 46 45 50 45 40 38 38 38
30 91 100 100 90 93 80 56 45 33 31 35 46 58 62 50 57 77 94 87 100 100 100 99 95 97 92 91 86 75 82 84 82 75 67 56 48 45 48 46 44 48 48 34 24 29 24 24 23
41 81 94 97 100 100 86 94 92 68 50 38 42 51 73 98 70 50 60 93 95 97 98 99 100 94 94 91 84 72 78 86 76 69 64 61 51 44 41 42 47 46 33 31 31 29 27 25 22

GFSSGP_500_rhum_111.txt.gz
RH
5 4 4 3 3 3 5 8 9 8 10 13 17 19 15 58 65 44 28 28 29 49 56 47 46 46 38 26 16 12 17 27 17 7 6 5 4 6 6 8 8 7 7 6 4 2 2 4 7
5 5 4 3 3 3 9 8 8 8 11 13 16 12 12 40 90 49 36 33 31 44 55 54 53 48 38 26 17 14 17 28 22 11 6 6 6 7 7 8 8 8 7 6 4 2 3 6 8
4 4 4 5 4 5 9 9 7 6 10 19 14 10 13 30 71 53 44 39 33 43 52 58 54 45 40 30 18 16 18 29 27 17 8 6 8 8 8 8 8 9 8 6 4 3 4 7 9
2 2 2 3 3 3 3 8 7 14 15 18 17 10 13 24 33 58 55 48 41 39 44 51 54 47 42 32 21 18 20 28 32 27 15 12 13 17 14 8 8 9 8 6 4 4 4 7 9
2 2 4 3 2 3 6 6 16 30 28 26 37 17 16 22 23 69 62 53 51 40 43 46 49 43 42 35 23 21 21 27 30 30 26 16 17 18 16 8 8 9 9 8 5 4 5 7 9
5 9 17 9 7 65 59 70 44 78 89 67 35 39 16 22 37 86 87 66 61 48 42 43 41 38 34 32 25 24 25 26 29 28 30 20 16 13 10 8 9 10 10 9 7 5 5 7 8
23 31 30 53 34 100 100 90 98 100 74 97 46 90 25 22 47 98 97 84 67 58 47 41 42 42 37 34 29 28 28 26 28 32 35 20 14 11 10 9 10 11 11 10 8 6 6 6 8
50 56 56 89 96 90 100 87 100 93 99 99 81 56 22 28 69 96 97 92 76 68 53 48 45 49 45 38 36 33 31 28 28 30 26 21 18 12 10 10 11 12 12 11 10 8 7 7 8
74 92 92 89 99 86 99 97 97 99 97 98 89 97 58 39 75 94 95 91 84 75 63 56 59 56 53 45 43 38 34 32 30 28 24 21 18 14 11 12 12 12 13 13 12 10 9 8 8
91 99 99 100 98 90 98 100 94 94 98 88 90 82 45 31 58 80 95 96 84 79 65 55 62 65 58 52 47 43 40 37 34 31 27 22 18 14 13 13 13 14 14 15 15 14 13 11 10
96 100 100 93 100 97 95 100 99 96 78 88 73 84 59 37 58 74 88 96 92 89 82 71 70 78 64 58 52 48 44 42 40 35 31 23 17 14 14 14 14 14 15 16 16 16 15 15 15
91 100 95 100 95 99 99 98 96 97 82 59 53 90 85 28 58 73 92 96 97 100 100 85 84 82 74 62 58 55 50 47 44 38 34 26 19 15 14 14 14 14 15 16 17 17 18 17 17
88 100 100 100 92 95 97 99 93 89 92 86 96 97 51 37 70 65 91 97 96 96 97 89 90 100 85 75 64 58 55 52 46 39 32 27 21 19 16 16 16 16 17 18 18 19 19 19 20
78 100 98 96 99 100 100 99 84 98 99 99 95 93 69 42 60 70 90 95 96 97 96 98 96 98 97 87 75 65 60 54 48 38 31 28 24 22 20 19 19 20 20 19 18 18 18 18 18
92 93 95 97 100 98 97 98 82 90 98 94 78 96 83 60 69 85 95 95 95 95 96 97 96 93 96 95 81 71 63 53 45 36 34 28 26 22 21 20 18 17 16 15 14 14 14 12 12
65 75 81 96 96 96 100 96 89 65 78 100 84 80 68 82 80 72 77 92 95 96 97 96 92 97 97 92 86 74 65 52 44 36 34 29 27 21 18 16 15 14 13 13 13 15 18 22 27
60 85 98 93 97 96 99 96 100 91 81 96 79 73 100 91 68 71 57 93 97 96 97 96 96 97 96 94 88 78 66 54 50 41 36 28 24 20 18 17 17 18 23 28 33 39 45 48 46
55 69 93 94 99 96 83 96 88 92 66 87 98 94 78 100 63 62 62 94 97 94 97 96 96 95 95 90 89 85 66 53 48 36 36 28 26 22 27 27 32 37 44 47 51 50 46 41 39
66 74 92 90 89 83 78 90 88 83 63 69 93 96 74 89 94 72 80 94 96 95 97 92 96 94 94 89 89 83 67 40 34 30 30 28 33 54 38 46 58 58 55 53 52 47 44 46 44
63 66 67 64 54 65 69 72 82 100 86 84 76 82 76 100 93 94 90 91 97 91 96 92 95 95 97 96 93 76 43 33 39 42 44 54 55 51 59 69 87 70 61 57 56 53 50 49 55
48 50 51 58 59 53 58 59 80 89 78 68 65 62 78 89 88 96 93 96 92 87 94 95 96 95 95 92 92 85 55 74 72 54 90 85 77 69 81 90 85 72 72 85 79 70 53 57 72
30 32 38 43 54 51 47 54 55 86 85 82 70 66 76 98 98 98 96 96 96 96 96 98 96 96 96 95 95 93 96 92 68 81 94 87 86 89 94 95 85 70 68 84 88 89 72 58 72
20 23 27 27 30 42 46 51 62 71 81 67 69 69 77 81 89 95 96 97 96 96 97 97 96 96 95 97 97 96 92 89 91 93 92 98 98 96 95 93 79 76 84 96 94 89 96 96 95
10 16 24 23 23 26 30 40 82 95 95 90 90 88 84 81 94 94 96 95 95 95 96 96 96 97 96 97 94 94 95 95 90 97 97 94 94 96 96 95 95 94 96 96 96 96 96 94 96
18 22 64 35 23 26 24 36 74 70 91 93 82 70 77 86 96 84 79 90 93 97 95 93 91 97 97 97 97 96 97 96 94 94 96 96 96 97 97 97 97 95 97 97 96 96 91 78 68
77 97 91 99 98 55 25 30 69 68 67 71 93 89 75 74 87 90 84 90 95 95 97 93 91 95 96 96 96 97 97 95 97 97 96 96 97 94 96 97 96 96 96 94 95 95 88 46 46
45 69 90 100 100 98 51 26 36 43 65 82 98 92 71 79 80 98 97 89 90 86 75 78 91 92 96 90 90 91 96 96 96 96 92 95 94 95 96 97 94 94 94 92 91 49 64 51 49
24 100 97 99 100 100 89 47 79 25 43 56 63 83 97 96 96 92 98 87 80 85 80 76 78 86 82 90 84 94 93 95 89 95 92 86 84 91 94 88 84 85 65 67 54 46 39 37 39
35 74 90 100 90 100 100 92 49 29 32 60 67 52 77 99 96 92 87 78 80 77 83 72 83 78 74 79 85 79 78 77 66 77 94 94 90 74 67 61 57 51 52 43 45 46 39 39 34
17 35 74 100 100 94 100 100 86 59 40 48 84 67 59 75 93 77 74 90 77 67 74 93 87 84 81 79 74 75 78 77 74 78 88 95 86 74 69 58 53 46 43 49 42 41 41 34 34

GFSSGP_500_rhum_114.txt.gz
RH
27 24 15 11 11 9 12 8 11 10 9 9 12 15 14 18 26 69 48 30 21 29 54 62 56 50 49 42 34 21 12 14 24 14 6 6 4 4 6 7 7 8 7 6 4 2 3 5 8
28 24 16 12 11 10 9 9 10 11 11 13 11 14 18 16 23 71 31 32 27 34 34 63 65 57 51 47 36 23 14 13 22 22 9 6 5 5 7 7 7 8 7 6 5 3 4 7 9
20 16 12 10 7 13 8 11 13 10 9 10 11 13 17 20 36 42 42 20 30 44 34 49 68 64 56 47 37 24 16 14 21 25 16 6 6 6 7 8 8 8 8 7 5 3 4 8 9
9 6 6 6 9 16 14 8 8 11 12 14 12 14 26 16 13 18 30 7 30 48 40 40 63 70 59 51 39 29 19 16 22 27 22 11 7 8 10 10 11 7 8 8 6 5 4 6 9
6 5 4 3 4 8 10 6 3 5 8 11 23 21 61 20 10 12 9 8 18 48 51 42 51 72 64 50 41 33 21 20 22 28 29 20 13 14 17 19 13 8 8 8 8 6 4 6 8
3 3 2 2 3 3 5 3 4 3 4 4 13 32 32 88 26 15 13 10 18 54 52 48 46 61 69 56 44 36 25 23 23 25 29 29 21 17 20 17 11 9 8 9 9 7 6 6 7
4 4 4 4 3 3 4 3 2 4 3 3 8 46 57 71 74 23 16 11 29 67 57 52 46 54 63 60 49 41 30 24 24 24 26 28 28 22 14 11 10 8 9 10 10 9 7 6 6
4 14 5 8 11 9 8 6 4 4 6 28 23 9 39 80 36 40 16 16 28 73 68 56 52 50 55 54 44 40 31 26 25 24 23 27 30 22 14 10 10 10 10 11 11 10 8 7 7
7 12 15 29 41 25 20 16 24 18 14 89 79 31 52 96 97 78 20 16 23 58 76 60 60 50 48 48 44 39 36 29 28 27 24 29 33 21 17 12 11 11 12 12 12 11 9 8 8
25 34 43 65 79 58 66 74 100 94 92 98 98 68 97 71 58 85 38 19 23 51 75 64 68 60 48 44 44 42 39 35 32 30 28 27 25 22 20 18 12 12 13 13 13 13 11 10 10
69 84 88 91 88 100 100 100 96 100 96 99 100 94 91 98 60 98 86 29 29 64 87 68 73 70 56 45 50 48 46 42 36 32 30 29 26 23 18 17 13 13 13 14 14 14 13 13 12
71 78 79 81 94 98 100 100 99 99 94 97 96 97 90 47 47 71 87 15 32 35 96 88 75 74 62 57 55 55 51 46 41 36 35 34 30 24 18 16 14 14 14 14 15 15 15 15 15
75 80 79 87 99 92 97 90 99 100 100 98 97 67 71 95 97 95 42 36 28 54 96 78 95 82 69 63 60 61 56 49 46 41 40 39 33 27 19 16 15 15 14 14 15 16 17 17 18
90 69 82 84 96 94 88 95 90 98 90 83 90 62 46 99 99 96 71 40 72 64 96 97 92 78 81 75 64 70 60 54 50 46 45 41 33 27 22 18 16 15 15 15 16 17 18 19 18
69 96 97 97 96 100 100 100 100 86 80 74 56 56 56 99 87 94 67 62 83 69 95 96 96 72 82 80 79 78 69 61 55 52 48 44 37 27 23 20 19 19 18 18 19 20 19 17 15
59 81 94 99 97 92 92 100 90 73 78 80 59 70 72 95 96 96 88 80 65 66 97 96 96 84 77 82 93 86 80 70 62 57 50 44 38 30 24 22 21 21 21 20 20 17 14 12 10
73 80 91 97 99 87 89 100 85 99 59 74 90 68 89 96 96 98 94 84 51 42 94 95 96 97 99 88 83 88 83 77 66 59 52 44 36 31 28 29 27 23 22 19 16 13 12 14 22
63 70 90 81 72 94 76 88 100 98 78 90 93 92 95 97 97 96 100 86 71 59 92 98 96 96 94 84 91 91 88 81 71 63 50 39 35 34 32 30 26 22 19 18 65 16 32 33 40
54 60 66 79 60 65 64 76 91 95 69 81 85 70 84 76 98 94 95 95 72 52 83 89 96 96 98 95 90 91 87 85 77 62 45 38 38 38 35 28 25 22 19 90 23 63 72 52 57
53 62 64 65 59 55 54 58 72 87 74 47 56 59 73 73 96 100 72 70 52 46 93 97 96 96 97 98 98 98 98 91 75 65 55 48 47 40 36 30 28 26 84 38 62 93 73 65 56
43 47 54 52 49 56 56 47 63 76 72 65 67 80 91 95 98 97 98 60 41 66 93 92 95 96 96 97 96 93 96 94 87 73 59 43 39 36 33 30 31 82 61 53 94 92 94 85 94
24 29 37 37 37 44 53 40 48 68 85 99 88 79 76 98 97 91 89 97 54 55 88 92 97 96 97 97 96 98 97 92 78 67 43 52 47 52 50 74 77 74 69 90 92 96 92 97 96
9 13 27 35 30 31 38 43 73 58 67 76 66 77 90 79 91 95 78 99 93 83 94 94 95 96 96 97 98 97 96 96 93 92 73 51 46 54 90 86 95 95 95 95 97 97 95 95 94
8 12 13 25 40 31 31 39 90 81 89 74 74 75 77 95 98 89 85 92 97 97 96 96 98 96 97 96 96 96 96 98 97 92 86 93 70 96 75 90 97 95 97 97 95 92 83 95 96
13 36 66 85 72 40 34 36 100 81 99 83 82 82 90 88 95 96 95 97 95 96 96 96 97 95 97 96 97 96 95 96 96 96 95 94 96 98 95 96 97 98 96 96 96 96 97 96 96
25 86 100 100 99 93 44 66 66 73 83 97 96 95 68 76 93 98 96 96 97 95 94 95 95 96 95 96 97 97 97 96 97 96 95 97 94 95 95 92 96 95 97 97 96 96 97 96 95
43 91 100 100 100 100 100 63 44 48 71 91 98 93 89 98 93 100 96 94 96 95 96 96 95 94 97 93 93 96 96 95 94 96 98 97 98 93 96 99 96 93 98 97 97 96 98 95 92
40 96 100 100 93 93 100 93 52 45 50 71 83 89 89 84 92 93 100 95 94 88 95 96 96 87 93 93 96 95 97 97 94 96 95 99 98 97 96 96 97 97 97 95 96 97 95 83 70
29 95 96 92 97 100 100 82 57 65 49 38 58 78 100 95 98 87 100 90 94 95 92 86 91 95 96 97 97 94 96 93 73 95 96 96 97 96 94 97 96 99 94 86 92 94 76 60 59
18 34 65 95 86 100 100 95 86 67 49 63 47 55 67 92 97 91 85 86 95 88 98 95 93 92 89 88 89 93 89 75 74 86 78 79 76 86 90 87 77 81 74 72 84 69 62 48 54

GFSSGP_500_rhum_117.txt.gz
RH
35 30 37 36 30 22 14 13 12 11 10 9 10 10 11 12 17 21 24 22 30 34 42 40 61 74 61 47 38 32 23 14 17 24 9 6 6 5 4 6 7 9 7 6 5 3 3 5 8
40 38 38 37 31 25 15 16 14 12 11 11 12 12 11 12 15 12 14 20 24 31 41 35 51 70 70 55 45 37 28 16 15 24 18 6 5 4 5 7 8 8 8 7 6 3 4 7 9
48 47 47 42 31 23 21 22 18 15 12 12 11 12 13 12 15 11 10 10 12 25 36 39 37 66 71 64 55 44 32 18 14 20 24 11 6 4 6 7 8 9 8 8 7 4 3 7 9
53 49 47 45 40 33 30 25 20 16 12 10 10 10 9 9 12 10 10 10 11 15 26 49 37 48 71 68 58 50 38 22 14 17 24 20 8 6 6 7 9 12 10 8 8 7 4 6 9
52 47 40 44 38 34 24 18 14 16 13 8 8 8 10 11 11 9 9 10 13 38 24 41 43 43 56 73 61 53 40 27 16 15 22 26 16 8 8 10 13 14 11 8 8 8 6 5 7
39 23 23 26 22 17 12 12 11 9 9 8 7 11 9 13 26 20 11 10 10 10 13 30 47 38 48 70 71 57 44 33 21 15 20 26 25 16 13 16 19 14 10 9 8 9 8 6 6
10 9 10 11 12 12 10 7 10 10 9 5 5 5 7 14 38 52 21 12 11 11 11 10 49 42 39 54 76 62 47 37 27 18 16 23 28 27 18 19 19 12 9 9 9 10 9 7 6
5 6 5 4 3 4 3 3 4 8 10 4 5 5 4 6 30 45 62 56 26 16 14 10 33 49 43 46 72 71 52 42 31 23 17 17 25 31 27 21 14 10 9 10 10 11 10 8 7
9 5 3 4 3 5 6 7 8 11 12 7 6 6 6 5 20 47 56 85 67 25 16 19 22 59 49 44 59 74 63 51 39 29 22 19 19 28 28 24 13 11 10 11 11 11 11 10 8
15 15 12 12 6 4 3 3 3 4 6 7 5 5 4 6 6 13 38 86 91 47 20 21 19 62 59 48 44 62 64 51 43 31 25 22 21 24 34 22 15 14 11 12 12 12 12 11 10
35 47 46 45 39 31 9 6 5 3 3 4 9 5 9 5 4 9 59 90 85 70 27 17 20 68 71 54 46 49 59 48 38 32 28 26 26 25 30 23 18 17 12 12 12 13 13 13 12
50 56 63 70 72 76 75 74 56 49 26 32 14 12 42 16 7 50 36 88 52 66 42 36 28 60 80 59 49 48 52 46 37 34 30 32 30 28 26 23 19 18 14 13 14 14 14 14 13
55 55 55 74 73 84 95 88 98 82 100 94 73 58 94 57 37 78 9 84 96 89 64 30 20 48 80 70 54 49 53 48 44 37 36 39 35 33 29 24 20 16 15 14 14 14 15 15 16
51 56 60 74 71 76 80 70 64 99 94 100 100 81 70 98 60 58 27 96 98 94 83 29 18 31 73 78 63 60 57 52 47 42 44 44 39 36 33 26 22 17 16 15 15 14 14 15 17
54 77 92 99 100 100 89 80 98 99 89 100 97 73 97 54 88 92 54 55 51 94 92 75 63 44 79 91 71 70 66 66 54 53 54 50 44 40 38 30 23 19 17 16 15 15 15 17 18
68 90 98 98 92 86 88 100 100 90 68 86 74 98 95 67 97 71 78 62 98 95 93 86 83 77 69 76 83 70 73 71 63 67 64 54 48 44 37 34 28 26 20 19 19 18 18 20 20
79 85 90 97 98 83 88 100 100 76 80 77 70 95 96 81 97 98 93 98 96 96 96 97 91 83 96 98 97 74 73 76 74 77 66 58 52 47 41 35 28 26 25 25 23 22 21 21 19
61 63 66 87 74 93 93 94 96 67 47 61 76 82 90 96 98 95 97 96 96 96 96 95 88 80 91 96 92 85 73 88 89 88 74 65 58 50 42 35 30 27 28 28 25 23 23 31 77
40 50 60 70 61 56 56 73 96 84 68 63 85 77 97 94 88 98 96 97 97 98 90 84 93 86 70 94 97 94 78 74 86 90 83 74 62 53 42 34 31 32 31 28 26 24 28 50 62
34 43 57 58 65 57 55 60 75 74 74 78 56 57 84 79 95 89 97 97 96 91 84 74 88 95 81 96 96 96 95 96 100 100 93 81 67 54 43 38 36 34 30 28 26 27 36 81 44
27 44 52 48 54 48 53 87 75 77 72 66 51 76 91 82 95 98 98 92 95 90 86 87 74 95 95 96 96 96 96 95 93 91 96 82 65 53 44 43 36 33 32 31 27 32 91 57 60
11 12 22 32 37 42 39 58 59 83 91 72 61 74 89 94 96 95 91 84 87 86 77 80 86 92 96 94 97 97 97 96 96 99 98 88 71 57 44 39 45 50 45 39 34 67 95 96 95
12 11 11 19 30 35 36 99 100 100 100 99 100 82 90 79 96 98 96 97 88 96 94 78 63 63 75 96 96 96 97 97 96 96 94 87 72 66 51 45 68 55 51 43 72 95 97 96 97
14 17 15 14 20 36 39 100 98 93 99 96 91 87 98 97 86 94 91 96 86 98 98 99 71 59 93 97 96 96 96 96 99 97 98 97 96 90 67 74 73 88 86 91 94 94 96 95 97
23 36 43 56 30 52 33 76 92 69 100 100 100 100 88 98 97 92 98 92 90 96 97 98 94 91 93 95 96 96 97 96 97 98 98 96 82 91 77 79 96 95 76 88 93 88 97 93 97
68 93 100 100 91 77 51 45 100 65 95 100 98 97 99 85 96 96 97 98 98 96 94 95 98 92 94 94 96 96 96 96 96 96 97 98 96 94 93 94 93 90 87 94 94 93 94 95 97
78 100 100 100 100 92 98 63 73 49 81 98 98 95 85 80 82 96 98 98 97 98 97 97 98 94 97 96 96 96 98 95 95 97 95 95 95 91 92 93 94 95 96 96 96 96 98 97 93
59 92 90 99 99 100 88 86 62 44 68 93 100 97 93 85 84 84 81 95 97 97 98 96 95 97 96 95 96 97 98 96 96 94 94 97 96 97 98 94 96 82 93 98 97 98 100 95 98
62 66 73 71 67 100 84 62 57 43 44 64 90 97 98 97 98 87 81 81 92 96 94 95 97 98 96 96 96 96 96 95 98 96 97 97 97 93 98 98 95 94 96 95 94 97 98 97 96
25 53 57 67 100 96 73 73 77 61 39 44 57 73 95 91 99 94 91 88 100 96 97 87 95 98 97 97 97 92 94 97 95 97 98 96 96 95 87 96 98 97 97 97 97 97 97 97 97